[[{"header":{"parameterUnit":"m.s-1","parameterCategory":1,"la1":30.6,"la2":28.766,"lo1":-90.7593,"lo2":-88.6598,"dy":0.0162,"dx":0.0183,"nx":116,"ny":114,"refTime":"2024-04-03T00:00:00:Z","depth":0,"parameterNumber":2,"parameterNumberName":"U-component_of_WINDS"},"data":[0.0,0.0,0.0,0.0,0.0,0.0,0.0,0.0,0.0,0.0,0.0,0.0,0.0,0.0,0.0,0.0,0.0,0.0,0.0,0.0,0.0,0.0,0.0,0.0,0.0,0.0,0.0,0.0,0.0,0.0,0.0,0.0,0.0,0.0,0.0,0.0,0.0,0.0,0.0,0.0,0.0,0.0,0.0,0.0,0.0,0.0,0.0,0.0,0.0,0.0,0.0,0.0,0.0,0.0,0.0,0.0,0.0,0.0,0.0,0.0,0.0,0.0,0.0,0.0,0.0,0.0,0.0,0.0,0.0,0.0,0.0,0.0,0.0,0.0,0.0,0.0,0.0,0.0,0.0,0.0,0.0,0.0,0.0,0.0,0.0,0.0,0.0,0.0,0.0,0.0,0.0,0.0,0.0,0.0,0.0,0.0,0.0,0.0,0.0,0.0,0.0,0.0,0.0,0.0,0.0,0.0,0.0,0.0,0.0,0.0,0.0,0.0,0.0,0.0,0.0,0.0,0.0,0.0,0.0,0.0,0.0,0.0,0.0,0.0,0.0,0.0,0.0,0.0,0.0,0.0,0.0,0.0,0.0,0.0,0.0,0.0,0.0,0.0,0.0,0.0,0.0,0.0,0.0,0.0,0.0,0.0,0.0,0.0,0.0,0.0,0.0,0.0,0.0,0.0,0.0,0.0,0.0,0.0,0.0,0.0,0.0,0.0,0.0,0.0,0.0,0.0,0.0,0.0,0.0,0.0,0.0,0.0,0.0,0.0,0.0,0.0,0.0,0.0,0.0,0.0,0.0,0.0,0.0,0.0,0.0,0.0,0.0,0.0,0.0,0.0,0.0,0.0,0.0,0.0,0.0,0.0,0.0,0.0,0.0,0.0,0.0,0.0,0.0,0.0,0.0,0.0,0.0,0.0,0.0,0.0,0.0,0.0,0.0,0.0,0.0,0.0,0.0,0.0,0.0,0.0,0.0,0.0,0.0,0.0,0.0,0.0,0.0,0.0,0.0,0.0,0.0,0.0,0.0,0.0,0.0,0.0,0.0,0.0,0.0,0.0,0.0,0.0,0.0,0.0,0.0,0.0,0.0,0.0,0.0,0.0,0.0,0.0,0.0,0.0,0.0,0.0,0.0,0.0,0.0,0.0,0.0,0.0,0.0,0.0,0.0,0.0,0.0,0.0,0.0,0.0,0.0,0.0,0.0,0.0,0.0,0.0,0.0,0.0,0.0,0.0,0.0,0.0,0.0,0.0,0.0,0.0,0.0,0.0,0.0,0.0,0.0,0.0,0.0,0.0,0.0,0.0,0.0,0.0,0.0,0.0,0.0,0.0,0.0,0.0,0.0,0.0,0.0,0.0,0.0,0.0,0.0,0.0,0.0,0.0,0.0,0.0,0.0,0.0,0.0,0.0,0.0,0.0,0.0,0.0,0.0,0.0,0.0,0.0,0.0,0.0,0.0,0.0,0.0,0.0,0.0,0.0,0.0,0.0,0.0,0.0,0.0,0.0,0.0,0.0,0.0,0.0,0.0,0.0,0.0,0.0,0.0,0.0,0.0,0.0,0.0,0.0,0.0,0.0,0.0,0.0,0.0,0.0,0.0,0.0,0.0,0.0,0.0,0.0,0.0,0.0,0.0,0.0,0.0,0.0,0.0,0.0,0.0,0.0,0.0,0.0,0.0,0.0,0.0,0.0,0.0,0.0,0.0,0.0,0.0,0.0,0.0,0.0,0.0,0.0,0.0,0.0,0.0,0.0,0.0,0.0,0.0,0.0,0.0,0.0,0.0,0.0,0.0,0.0,0.0,0.0,0.0,0.0,0.0,0.0,0.0,0.0,0.0,0.0,0.0,0.0,0.0,0.0,0.0,0.0,0.0,0.0,0.0,0.0,0.0,0.0,0.0,0.0,0.0,0.0,0.0,0.0,0.0,0.0,0.0,0.0,0.0,0.0,0.0,0.0,0.0,0.0,0.0,0.0,0.0,0.0,0.0,0.0,0.0,0.0,0.0,0.0,0.0,0.0,0.0,0.0,0.0,0.0,0.0,0.0,0.0,0.0,0.0,0.0,0.0,0.0,0.0,0.0,0.0,0.0,0.0,0.0,0.0,0.0,0.0,0.0,0.0,0.0,0.0,0.0,0.0,0.0,0.0,0.0,0.0,0.0,0.0,0.0,0.0,0.0,0.0,0.0,0.0,0.0,0.0,0.0,0.0,0.0,0.0,0.0,0.0,0.0,0.0,0.0,0.0,0.0,0.0,0.0,0.0,0.0,0.0,0.0,0.0,0.0,0.0,0.0,0.0,0.0,0.0,0.0,0.0,0.0,0.0,0.0,0.0,0.0,0.0,0.0,0.0,0.0,0.0,0.0,0.0,0.0,0.0,0.0,0.0,0.0,0.0,0.0,0.0,0.0,0.0,0.0,0.0,0.0,0.0,0.0,0.0,0.0,0.0,0.0,0.0,0.0,0.0,0.0,0.0,0.0,0.0,0.0,0.0,0.0,0.0,0.0,0.0,0.0,0.0,0.0,0.0,0.0,0.0,0.0,0.0,0.0,0.0,0.0,0.0,0.0,0.0,0.0,0.0,0.0,0.0,0.0,0.0,0.0,0.0,0.0,0.0,0.0,0.0,0.0,0.0,0.0,0.0,0.0,0.0,0.0,0.0,0.0,0.0,0.0,0.0,0.0,0.0,0.0,0.0,0.0,0.0,0.0,0.0,0.0,0.0,0.0,0.0,0.0,0.0,0.0,0.0,0.0,0.0,0.0,0.0,0.0,0.0,0.0,0.0,0.0,0.0,0.0,0.0,0.0,0.0,0.0,0.0,0.0,0.0,0.0,0.0,0.0,0.0,0.0,0.0,0.0,0.0,0.0,0.0,0.0,0.0,0.0,0.0,0.0,0.0,0.0,0.0,0.0,0.0,0.0,0.0,0.0,0.0,0.0,0.0,0.0,0.0,0.0,0.0,0.0,0.0,0.0,0.0,0.0,0.0,0.0,0.0,0.0,0.0,0.0,0.0,0.0,0.0,0.0,0.0,0.0,0.0,0.0,0.0,0.0,0.0,0.0,0.0,0.0,0.0,0.0,0.0,0.0,0.0,0.0,0.0,0.0,0.0,0.0,0.0,0.0,0.0,0.0,0.0,0.0,0.0,0.0,0.0,0.0,0.0,0.0,0.0,0.0,0.0,0.0,0.0,0.0,0.0,0.0,0.0,0.0,0.0,0.0,0.0,0.0,0.0,0.0,0.0,0.0,0.0,0.0,0.0,0.0,0.0,0.0,0.0,0.0,0.0,0.0,0.0,0.0,0.0,0.0,0.0,0.0,0.0,0.0,0.0,0.0,0.0,0.0,0.0,0.0,0.0,0.0,0.0,0.0,0.0,0.0,0.0,0.0,0.0,0.0,0.0,0.0,0.0,0.0,0.0,0.0,0.0,0.0,0.0,0.0,0.0,0.0,0.0,0.0,0.0,0.0,0.0,0.0,0.0,0.0,0.0,0.0,0.0,0.0,0.0,0.0,0.0,0.0,0.0,0.0,0.0,0.0,0.0,0.0,0.0,0.0,0.0,0.0,0.0,0.0,0.0,0.0,0.0,0.0,0.0,0.0,0.0,0.0,0.0,0.0,0.0,0.0,0.0,0.0,0.0,0.0,0.0,0.0,0.0,0.0,0.0,0.0,0.0,0.0,0.0,0.0,0.0,0.0,0.0,0.0,0.0,0.0,0.0,0.0,0.0,0.0,0.0,0.0,0.0,0.0,0.0,0.0,0.0,0.0,0.0,0.0,0.0,0.0,0.0,0.0,0.0,0.0,0.0,0.0,0.0,0.0,0.0,0.0,0.0,0.0,0.0,0.0,0.0,0.0,0.0,0.0,0.0,0.0,0.0,0.0,0.0,0.0,0.0,0.0,0.0,0.0,0.0,0.0,0.0,0.0,0.0,0.0,0.0,0.0,0.0,0.0,0.0,0.0,0.0,0.0,0.0,0.0,0.0,0.0,0.0,0.0,0.0,0.0,0.0,0.0,0.0,0.0,0.0,0.0,0.0,0.0,0.0,0.0,0.0,0.0,0.0,0.0,0.0,0.0,0.0,0.0,0.0,0.0,0.0,0.0,0.0,0.0,0.0,0.0,0.0,0.0,0.0,0.0,0.0,0.0,0.0,0.0,0.0,0.0,0.0,0.0,0.0,0.0,0.0,0.0,0.0,0.0,0.0,0.0,0.0,0.0,0.0,0.0,0.0,0.0,0.0,0.0,0.0,0.0,0.0,0.0,0.0,0.0,0.0,0.0,0.0,0.0,0.0,0.0,0.0,0.0,0.0,0.0,0.0,0.0,0.0,0.0,0.0,0.0,0.0,0.0,0.0,0.0,0.0,0.0,0.0,0.0,0.0,0.0,0.0,0.0,0.0,0.0,0.0,0.0,0.0,0.0,0.0,0.0,0.0,0.0,0.0,0.0,0.0,0.0,0.0,0.0,0.0,0.0,0.0,0.0,0.0,0.0,0.0,0.0,0.0,0.0,0.0,0.0,0.0,0.0,0.0,0.0,0.0,0.0,0.0,0.0,0.0,0.0,0.0,0.0,0.0,0.0,0.0,0.0,0.0,0.0,0.0,0.0,0.0,0.0,0.0,0.0,0.0,0.0,0.0,0.0,0.0,0.0,0.0,0.0,0.0,0.0,0.0,0.0,0.0,0.0,0.0,0.0,0.0,0.0,0.0,0.0,0.0,0.0,0.0,0.0,0.0,0.0,0.0,0.0,0.0,0.0,0.0,0.0,0.0,0.0,0.0,0.0,0.0,0.0,0.0,0.0,0.0,0.0,0.0,0.0,0.0,0.0,0.0,0.0,0.0,0.0,0.0,0.0,0.0,0.0,0.0,0.0,0.0,0.0,0.0,0.0,0.0,0.0,0.0,0.0,0.0,0.0,0.0,0.0,0.0,0.0,0.0,0.0,0.0,0.0,0.0,0.0,0.0,0.0,0.0,0.0,0.0,0.0,0.0,0.0,0.0,0.0,0.0,0.0,0.0,0.0,0.0,0.0,0.0,0.0,0.0,0.0,0.0,0.0,0.0,0.0,0.0,0.0,0.0,0.0,0.0,0.0,0.0,0.0,0.0,0.0,0.0,0.0,0.0,0.0,0.0,0.0,0.0,0.0,0.0,0.0,0.0,0.0,0.0,0.0,0.0,0.0,0.0,0.0,0.0,0.0,0.0,0.0,0.0,0.0,0.0,0.0,0.0,0.0,0.0,0.0,0.0,0.0,0.0,0.0,0.0,0.0,0.0,0.0,0.0,0.0,0.0,0.0,0.0,0.0,0.0,0.0,0.0,0.0,0.0,0.0,0.0,0.0,0.0,0.0,0.0,0.0,0.0,0.0,0.0,0.0,0.0,0.0,0.0,0.0,0.0,0.0,0.0,0.0,0.0,0.0,0.0,0.0,0.0,0.0,0.0,0.0,0.0,0.0,0.0,0.0,0.0,0.0,0.0,0.0,0.0,0.0,0.0,0.0,0.0,0.0,0.0,0.0,0.0,0.0,0.0,0.0,0.0,0.0,0.0,0.0,0.0,0.0,0.0,0.0,0.0,0.0,0.0,0.0,0.0,0.0,0.0,0.0,0.0,0.0,0.0,0.0,0.0,0.0,0.0,0.0,0.0,0.0,0.0,0.0,0.0,0.0,0.0,0.0,0.0,0.0,0.0,0.0,0.0,0.0,0.0,0.0,0.0,0.0,0.0,0.0,0.0,0.0,0.0,0.0,0.0,0.0,0.0,0.0,0.0,0.0,0.0,0.0,0.0,0.0,0.0,0.0,0.0,0.0,0.0,0.0,0.0,0.0,0.0,0.0,0.0,0.0,0.0,0.0,0.0,0.0,0.0,0.0,0.0,0.0,0.0,0.0,0.0,0.0,0.0,0.0,0.0,0.0,0.0,0.0,0.0,0.0,0.0,0.0,0.0,0.0,0.0,0.0,0.0,0.0,0.0,0.0,0.0,0.0,0.0,0.0,0.0,0.0,0.0,0.0,0.0,0.0,0.0,0.0,0.0,0.0,0.0,0.0,0.0,0.0,0.0,0.0,0.0,0.0,0.0,0.0,0.0,0.0,-3.3111,0.0,0.0,0.0,0.0,0.0,0.0,0.0,0.0,0.0,0.0,0.0,0.0,0.0,0.0,0.0,0.0,0.0,0.0,0.0,0.0,0.0,0.0,0.0,0.0,-3.1511,-3.1511,-3.1511,-3.1511,-3.1511,-3.1511,-3.1131,0.0,0.0,0.0,0.0,-2.8971,-2.8136,-2.7504,-2.7061,-2.6679,-2.6499,-2.6499,-2.6499,-2.6499,-2.6499,0.0,0.0,0.0,0.0,0.0,0.0,0.0,0.0,0.0,0.0,0.0,0.0,0.0,0.0,0.0,0.0,0.0,0.0,0.0,0.0,0.0,0.0,0.0,0.0,0.0,0.0,0.0,0.0,0.0,0.0,0.0,0.0,0.0,0.0,0.0,0.0,0.0,0.0,0.0,0.0,0.0,0.0,0.0,0.0,0.0,0.0,0.0,0.0,0.0,0.0,0.0,0.0,0.0,0.0,0.0,0.0,0.0,0.0,0.0,0.0,0.0,0.0,0.0,0.0,0.0,0.0,0.0,0.0,0.0,0.0,0.0,-3.3111,0.0,0.0,0.0,0.0,0.0,0.0,0.0,0.0,0.0,0.0,0.0,0.0,0.0,0.0,0.0,0.0,0.0,0.0,0.0,0.0,0.0,-3.1511,-3.1511,-3.1511,-3.1511,-3.1511,-3.1511,-3.1511,-3.1511,-3.1511,-3.1511,-3.1511,-3.0866,-3.0419,-3.0299,-2.8748,-2.7868,-2.7703,-2.6884,-2.6499,-2.6499,-2.6499,-2.6499,-2.6499,-2.6499,0.0,0.0,0.0,0.0,0.0,0.0,0.0,0.0,0.0,0.0,0.0,0.0,0.0,0.0,0.0,0.0,0.0,0.0,0.0,0.0,0.0,0.0,0.0,0.0,0.0,0.0,0.0,0.0,0.0,0.0,0.0,0.0,0.0,0.0,0.0,0.0,0.0,0.0,0.0,0.0,0.0,0.0,0.0,0.0,0.0,0.0,0.0,0.0,0.0,0.0,0.0,0.0,0.0,0.0,0.0,0.0,0.0,0.0,0.0,0.0,0.0,0.0,0.0,-3.45,-3.468,-3.468,-3.468,-3.468,-3.4675,-3.3746,-3.337,-3.337,-3.337,0.0,0.0,0.0,0.0,0.0,0.0,0.0,0.0,0.0,0.0,0.0,0.0,0.0,0.0,0.0,0.0,0.0,0.0,0.0,-3.1511,-3.1511,-3.1511,-3.1511,-3.1511,-3.1511,-3.1511,-3.1511,-3.1511,-3.1511,-3.1511,-3.1424,-3.0984,-3.0329,-2.9317,-2.846,-2.7703,-2.6884,-2.6499,-2.6499,-2.6499,-2.6499,-2.6499,-2.6499,-2.6499,-2.6499,0.0,0.0,0.0,0.0,0.0,0.0,0.0,0.0,0.0,0.0,0.0,0.0,0.0,0.0,0.0,0.0,0.0,0.0,0.0,0.0,0.0,0.0,0.0,0.0,0.0,0.0,0.0,0.0,0.0,0.0,0.0,0.0,0.0,0.0,0.0,0.0,0.0,0.0,0.0,0.0,0.0,-3.5171,-3.33,0.0,0.0,0.0,0.0,0.0,0.0,0.0,0.0,0.0,0.0,0.0,0.0,0.0,-3.45,-3.45,-3.4575,-3.458,-3.4625,-3.47,-3.468,-3.468,-3.468,-3.468,-3.468,-3.4575,0.0,-3.45,-3.45,0.0,0.0,0.0,0.0,0.0,0.0,0.0,0.0,0.0,0.0,0.0,0.0,0.0,0.0,0.0,0.0,0.0,0.0,0.0,0.0,0.0,-3.1511,-3.1511,-3.1511,-3.1511,-3.1511,-3.1511,-3.1511,-3.1511,-3.1511,-3.1511,-3.1336,-3.0955,-2.9659,-2.833,-2.7027,-2.6679,-2.6499,-2.6499,-2.6499,-2.6499,-2.6499,-2.6499,-2.6499,-2.6499,-2.6499,0.0,0.0,0.0,0.0,0.0,0.0,0.0,0.0,0.0,0.0,0.0,0.0,0.0,0.0,0.0,0.0,0.0,0.0,0.0,0.0,0.0,0.0,0.0,0.0,0.0,0.0,0.0,0.0,0.0,0.0,0.0,0.0,0.0,0.0,0.0,0.0,0.0,0.0,0.0,-3.548,-3.4137,-3.3197,-3.3111,-3.3111,0.0,0.0,0.0,0.0,0.0,0.0,0.0,0.0,0.0,-3.4349,-3.46,-3.468,-3.468,-3.4981,-3.5132,-3.5132,-3.5504,-3.5655,-3.5655,-3.5655,-3.5655,-3.5655,-3.5655,-3.5655,-3.5604,-3.4977,-3.468,-3.468,0.0,0.0,0.0,0.0,-3.468,-3.468,0.0,0.0,0.0,0.0,0.0,0.0,0.0,0.0,0.0,0.0,0.0,0.0,-3.1511,-3.1511,-3.1511,-3.1511,-3.1511,-3.1511,-3.1511,-3.1511,-3.1511,-3.1511,-3.1511,-3.1511,-3.1511,-2.9844,-2.8168,-2.6499,-2.6499,-2.6499,-2.6499,-2.6499,-2.6499,-2.6499,-2.6499,-2.6499,-2.6499,-2.6499,-2.6499,-2.6499,0.0,0.0,0.0,0.0,0.0,0.0,0.0,0.0,0.0,0.0,0.0,0.0,0.0,0.0,0.0,0.0,0.0,0.0,0.0,0.0,0.0,0.0,0.0,0.0,0.0,0.0,0.0,0.0,0.0,0.0,0.0,0.0,0.0,0.0,0.0,0.0,0.0,-3.487,-3.3784,-3.3556,-3.3283,-3.3144,0.0,0.0,0.0,0.0,0.0,0.0,-3.47,-3.4806,-3.4881,-3.4881,-3.5077,-3.5152,-3.5152,-3.5554,-3.5708,-3.5755,-3.6182,-3.6405,-3.6405,-3.6405,-3.6405,-3.6405,-3.6405,-3.6405,-3.6355,-3.5479,-3.5152,-3.5152,-3.5152,-3.5152,-3.5152,-3.5152,-3.5152,-3.5152,0.0,0.0,0.0,0.0,0.0,0.0,0.0,0.0,0.0,0.0,0.0,-3.1511,-3.1511,-3.1511,-3.1511,-3.1511,-3.1511,-3.1511,-3.1511,-3.1511,-3.1511,-3.1511,-3.1511,-3.1511,-3.1511,-2.9844,-2.8168,-2.6499,-2.6499,-2.6499,-2.6499,-2.6499,-2.6499,-2.6499,-2.6499,-2.6499,-2.6499,-2.6499,-2.6499,-2.6499,-2.6499,0.0,0.0,0.0,0.0,0.0,0.0,0.0,0.0,0.0,0.0,0.0,0.0,0.0,0.0,0.0,0.0,0.0,0.0,0.0,0.0,0.0,0.0,0.0,0.0,0.0,0.0,0.0,0.0,0.0,0.0,0.0,0.0,0.0,0.0,0.0,0.0,0.0,0.0,-3.4733,-3.3725,0.0,0.0,0.0,0.0,-3.465,-3.4675,-3.47,-3.468,-3.5182,-3.5458,-3.5458,-3.6006,-3.6329,-3.6329,-3.6355,-3.6355,-3.638,-3.6405,-3.6405,-3.6405,-3.6405,-3.6405,-3.6405,-3.6405,-3.6405,-3.6405,-3.6355,-3.6329,-3.6329,-3.6329,-3.6329,-3.6329,-3.6329,-3.6329,-3.6329,0.0,0.0,0.0,0.0,0.0,-3.1511,-3.1511,-3.1511,-3.1511,-3.1511,-3.1511,-3.1511,-3.1511,-3.1511,-3.1511,-3.1511,-3.1511,-3.1511,-3.1511,-3.1511,-3.1511,-3.1511,-3.1511,-3.0984,-2.9905,-2.8748,-2.7604,-2.6499,-2.6851,-2.7027,-2.7027,-2.7344,-2.7519,-2.7519,-2.7519,-2.7519,-2.7469,-2.6801,-2.6499,-2.6499,-2.6499,-2.67,0.0,0.0,0.0,0.0,0.0,0.0,0.0,0.0,0.0,0.0,0.0,0.0,0.0,0.0,0.0,0.0,0.0,0.0,0.0,0.0,0.0,0.0,0.0,0.0,0.0,0.0,0.0,0.0,0.0,0.0,0.0,0.0,0.0,0.0,0.0,0.0,0.0,-3.5273,-3.5276,0.0,-3.4488,-3.5128,-3.5491,-3.5248,-3.5207,-3.5403,-3.5755,-3.5956,-3.6081,-3.6081,-3.6304,-3.6405,-3.6405,-3.6405,-3.6581,-3.6885,-3.6885,-3.7086,-3.7412,-3.7412,-3.7412,-3.7412,-3.7412,-3.7412,-3.7412,-3.7412,-3.701,-3.6405,-3.6405,-3.6405,-3.6405,-3.6405,-3.6405,-3.6405,0.0,0.0,0.0,0.0,-3.1511,-3.1511,-3.1511,-3.1511,-3.1511,-3.1511,-3.1511,-3.1511,-3.1511,-3.1511,-3.1511,-3.1511,-3.1511,-3.1511,-3.1511,-3.1511,-3.1511,-3.1511,-3.1511,-3.0837,-2.9473,-2.8746,-2.8026,-2.7173,-2.7445,-2.757,-2.757,-2.7921,-2.8097,-2.8097,-2.8097,-2.8097,-2.8047,-2.7318,-2.7052,-2.7027,-2.6851,-2.7102,-2.757,0.0,0.0,0.0,0.0,0.0,0.0,0.0,0.0,0.0,0.0,0.0,0.0,0.0,0.0,0.0,0.0,0.0,0.0,0.0,0.0,0.0,0.0,0.0,0.0,0.0,0.0,0.0,0.0,0.0,0.0,0.0,0.0,0.0,0.0,0.0,-3.6335,-3.6335,-3.6068,-3.562,-3.5022,-3.5718,-3.6058,-3.5827,-3.5805,-3.5981,-3.638,-3.6405,-3.648,-3.6681,-3.6681,-3.6782,-3.6958,-3.6958,-3.7111,-3.7462,-3.7462,-3.7663,-3.8015,-3.8015,-3.8015,-3.8015,-3.8015,-3.8015,-3.8015,-3.8015,-3.7588,-3.6933,-3.6757,-3.6581,-3.6405,-3.6405,-3.6405,-3.6405,0.0,0.0,0.0,-3.1511,-3.1511,-3.1511,-3.1511,-3.1511,-3.1511,-3.1511,-3.1511,-3.1511,-3.1511,-3.1511,-3.1511,-3.1511,-3.1511,-3.1511,-3.1511,-3.1511,-3.1511,-3.1511,-3.1482,-3.1102,-3.0358,-2.9995,-2.9393,-2.8547,-2.8288,-2.8184,-2.8147,-2.8172,-2.8197,-2.8197,-2.8197,-2.8172,-2.8172,-2.8147,-2.8147,-2.8097,-2.7544,-2.7645,-2.8122,0.0,0.0,0.0,0.0,0.0,0.0,0.0,0.0,0.0,0.0,0.0,0.0,0.0,0.0,0.0,0.0,0.0,0.0,0.0,0.0,0.0,0.0,0.0,0.0,0.0,0.0,0.0,0.0,0.0,0.0,0.0,0.0,0.0,-4.0516,-3.9064,-3.8021,-3.809,-3.614,-3.5022,-3.5504,-3.5579,-3.578,-3.6355,-3.643,-3.643,-3.643,-3.6455,-3.6707,-3.7186,-3.7211,-3.7462,-3.799,-3.8015,-3.8015,-3.804,-3.804,-3.804,-3.8065,-3.8065,-3.8065,-3.8065,-3.8065,-3.8065,-3.8065,-3.8065,-3.804,-3.7965,-3.7437,-3.6933,-3.6455,-3.6455,-3.6455,-3.6455,0.0,0.0,-3.1511,-3.1511,-3.1511,-3.1511,-3.1511,-3.1511,-3.1511,-3.1511,-3.1511,-3.1511,-3.1511,-3.1511,-3.1511,-3.1511,-3.1511,-3.1511,-3.1511,-3.1511,-3.1511,-3.1511,-3.0925,-3.0713,-3.0933,-3.0287,-2.9711,-2.9249,-2.9572,-2.9645,-2.9327,-2.9729,-3.0131,-3.0482,-3.0105,-2.993,-2.988,-2.9013,-2.895,-2.9252,-2.8273,-2.8222,-2.8662,0.0,0.0,0.0,0.0,0.0,0.0,0.0,0.0,0.0,0.0,0.0,0.0,0.0,0.0,0.0,0.0,0.0,0.0,0.0,0.0,0.0,0.0,0.0,0.0,0.0,0.0,0.0,0.0,0.0,0.0,0.0,-4.1811,-4.1901,-4.1205,-3.9693,-3.895,-3.9808,-3.8293,-3.7215,-3.7371,-3.7397,-3.7108,-3.6452,-3.6782,-3.696,-3.696,-3.7337,-3.7613,-3.7789,-3.7789,-3.7839,-3.8015,-3.8015,-3.8216,-3.8642,-3.8642,-3.8843,-3.922,-3.922,-3.922,-3.922,-3.922,-3.922,-3.922,-3.922,-3.8994,-3.8567,-3.8015,-3.7688,-3.7563,-3.7563,-3.7563,-3.7563,0.0,-3.1511,-3.1511,-3.1511,-3.1511,-3.1511,-3.1511,-3.1511,-3.1511,-3.1511,-3.1511,-3.1511,-3.1511,-3.1511,-3.1511,-3.1511,-3.1511,-3.1511,-3.1511,-3.1511,-3.1511,-3.1511,-3.1309,-3.1394,-3.1715,-3.1454,-3.1021,-3.0392,-3.0821,-3.0748,-3.0156,-3.0683,-3.111,-3.1386,-3.106,-3.0934,-3.0884,-3.0005,-2.9829,-3.0055,-2.9176,-2.9001,-2.9302,-2.9302,-2.9503,-2.9804,-2.9804,-2.9804,-2.9804,-2.9804,0.0,0.0,0.0,0.0,0.0,0.0,0.0,0.0,0.0,0.0,0.0,0.0,0.0,0.0,0.0,0.0,0.0,0.0,0.0,0.0,0.0,0.0,0.0,0.0,-4.2218,-4.2641,-4.2252,-4.0932,-4.0265,-4.0958,-3.9723,-3.8872,-3.8872,-3.8591,-3.8385,-3.8247,-3.7811,-3.7756,-3.8284,-3.8108,-3.8115,-3.8366,-3.8366,-3.8467,-3.8718,-3.8718,-3.8894,-3.922,-3.922,-3.9371,-3.9697,-3.9697,-3.9697,-3.9697,-3.9697,-3.9697,-3.9697,-3.9697,-3.9496,0.0,0.0,0.0,0.0,0.0,-3.8015,-3.8015,0.0,-3.1511,-3.1511,-3.1511,-3.1511,-3.1511,-3.1511,-3.1511,-3.1511,-3.1511,-3.1511,-3.1511,-3.1511,-3.1511,-3.1511,-3.1511,-3.1511,-3.1511,-3.1511,-3.1511,-3.154,-3.16,-3.2168,-3.2557,-3.2736,-3.3089,-3.2844,-3.1972,-3.2216,-3.1848,-3.0943,-3.1463,-3.1634,-3.1587,-3.1512,-3.1486,-3.1461,-3.0934,-3.0658,-3.0583,-3.008,-2.9854,-2.9804,-2.9804,-2.9804,-2.9804,-2.9804,-2.9804,-2.9804,-2.9804,0.0,0.0,0.0,0.0,0.0,0.0,0.0,0.0,0.0,0.0,0.0,0.0,0.0,0.0,0.0,0.0,0.0,0.0,0.0,0.0,0.0,0.0,0.0,0.0,-4.2629,-4.329,-4.329,-4.2426,-4.1794,-4.1794,-4.0717,-3.9996,-3.9996,-3.9536,-3.9566,-4.0404,-3.9164,-3.8753,-3.9738,0.0,0.0,0.0,0.0,-3.9195,-3.9697,-3.9697,-3.9697,-3.9697,-3.9697,-3.9697,-3.9697,-3.9697,-3.9697,-3.9697,-3.9697,-3.9697,-3.9697,-3.9697,-3.9697,-3.9647,-3.917,-3.8642,-3.8191,-3.8191,-3.8191,-3.8191,0.0,-3.1511,-3.1511,-3.1511,-3.1511,-3.1511,-3.1511,-3.1511,-3.1511,-3.1511,-3.1511,-3.1511,-3.1511,-3.1511,-3.1511,-3.1511,-3.1511,-3.1511,-3.1511,-3.1511,-3.175,-3.2258,-3.2437,-3.3006,-3.4114,-3.4165,-3.427,-3.4346,-3.4398,-3.4002,-3.3157,-3.3261,-3.3111,-3.2742,-3.2265,-3.2064,-3.2014,-3.1461,-3.1009,-3.0608,-3.0507,-3.0181,-2.9804,-2.9804,-2.9804,-2.9804,-2.9804,-2.9804,-2.9804,-2.9804,-2.9804,-2.988,-3.0432,-3.0909,0.0,0.0,0.0,0.0,0.0,0.0,0.0,0.0,0.0,0.0,0.0,0.0,0.0,0.0,0.0,0.0,0.0,0.0,0.0,-4.3021,-4.317,-4.329,-4.329,-4.313,-4.2981,-4.2981,-4.1554,-4.0576,-4.0531,-4.0948,-4.048,-3.8666,-3.9618,-3.9907,-3.9118,-3.9272,-3.9421,-3.9521,-3.9546,-3.9597,-3.9697,-3.9697,-3.9697,-3.9697,0.0,0.0,-3.9697,-3.9697,-3.9697,-3.9697,-3.9697,-3.9697,-3.9697,-3.9697,-3.9697,-3.9697,-3.9572,-3.9471,-3.9371,-3.9371,-3.9371,-3.9371,0.0,-3.1511,-3.1511,-3.1511,-3.1511,-3.1511,-3.1511,-3.1511,-3.1511,-3.1511,-3.1511,-3.1511,-3.1511,-3.1511,-3.1511,-3.1511,-3.1511,-3.1511,-3.1511,-3.1511,-3.1809,-3.2467,-3.2826,-3.3455,-3.4474,-3.4831,-3.5004,-3.4998,-3.5309,-3.4892,-3.382,-3.411,-3.3835,-3.3111,-3.2767,-3.2641,-3.2616,-3.2039,-3.1486,-3.0984,-3.0708,-3.0281,-2.9804,-2.9804,-2.9804,-2.9804,-2.9804,-2.9804,-2.9804,-2.9804,-2.998,-3.0306,-3.0834,-3.1361,-3.1913,0.0,0.0,0.0,0.0,0.0,0.0,0.0,0.0,0.0,0.0,0.0,0.0,0.0,0.0,-4.2045,-4.2408,0.0,-4.313,-4.2548,-4.2941,-4.329,-4.329,-4.3589,-4.3798,-4.3798,-4.3036,-4.2653,-4.2969,-4.3092,-4.2851,-4.2214,-4.214,-4.1871,-4.1218,-4.0813,-4.0364,-3.9749,-3.9697,-3.9697,-3.9697,-3.9697,-3.9697,-3.9697,-3.9697,-3.9697,-3.9697,-3.9697,-3.9697,-3.9697,-3.9697,-3.9697,-3.9697,-3.9697,-3.9697,-3.9697,-3.9697,-3.9697,-3.9697,-3.9697,-3.9697,-3.9697,0.0,-3.1511,-3.1511,-3.1511,-3.1511,-3.1511,-3.1511,-3.1511,-3.1511,-3.1511,-3.1511,-3.1511,-3.1511,-3.1511,-3.1511,-3.1511,-3.1511,-3.1511,-3.1511,-3.1511,-3.1809,-3.2467,-3.3155,-3.3814,-3.4503,-3.516,-3.5426,-3.5305,-3.5874,-3.5571,-3.4391,-3.5009,-3.4733,-3.37,-3.3513,-3.3386,-3.336,-3.2525,-3.1888,-3.1336,-3.0834,-3.0281,-2.9804,-2.9804,-2.9804,-2.9804,-2.9804,-2.9804,-2.9804,-2.9905,-3.0256,-3.0733,-3.1361,-3.1863,-3.2357,-3.3191,-3.3386,0.0,0.0,0.0,0.0,0.0,0.0,0.0,0.0,-4.051,-4.21,-4.1534,-4.2257,-4.278,-4.207,-4.267,-4.2981,-4.207,-4.267,-4.3349,-4.3469,-4.3947,-4.4407,-4.4676,-4.4706,-4.4833,-4.509,-4.5039,-4.5156,-4.5711,-4.4344,-4.3409,-4.3122,-4.1936,-4.0743,-3.9749,-3.9697,-3.9697,-3.9697,-3.9697,-3.9697,-3.9697,-3.9697,-3.9697,-3.9697,-3.9697,-3.9697,-3.9697,-3.9697,-3.9697,-3.9697,-3.9697,-3.9697,-3.9697,-3.9697,-3.9697,-3.9697,-3.9697,-3.9697,-3.9697,0.0,-3.1511,-3.1511,-3.1511,-3.1511,-3.1511,-3.1511,-3.1511,-3.1511,-3.1511,-3.1511,-3.1511,-3.1511,-3.1511,-3.1511,-3.1511,-3.1511,-3.1511,-3.1511,-3.1511,-3.1809,-3.2467,-3.3155,-3.3814,-3.4503,-3.516,-3.5786,-3.6343,-3.6935,-3.694,-3.6465,-3.712,-3.6866,-3.5814,-3.4938,-3.4511,-3.4444,-3.286,-3.1888,-3.1336,-3.0834,-3.0281,-2.9804,-2.9804,-2.9804,-2.9804,-2.9804,-2.9804,-2.9854,-3.0357,-3.0557,-3.0783,-3.1813,-3.2164,-3.2525,-3.4064,-3.4511,-3.4692,-3.5614,-3.5934,-3.6318,-3.7443,-3.8726,-3.9287,0.0,-3.9653,-4.1522,-4.0989,-4.1377,-4.207,-4.2941,-4.321,-4.325,-4.313,-4.321,-4.3499,-4.4107,-4.4257,-4.4766,-4.592,-4.607,-4.5658,-4.4617,-4.6005,-4.6093,-4.3957,-4.3618,-4.3026,-4.1887,-4.0592,-3.9826,-3.9697,-3.9697,-3.9697,-3.9697,-3.9697,-3.9697,-3.9697,-3.9697,-3.9697,-3.9697,-3.9697,-3.9697,-3.9697,-3.9697,-3.9697,-3.9697,-3.9697,-3.9697,-3.9697,-3.9697,-3.9697,-3.9697,-3.9697,-3.9697,-3.9697,0.0,0.0,-3.1511,-3.1511,-3.1511,-3.1511,-3.1511,-3.1511,-3.1511,-3.1511,-3.1511,-3.1511,-3.1511,-3.1511,-3.1511,-3.1511,-3.1511,-3.1511,-3.1511,-3.1511,-3.1809,-3.2467,-3.2766,-3.3395,-3.4474,-3.4771,-3.5429,-3.6477,-3.6746,-3.6684,-3.628,-3.6568,-3.5798,-3.419,-3.3781,-3.3285,-3.2741,-3.2019,-3.1411,-3.0909,-3.0708,-3.0281,-2.9804,-2.9804,-2.9804,-2.9856,-3.0419,-3.062,0.0,0.0,-3.1629,-3.1923,-3.2129,-3.2877,-3.3783,-3.4474,-3.5116,-3.5654,-3.6093,-3.6643,-3.7451,-3.8658,-3.9848,-4.0753,-4.076,-4.1719,-4.253,-4.2275,-4.2452,-4.271,-4.321,-4.329,-4.329,0.0,-4.329,-4.3529,-4.4227,-4.4646,-4.5244,-4.6202,-4.6608,-4.6645,-4.6137,-4.6797,-4.6887,-4.5779,-4.5734,-4.484,-4.2786,-4.223,-4.1219,-3.9749,-3.9697,-3.9697,-3.9697,-3.9697,-3.9697,-3.9697,-3.9697,-3.9697,-3.9697,-3.9697,-3.9697,-3.9697,-3.9697,-3.9697,-3.9697,-3.9697,-3.9697,-3.9697,-3.9697,-3.9697,-3.9697,-3.9697,-3.9697,-3.9697,0.0,0.0,0.0,-3.1511,-3.1511,-3.1511,-3.1511,-3.1511,-3.1511,-3.1511,-3.1511,-3.1511,-3.1511,-3.1511,-3.1511,-3.1511,-3.1511,-3.1511,-3.1511,-3.1511,-3.172,-3.2198,-3.2378,-3.2946,-3.3903,-3.4324,-3.4983,-3.5971,-3.6297,-3.6348,-3.6067,-3.6241,-3.5516,-3.4049,-3.3772,-3.3298,-3.2594,-3.1869,-3.1508,-3.1319,-3.0918,-3.0534,-3.0177,-3.0177,-3.0177,-3.0292,-3.097,-3.131,0.0,-3.2368,-3.3031,-3.3462,-3.3346,-3.4144,-3.5156,-3.5467,-3.6279,-3.707,-3.707,-3.7663,-3.8518,-3.9663,-4.071,-4.1683,-4.2821,-4.317,-4.329,-4.329,-4.329,-4.329,-4.329,-4.329,-4.329,-4.329,-4.3439,-4.3798,-4.4496,-4.5155,-4.5843,-4.6501,-4.701,-4.7309,-4.7309,-4.7309,-4.7309,-4.7309,-4.6975,-4.5958,-4.4116,-4.3693,-4.2496,-4.0262,-4.0211,-4.0083,-3.9697,-3.9697,-3.9697,-3.9697,-3.9697,-3.9697,-3.9697,-3.9697,-3.9697,-3.9697,-3.9697,-3.9697,-3.9697,-3.9697,-3.9697,-3.9697,-3.9697,-3.9697,-3.9697,-3.9697,-3.9697,-3.9697,0.0,0.0,0.0,0.0,-3.1511,-3.1511,-3.1511,-3.1511,-3.1511,-3.1511,-3.1511,-3.1511,-3.1511,-3.1511,-3.1511,-3.1511,-3.1511,-3.1511,-3.1511,-3.1511,-3.1511,-3.154,-3.2138,-3.2497,-3.2587,-3.3814,-3.4533,-3.4563,-3.5848,-3.6477,-3.6473,-3.7101,-3.7336,-3.7233,-3.6228,-3.5798,-3.5625,-3.3063,-3.2493,-3.3193,-3.1766,-3.1156,-3.1156,-3.1156,-3.1156,-3.1167,-3.1167,0.0,-3.241,-3.3858,-3.4765,-3.5411,-3.5912,-3.6105,-3.6369,-3.7396,-3.8472,-3.9301,-3.9301,-3.9337,-3.9516,-4.021,-4.0905,-4.1602,-4.2261,-4.288,-4.329,-4.329,-4.329,-4.329,-4.329,-4.329,-4.329,-4.329,-4.3828,-4.4496,-4.5185,-4.5873,-4.6531,-4.7189,-4.7309,-4.7309,0.0,-4.7309,-4.7309,-4.7309,-4.6166,-4.5389,-4.5343,-4.4163,-4.2882,-4.1591,-4.1541,-4.0945,-3.9697,-3.9697,-3.9697,-3.9697,-3.9697,-3.9697,-3.9697,-3.9697,-3.9697,-3.9697,-3.9697,-3.9697,-3.9697,-3.9697,-3.9697,-3.9697,-3.9697,-3.9697,-3.9697,-3.9697,-3.9697,-3.9697,0.0,0.0,0.0,0.0,0.0,-3.1511,-3.1511,-3.1511,-3.1511,-3.1511,-3.1511,0.0,0.0,0.0,0.0,0.0,-3.1511,-3.1511,-3.1511,-3.1511,-3.1511,-3.1511,-3.172,-3.2049,-3.2497,-3.2946,-3.3604,-3.4503,-3.4953,-3.54,-3.5848,-3.6058,-3.5755,-3.5122,-3.4779,-3.4298,-3.3633,-3.2791,-3.2572,-3.2825,-3.2318,-3.1756,-3.1278,-3.1901,-3.1756,-3.1405,0.0,0.0,-3.4197,-3.5071,-3.5804,-3.6316,-3.6214,-3.6682,-3.7472,-3.8546,-3.909,-3.9373,-3.9373,-3.9738,-4.0217,-4.0876,-4.1572,-4.2231,-4.2851,-4.314,-4.329,-4.329,-4.329,-4.329,-4.329,-4.329,-4.329,-4.329,-4.3858,-4.4556,-4.5214,-4.5903,-4.6561,-4.7219,-4.7309,0.0,0.0,0.0,0.0,-4.7309,-4.6931,-4.6299,-4.5434,-4.421,-4.293,-4.164,-4.0794,-4.0134,-3.9697,-3.9697,-3.9697,-3.9697,-4.0074,-4.0425,-4.0724,-4.0724,-4.0724,-4.0724,-4.0724,-4.0576,-4.0249,-4.0249,-4.0023,-3.9697,-3.9697,-3.9697,-3.9697,-3.9697,-3.9697,-3.9697,0.0,0.0,0.0,0.0,0.0,0.0,0.0,0.0,0.0,0.0,0.0,0.0,0.0,0.0,0.0,0.0,0.0,-3.1511,-3.1511,-3.1511,-3.1511,-3.1511,-3.1511,-3.169,-3.2138,-3.2407,-3.3036,-3.4144,-3.4384,-3.4831,-3.5519,-3.5519,-3.5166,-3.4543,-3.4543,-3.4211,-3.3602,-3.3255,-3.3325,-3.3602,-3.3227,-3.2735,-3.2272,-3.2876,-3.2735,0.0,0.0,-3.5381,-3.595,-3.6587,-3.7229,-3.7703,-3.7443,-3.7814,-3.8509,-3.9192,-3.9373,-3.9373,-3.9373,-3.9888,-4.0546,-4.1205,-4.1901,-4.256,-4.314,-4.329,-4.329,-4.329,-4.329,-4.329,-4.329,-4.329,-4.329,-4.329,-4.4077,-4.4825,-4.5244,-4.6082,-4.683,-4.7249,-4.7309,-4.7309,0.0,0.0,0.0,-4.7309,-4.7309,-4.6931,-4.6121,-4.5298,-4.4069,-4.2301,-4.1468,-4.0592,-3.9697,-3.9898,-4.0099,-4.03,-4.0651,-4.1003,-4.1275,-4.1275,-4.1275,-4.1275,-4.1275,-4.1075,-4.0802,-4.0802,-4.0475,-3.9998,-3.9998,-3.9873,-3.9697,-3.9697,-3.9697,-3.9697,0.0,0.0,0.0,0.0,0.0,0.0,0.0,0.0,0.0,0.0,0.0,0.0,0.0,0.0,0.0,0.0,0.0,0.0,-3.1511,-3.1511,-3.1511,-3.1511,-3.1511,-3.1511,-3.1511,-3.2138,-3.2826,-3.3484,-3.4174,-3.4831,-3.5519,-3.5519,-3.5519,-3.5519,-3.5519,-3.5519,-3.5424,-3.4476,-3.461,-3.5424,-3.4476,-3.4075,-3.4013,-3.4075,0.0,0.0,0.0,-3.6089,-3.7494,-3.8153,-3.8841,-3.9373,-3.9373,-3.9373,-3.9373,-3.9373,-3.9373,-3.9373,-3.9373,-3.9918,-4.0606,-4.1235,-4.1931,-4.262,-4.314,-4.329,-4.329,-4.329,-4.329,-4.329,0.0,0.0,-4.329,-4.329,-4.4436,-4.5304,-4.5304,-4.6441,-4.7309,0.0,0.0,0.0,0.0,0.0,0.0,-4.7309,0.0,-4.7266,-4.7222,-4.7149,-4.5958,-4.3504,-4.3361,-4.2133,-3.9774,-4.0275,-4.0774,-4.1326,-4.1326,-4.1351,-4.1376,-4.1376,-4.1376,-4.1376,-4.1376,-4.1351,-4.1326,-4.1326,-4.1053,-4.0551,-4.0526,-4.0199,-3.9747,-3.9697,-3.9697,-3.9697,0.0,0.0,0.0,0.0,0.0,0.0,0.0,0.0,0.0,0.0,0.0,0.0,0.0,0.0,0.0,0.0,0.0,0.0,-3.1511,-3.1511,-3.1511,-3.1511,-3.1511,-3.1511,-3.1511,-3.2138,-3.2826,-3.3484,-3.4174,-3.4831,-3.5519,-3.5519,-3.5519,-3.5519,-3.5519,-3.5519,-3.5457,-3.5228,-3.5294,-3.5457,0.0,-3.4643,-3.4081,0.0,0.0,0.0,-3.6109,-3.7049,-3.7494,-3.8153,-3.8841,-3.9373,-3.9373,-3.9373,-3.9373,-3.9373,-3.9373,-3.9373,-3.9373,-4.0247,-4.1175,-4.1354,-4.2252,-4.312,-4.326,-4.329,-4.329,-4.329,-4.329,-4.329,-4.329,-4.329,0.0,-4.329,-4.4436,0.0,-4.5304,-4.6441,0.0,-4.7309,-4.7309,-4.7309,-4.7309,-4.7309,0.0,0.0,-4.7309,-4.6887,-4.5913,-4.4978,-4.374,-4.2133,-4.1169,-4.0568,-4.03,-4.0852,-4.1404,-4.1957,-4.1957,-4.2158,-4.2559,-4.2559,-4.2559,-4.2559,-4.2559,-4.2333,-4.1957,-4.1957,-4.163,-4.105,-4.0676,-4.0425,-4.0249,-3.9848,-3.9697,-3.9697,0.0,0.0,0.0,0.0,0.0,0.0,0.0,0.0,0.0,0.0,0.0,0.0,0.0,0.0,0.0,0.0,0.0,0.0,0.0,-3.1511,-3.1511,-3.1511,-3.1511,-3.1511,-3.1511,-3.2138,-3.2826,-3.3484,-3.4174,-3.4831,-3.5519,-3.5519,-3.5519,-3.5519,-3.5519,-3.5519,-3.5519,-3.5519,0.0,0.0,0.0,0.0,0.0,0.0,0.0,-3.4886,-3.6756,-3.7793,-3.8362,-3.8721,-3.911,-3.9373,-3.9373,-3.9373,-3.9373,-3.9373,-3.9373,-3.9373,-3.9373,-4.0367,-4.1422,-4.1422,-4.2372,-4.329,-4.329,-4.329,-4.329,-4.329,-4.329,-4.329,-4.329,-4.329,-4.329,0.0,0.0,0.0,-4.5244,-4.6202,-4.698,0.0,-4.7309,0.0,-4.7309,-4.7309,-4.7309,0.0,-4.7309,-4.6975,-4.6255,-4.5024,-4.374,-4.2447,-4.1219,-4.067,-4.0877,-4.143,-4.1982,-4.2564,-4.2564,-4.274,-4.2986,-4.2986,-4.2986,-4.2986,0.0,-4.2811,-4.2564,-4.2564,-4.2183,-4.163,-4.1103,-4.0727,-4.045,-3.9898,-3.9697,-3.9697,0.0,0.0,0.0,0.0,0.0,0.0,0.0,0.0,0.0,0.0,-3.1511,0.0,0.0,0.0,0.0,0.0,0.0,0.0,0.0,0.0,0.0,-3.1511,-3.1511,-3.1511,-3.1511,-3.2228,-3.2916,-3.3484,-3.4233,-3.4921,-3.5519,-3.5519,-3.5519,-3.5519,-3.5519,-3.5519,-3.5519,0.0,0.0,0.0,0.0,0.0,0.0,0.0,0.0,0.0,-3.6956,-3.8272,-3.9373,-3.9373,-3.9373,-3.9373,-3.9373,-3.9373,-3.9373,-3.9373,-3.9373,-3.9373,-3.9373,-4.0367,-4.1422,-4.1422,-4.2372,-4.329,-4.329,-4.329,-4.329,-4.329,-4.329,-4.329,-4.329,-4.329,-4.329,-4.329,0.0,-4.4556,-4.5214,-4.5903,-4.6561,-4.7219,-4.7309,-4.7309,-4.7309,-4.7309,-4.7309,-4.7309,-4.7309,-4.7149,-4.6814,-4.5734,-4.4545,-4.3136,-4.2073,-4.1518,-4.143,-4.1982,-4.2564,-4.2986,-4.2986,-4.2986,-4.2986,-4.2986,-4.2986,-4.2986,-4.2986,-4.2986,-4.2986,-4.2986,-4.2766,-4.2263,-4.1656,-4.1103,-4.0551,-3.9998,-3.9747,-3.9697,0.0,0.0,0.0,0.0,0.0,0.0,0.0,0.0,0.0,0.0,-3.1511,-3.1511,0.0,0.0,0.0,0.0,0.0,0.0,0.0,0.0,0.0,0.0,-3.1511,-3.1511,-3.1511,-3.2706,-3.3395,-3.3484,-3.4741,-3.54,-3.5519,-3.5519,-3.5519,-3.5519,-3.5519,-3.5519,-3.5519,0.0,0.0,0.0,0.0,0.0,0.0,0.0,0.0,0.0,-3.6956,-3.8272,-3.9373,-3.9373,-3.9373,-3.9373,-3.9373,-3.9373,-3.9373,-3.9373,-3.9373,-3.9373,-3.9373,-4.0367,-4.1422,-4.1422,-4.2372,-4.329,-4.329,-4.329,-4.329,-4.329,-4.329,-4.329,-4.329,-4.329,-4.329,-4.329,-4.3858,-4.4556,-4.5214,-4.5903,-4.6561,0.0,-4.7309,-4.7309,-4.7309,-4.7309,0.0,0.0,-4.7309,-4.6388,-4.4256,-4.3929,-4.2955,-4.108,-4.1252,-4.1569,-4.2062,-4.2615,-4.2942,-4.2986,-4.2986,-4.2986,-4.2986,-4.2986,-4.2986,-4.2986,-4.2986,0.0,-4.2986,-4.2986,-4.2911,-4.2841,-4.2288,-4.1681,-4.1075,-4.0576,-4.0099,-3.9697,0.0,0.0,0.0,0.0,0.0,0.0,0.0,-3.1511,-3.1511,-3.1511,-3.1511,-3.1511,-3.1511,-3.1511,-3.1511,0.0,0.0,0.0,0.0,0.0,0.0,0.0,0.0,0.0,0.0,-3.3006,-3.3664,-3.3993,0.0,-3.5519,-3.5519,-3.5519,-3.5519,-3.5519,-3.5519,-3.5519,-3.5519,-3.5519,-3.5519,-3.5519,-3.5519,-3.5519,0.0,0.0,0.0,0.0,0.0,-3.8272,-3.9373,-3.9373,-3.9373,-3.9373,-3.9373,-3.9373,-3.9373,-3.9373,-3.9373,-3.9373,-3.9373,-4.0367,-4.1422,-4.1422,-4.2372,-4.329,-4.329,-4.329,-4.329,-4.329,-4.329,-4.329,-4.329,-4.329,-4.3409,-4.3738,-4.4107,-4.4676,-4.5693,-4.6112,-4.6561,-4.7219,-4.7309,-4.7309,-4.7309,-4.7309,-4.7309,-4.7309,-4.7309,-4.677,-4.5553,-4.421,-4.2863,-4.1518,-4.1347,-4.1605,-4.2213,-4.2766,-4.2986,-4.2986,-4.2986,-4.2986,-4.2986,-4.2986,-4.2986,-4.2986,-4.2986,-4.2986,-4.2986,-4.2986,-4.2986,-4.2911,-4.2414,-4.1831,-4.1225,-4.0727,-4.0174,-3.9697,0.0,0.0,0.0,0.0,0.0,0.0,0.0,-3.1511,-3.1511,-3.1511,-3.1511,-3.1511,-3.1511,-3.1511,-3.1511,0.0,0.0,0.0,0.0,0.0,0.0,0.0,0.0,0.0,0.0,0.0,0.0,-3.4503,-3.516,0.0,0.0,0.0,0.0,0.0,-3.5519,-3.5519,-3.5519,-3.5519,-3.5519,0.0,0.0,-3.5519,0.0,0.0,0.0,0.0,0.0,-3.8272,-3.9373,-3.9373,-3.9373,-3.9373,-3.9373,-3.9373,-3.9373,-3.9373,-3.9373,-3.9373,-3.9373,-4.0367,-4.1422,-4.1422,-4.2372,-4.329,-4.329,-4.329,-4.329,-4.329,-4.329,-4.329,-4.329,-4.329,-4.3499,-4.4197,-4.4317,-4.4796,-4.61,-4.6279,-4.6561,-4.7219,-4.7309,0.0,-4.7309,-4.7309,0.0,-4.7309,-4.7309,-4.7149,-4.6931,-4.4748,-4.3209,-4.2569,-4.2006,-4.19,-4.2389,-4.276,-4.2986,-4.2986,-4.2986,-4.2986,-4.2986,-4.2986,-4.2986,-4.2986,-4.2986,-4.2986,-4.2986,-4.2986,-4.2986,-4.2936,-4.2564,-4.1932,-4.1225,-4.0852,-4.0275,-3.9697,0.0,0.0,0.0,0.0,0.0,0.0,0.0,-3.1511,-3.1511,-3.1511,-3.1511,-3.1511,-3.1511,-3.1511,-3.1511,0.0,0.0,0.0,0.0,0.0,0.0,0.0,0.0,0.0,0.0,0.0,0.0,-3.4503,-3.516,0.0,0.0,0.0,0.0,0.0,0.0,-3.5519,-3.5519,-3.5519,0.0,0.0,0.0,0.0,0.0,0.0,0.0,0.0,0.0,-3.8272,-3.9373,-3.9373,-3.9373,-3.9373,-3.9373,-3.9373,-3.9373,-3.9373,-3.9373,-3.9373,-3.9373,-4.0367,-4.1422,-4.1422,-4.2372,-4.329,-4.329,-4.329,-4.329,-4.329,-4.329,-4.329,-4.329,-4.329,-4.3499,-4.4197,-4.4317,-4.4796,-4.61,-4.6279,-4.6561,-4.7219,0.0,0.0,-4.7309,-4.7309,-4.7309,-4.7309,-4.7309,-4.677,-4.5644,-4.4256,-4.34,-4.3098,-4.3048,-4.2991,-4.2942,-4.2961,-4.2986,-4.2986,-4.2986,-4.2986,-4.2986,-4.2986,-4.2986,-4.2986,-4.2986,-4.2986,0.0,-4.2986,-4.2986,-4.2961,-4.2911,-4.2258,-4.1275,-4.1225,-4.0601,-3.9697,0.0,0.0,0.0,0.0,0.0,0.0,-3.1511,-3.1511,-3.1511,-3.1511,-3.1511,-3.1511,-3.1511,-3.1511,-3.1511,-3.1511,0.0,0.0,0.0,0.0,0.0,0.0,0.0,0.0,0.0,0.0,-3.4713,-3.51,-3.537,0.0,0.0,0.0,0.0,0.0,0.0,-3.5519,-3.5519,0.0,0.0,0.0,0.0,0.0,0.0,0.0,0.0,0.0,0.0,0.0,-3.9373,-3.9373,-3.9373,-3.9373,-3.9373,-3.9373,-3.9373,-3.9373,-3.9373,-3.9373,-3.9373,-4.0367,-4.1422,-4.1422,-4.2372,-4.329,-4.329,-4.329,-4.329,-4.329,-4.329,-4.329,-4.329,-4.329,-4.3648,-4.4736,0.0,0.0,-4.6711,-4.692,-4.701,-4.7279,-4.7309,0.0,0.0,0.0,-4.7309,-4.7309,-4.7309,-4.7062,-4.6594,-4.4903,-4.4075,-4.4323,-4.3206,-4.2703,-4.2961,-4.2986,-4.2986,-4.2986,-4.2986,-4.2986,-4.2986,-4.2986,-4.2986,-4.2986,-4.2986,-4.2986,0.0,-4.2986,-4.2986,-4.2986,-4.2986,-4.2509,-4.1781,-4.1401,-4.0852,-4.0149,0.0,0.0,0.0,0.0,0.0,-3.1511,-3.1511,-3.1511,-3.1511,-3.1511,-3.166,-3.1809,-3.1809,-3.1959,-3.2079,-3.2079,-3.1899,0.0,0.0,0.0,0.0,0.0,0.0,0.0,0.0,0.0,-3.5011,-3.5519,-3.5519,-3.5519,0.0,0.0,-3.5519,-3.5519,0.0,0.0,0.0,0.0,0.0,0.0,0.0,0.0,0.0,0.0,0.0,0.0,0.0,0.0,0.0,0.0,0.0,-3.9337,-3.9017,-3.9156,-3.9373,-3.9373,-3.9373,-3.9373,-3.9373,-4.0144,-4.0973,-4.1308,-4.2108,-4.29,-4.321,-4.329,-4.329,-4.329,-4.329,-4.329,-4.329,-4.329,-4.3738,0.0,0.0,-4.5753,-4.713,-4.7309,-4.7309,-4.7309,0.0,-4.7309,0.0,-4.7309,-4.7309,-4.7309,-4.7309,-4.7309,-4.7309,-4.5363,-4.4545,-4.5073,-4.3415,-4.2671,-4.2961,-4.2986,-4.2986,-4.2986,-4.2986,-4.2986,-4.2986,-4.2986,-4.2986,-4.2986,-4.2986,-4.2986,0.0,-4.2986,-4.2986,-4.2986,-4.2986,-4.269,-4.2137,-4.153,-4.0949,-4.0425,0.0,0.0,0.0,0.0,0.0,0.0,-3.1511,-3.1511,-3.1511,-3.1511,-3.2079,-3.2497,-3.2497,-3.3095,-3.3484,-3.3484,-3.2886,0.0,0.0,0.0,0.0,0.0,0.0,0.0,0.0,0.0,-3.5489,-3.5519,-3.5519,-3.5519,-3.5519,-3.5519,-3.5519,-3.5519,0.0,0.0,0.0,0.0,0.0,0.0,0.0,0.0,0.0,0.0,0.0,0.0,0.0,0.0,0.0,0.0,0.0,0.0,0.0,-3.8546,-3.9373,-3.9373,-3.9373,-3.9373,-3.9373,-3.9522,-3.9913,-4.1088,-4.1498,-4.1906,-4.3021,-4.329,-4.329,-4.329,-4.329,-4.329,-4.329,-4.329,-4.3738,-4.5095,0.0,0.0,-4.713,-4.7309,-4.7309,0.0,0.0,-4.7309,-4.7309,-4.7309,-4.7309,-4.7309,-4.7309,0.0,-4.7309,-4.5363,-4.4545,-4.5073,-4.387,-4.3123,-4.3017,-4.2986,-4.2986,-4.2986,-4.2986,-4.2986,-4.2986,-4.2986,-4.2986,-4.2986,-4.2986,-4.2986,0.0,-4.2986,-4.2986,-4.2986,-4.2986,-4.269,-4.2137,-4.153,-4.0949,-4.0425,0.0,0.0,0.0,0.0,0.0,0.0,0.0,-3.2886,-3.2886,-3.2886,-3.3066,-3.3185,-3.3185,-3.3365,-3.3484,-3.3484,-3.3305,0.0,0.0,0.0,0.0,0.0,0.0,0.0,0.0,-3.54,-3.5519,-3.5519,-3.5519,-3.5519,-3.5519,-3.5519,-3.5519,-3.5519,-3.5519,-3.5519,0.0,0.0,0.0,0.0,0.0,0.0,0.0,0.0,0.0,0.0,0.0,0.0,0.0,0.0,0.0,0.0,0.0,0.0,0.0,-3.8509,-3.8323,-3.8472,-3.9192,-3.956,-3.9992,-4.1126,-4.2069,-4.286,-4.321,-4.329,-4.329,-4.329,-4.329,-4.329,-4.329,-4.329,-4.3738,-4.5095,-4.5304,0.0,0.0,0.0,0.0,-4.7309,-4.7309,-4.7309,0.0,0.0,-4.6344,-4.7222,-4.6506,-4.6003,-4.6003,-4.4593,-4.4153,-4.5073,-4.3415,-4.2645,-4.2961,-4.2986,-4.2986,-4.2986,-4.2986,-4.2986,-4.2986,-4.2986,-4.2986,-4.2986,-4.2986,-4.2986,-4.2986,-4.2986,-4.2986,-4.2986,-4.2986,-4.2861,-4.261,-4.1681,-4.1175,-4.0953,0.0,0.0,0.0,0.0,0.0,0.0,0.0,-3.3484,-3.3484,-3.3484,-3.3724,-3.3873,-3.3873,-3.4113,-3.4262,-3.4262,-3.4262,0.0,0.0,0.0,0.0,0.0,0.0,0.0,-3.5519,-3.5519,-3.5519,-3.5519,-3.5519,-3.5519,-3.5519,-3.5519,-3.5519,-3.5519,-3.5519,-3.5519,0.0,0.0,0.0,0.0,0.0,0.0,-3.5579,0.0,0.0,0.0,0.0,0.0,0.0,0.0,0.0,0.0,0.0,0.0,0.0,0.0,-3.6905,-3.7434,-3.8509,-3.8958,-3.9516,-4.1012,-4.203,-4.278,-4.321,-4.329,-4.329,-4.329,-4.329,-4.329,-4.329,-4.329,-4.3738,-4.5095,-4.5304,-4.5753,0.0,0.0,0.0,-4.7309,0.0,0.0,0.0,-4.6594,-4.6432,-4.7266,-4.6594,-4.5913,-4.5434,-4.421,-4.3657,-4.4049,-4.2654,-4.2208,-4.2961,-4.2986,-4.2986,-4.2986,-4.2986,-4.2986,-4.2986,-4.2986,-4.2986,-4.2986,-4.2986,-4.2986,0.0,-4.2986,-4.2986,-4.2986,-4.2986,-4.2986,-4.2861,-4.1982,-4.1656,-4.153,0.0,0.0,0.0,0.0,0.0,0.0,0.0,-3.3634,-3.3634,-3.3634,-3.4173,-3.4563,-3.4563,-3.513,-3.5519,-3.5519,0.0,0.0,0.0,0.0,0.0,0.0,0.0,0.0,-3.5519,-3.5519,-3.5519,-3.5519,-3.5519,-3.5519,-3.5519,-3.5519,-3.5519,-3.5519,-3.5519,-3.5519,-3.5519,-3.5519,-3.5519,-3.5519,-3.5519,-3.5487,0.0,0.0,0.0,0.0,0.0,0.0,0.0,0.0,0.0,0.0,0.0,0.0,0.0,0.0,0.0,0.0,0.0,-3.7889,-3.8585,-4.0636,-4.1418,-4.1988,-4.2941,-4.325,0.0,-4.329,-4.329,-4.329,-4.329,-4.329,-4.3738,-4.5095,-4.5304,-4.5753,0.0,-4.7309,0.0,0.0,-4.7309,0.0,-4.7309,-4.7149,-4.7106,-4.7309,-4.7062,-4.6388,-4.5298,-4.4069,-4.3009,-4.231,-4.1613,-4.1806,-4.2911,-4.2961,-4.2986,-4.2986,-4.2986,-4.2986,-4.2986,-4.2986,-4.2986,0.0,-4.2986,-4.2986,-4.2986,-4.2986,-4.2986,-4.2986,-4.2986,-4.2986,-4.2911,-4.2414,-4.2213,-4.2137,0.0,0.0,0.0,0.0,0.0,0.0,0.0,0.0,0.0,0.0,-3.516,-3.525,-3.525,-3.54,-3.5519,0.0,0.0,0.0,0.0,0.0,0.0,0.0,0.0,0.0,-3.5519,-3.5519,-3.5519,-3.5519,-3.5519,-3.5519,-3.5519,-3.5519,-3.5519,-3.5519,-3.5519,-3.5519,-3.5519,-3.5519,-3.5519,-3.5519,-3.5519,-3.5296,0.0,0.0,0.0,0.0,-3.6416,-3.6465,0.0,0.0,0.0,0.0,0.0,0.0,0.0,0.0,-3.4856,-3.5182,-3.5843,0.0,-3.8269,-3.8693,-4.0868,-4.2739,0.0,-4.267,-4.329,-4.329,-4.329,-4.329,-4.329,-4.329,-4.3738,-4.5095,-4.5304,-4.5753,-4.713,-4.7309,0.0,-4.7309,-4.7309,-4.7309,-4.7309,-4.5553,-4.5207,-4.7149,-4.4581,-4.3218,-4.3929,-4.2738,-4.1731,-4.0974,-4.0784,-4.1229,-4.2389,-4.276,-4.2986,-4.2986,-4.2986,-4.2986,-4.2986,-4.2986,-4.2986,-4.2986,-4.2986,-4.2986,-4.2986,-4.2986,-4.2986,-4.2986,-4.2986,-4.2986,-4.2911,-4.2414,-4.2213,-4.2137,0.0,0.0,0.0,0.0,0.0,0.0,0.0,0.0,0.0,0.0,0.0,-3.5519,-3.5519,-3.5519,0.0,0.0,0.0,0.0,0.0,0.0,0.0,0.0,0.0,-3.5519,-3.5519,-3.5519,-3.5519,-3.5519,-3.5519,-3.5519,-3.5519,-3.5519,-3.5519,-3.5519,-3.5519,-3.5519,-3.5519,-3.5519,-3.5519,-3.5519,-3.5818,0.0,0.0,0.0,0.0,0.0,-3.5794,-3.5574,0.0,-3.5359,-3.5197,-3.4774,0.0,0.0,0.0,0.0,-3.4304,-3.4699,-3.4753,-3.6072,-3.7573,-3.824,-4.0096,-4.1574,-4.0958,-4.1699,-4.2386,-4.1823,-4.2548,-4.317,-4.2629,-4.2941,-4.3738,-4.5095,-4.5304,-4.5753,0.0,0.0,-4.7309,-4.7309,-4.7309,-4.7062,0.0,-4.5161,-4.4674,-4.5508,-4.3646,-4.2496,-4.2593,-4.1985,-4.1175,-4.0176,-4.0375,-4.1053,-4.2213,-4.2514,-4.2791,-4.2986,-4.2986,-4.2986,-4.2986,-4.2986,-4.2986,-4.2986,-4.2986,-4.2986,-4.2986,-4.2986,-4.2986,-4.2986,-4.2986,-4.2986,-4.2936,-4.269,-4.259,-4.2539,0.0,0.0,0.0,0.0,0.0,0.0,0.0,0.0,0.0,0.0,0.0,0.0,0.0,0.0,0.0,0.0,0.0,0.0,0.0,0.0,0.0,0.0,-3.5519,-3.5519,-3.5519,-3.5519,-3.5519,-3.5519,-3.5519,-3.5519,-3.5519,-3.5519,-3.5519,-3.5519,-3.5519,-3.5519,-3.5519,-3.5519,-3.5579,-3.5699,-3.6267,0.0,0.0,0.0,0.0,0.0,0.0,0.0,0.0,-3.4163,-3.3827,-3.3111,-3.3111,0.0,0.0,0.0,0.0,0.0,-3.411,-3.512,-3.6567,-3.8038,-3.9141,-3.9869,-3.9667,-4.0661,-4.1295,-4.0145,-4.1699,-4.29,-4.1587,-4.2426,-4.3628,-4.4578,0.0,0.0,-4.7086,-4.7106,-4.7019,-4.7019,-4.7019,0.0,-4.5207,-4.5115,-4.4627,-4.3598,-4.3122,-4.2544,-4.164,-4.1419,-4.0844,-3.9749,-4.0149,-4.0877,-4.1961,-4.2112,-4.2439,-4.2861,-4.2936,-4.2986,-4.2986,-4.2986,-4.2986,-4.2986,-4.2986,0.0,-4.2986,-4.2986,-4.2986,-4.2986,-4.2986,-4.2986,-4.2986,-4.2986,-4.2986,-4.2986,0.0,0.0,0.0,0.0,0.0,0.0,0.0,0.0,0.0,0.0,0.0,0.0,0.0,0.0,0.0,0.0,0.0,0.0,0.0,0.0,0.0,-3.5519,-3.5519,-3.5519,-3.5519,-3.5519,-3.5519,-3.5519,-3.5519,-3.5519,-3.5519,-3.5519,-3.5519,-3.5519,-3.5519,-3.5519,-3.5519,-3.5519,-3.5818,-3.6357,-3.6447,0.0,0.0,0.0,0.0,0.0,0.0,0.0,0.0,-3.3283,-3.324,-3.3111,-3.3111,0.0,0.0,0.0,0.0,0.0,-3.4368,-3.4785,-3.5142,-3.5836,-3.7954,-3.9623,-3.8604,-4.0031,-4.1295,-4.0145,-4.1699,-4.2659,-4.0532,-4.1864,-4.3071,-4.2366,0.0,-4.5843,0.0,0.0,-4.5689,-4.5689,0.0,-4.5207,-4.3929,-4.3787,-4.3693,-4.3504,-4.1518,-4.0642,-4.1541,-4.0592,-3.9878,-3.9697,-3.9772,-4.0124,-4.0752,-4.1735,-4.2263,-4.2338,-4.276,-4.2986,-4.2986,-4.2986,-4.2986,-4.2986,0.0,-4.2986,-4.2986,-4.2986,-4.2986,-4.2986,-4.2986,-4.2986,-4.2986,-4.2986,-4.2986,-4.2986,0.0,0.0,0.0,0.0,0.0,0.0,0.0,0.0,0.0,0.0,0.0,0.0,0.0,0.0,0.0,0.0,0.0,0.0,0.0,0.0,-3.5519,-3.5519,-3.5519,-3.5519,-3.5519,-3.5519,-3.5519,-3.5519,-3.5519,-3.5519,-3.5519,-3.5519,-3.5519,-3.5519,-3.5519,-3.5699,-3.6028,-3.6028,-3.6417,-3.6982,0.0,0.0,0.0,0.0,0.0,0.0,0.0,0.0,0.0,0.0,-3.3111,-3.3111,-3.3111,0.0,0.0,0.0,0.0,0.0,-3.4424,-3.468,-3.4926,-3.578,-3.7016,-3.7861,-3.7335,-3.8514,-3.9376,-3.827,-3.9842,-4.0916,-3.9227,0.0,-4.2673,-4.3502,0.0,-4.4743,-4.6959,-4.5598,-4.4886,0.0,0.0,-4.4116,-4.3551,-4.2882,-4.2181,-4.1518,-4.0364,-3.9981,-4.0567,-4.0032,-3.9697,-3.9697,-3.9697,-3.9823,-4.0074,-4.0877,-4.143,-4.1731,-4.2258,-4.259,-4.259,-4.2891,-4.2986,-4.2986,0.0,-4.2986,-4.2986,-4.2986,-4.2986,-4.2986,-4.2986,-4.2986,-4.2986,-4.2986,-4.2986,-4.2986,0.0,0.0,0.0,0.0,0.0,0.0,0.0,0.0,0.0,0.0,0.0,0.0,0.0,0.0,0.0,0.0,0.0,0.0,0.0,-3.5519,-3.5519,-3.5519,-3.5519,-3.5519,-3.5519,-3.5519,-3.5519,-3.5519,-3.5519,-3.5519,-3.5519,-3.5519,-3.5579,-3.5729,-3.5729,-3.6088,-3.6716,-3.6716,-3.7075,-3.7605,0.0,0.0,0.0,0.0,0.0,0.0,0.0,0.0,0.0,0.0,0.0,0.0,0.0,0.0,0.0,-3.3111,-3.3212,-3.347,-3.4449,-3.4781,-3.5152,-3.6179,-3.6405,-3.6405,-3.6405,-3.7289,-3.7769,-3.6615,-3.827,-3.9448,0.0,-3.9264,0.0,-4.403,-4.3206,-4.3231,-4.6034,-4.4442,-4.3787,-4.5734,-4.4256,-4.293,-4.2641,-4.1985,-4.1069,-3.98,-3.9697,-3.9697,-3.9697,-3.9697,-3.9697,-3.9697,-3.9697,-3.9697,-3.9697,-4.0124,-4.0601,-4.11,-4.1706,-4.1957,-4.1982,-4.2409,-4.266,-4.2785,-4.2785,-4.2861,-4.2986,-4.2986,-4.2986,-4.2986,-4.2986,-4.2986,-4.2986,-4.2986,-4.2986,-4.2986,0.0,0.0,0.0,0.0,0.0,0.0,0.0,0.0,0.0,0.0,0.0,0.0,0.0,0.0,0.0,0.0,0.0,0.0,0.0,-3.5519,-3.5519,-3.5519,-3.5519,-3.5519,-3.5519,-3.5519,-3.5519,-3.5519,-3.5519,-3.5519,-3.5519,-3.5519,-3.5818,-3.6417,-3.6417,-3.6776,-3.7345,-3.7345,-3.7734,-3.8332,-3.8292,0.0,0.0,0.0,0.0,0.0,0.0,0.0,0.0,0.0,0.0,0.0,0.0,0.0,-3.3111,-3.3111,-3.3445,-3.3972,-3.455,-3.5056,-3.5583,-3.6254,-3.6405,-3.6405,-3.6405,-3.7289,-3.7769,-3.6615,-3.827,-3.9183,-3.6943,-3.7045,-3.848,-4.1461,-4.1369,-4.1609,-4.3515,0.0,-4.1789,-4.1985,-4.1838,-4.1269,-4.0083,-4.0995,-4.1069,-3.98,-3.9697,-3.9697,-3.9697,-3.9697,-3.9697,-3.9697,-3.9697,-3.9697,-3.9697,-3.9747,-4.0023,-4.0576,-4.1075,-4.1351,-4.1351,-4.1376,-4.1731,-4.2263,-4.2263,-4.2564,-4.2986,-4.2986,-4.2986,-4.2986,-4.2986,-4.2986,-4.2986,-4.2986,-4.2986,-4.2986,0.0,0.0,0.0,0.0,0.0,0.0,0.0,0.0,0.0,0.0,0.0,0.0,0.0,0.0,0.0,0.0,0.0,0.0,0.0,-3.5519,-3.5519,-3.5519,-3.5519,-3.5519,-3.5519,-3.5519,-3.5519,-3.5519,-3.5519,-3.5519,-3.5519,-3.5938,-3.6237,-3.6507,-3.6896,-3.7434,-3.8033,-3.8033,-3.8422,-3.8949,-3.8275,-3.7546,0.0,0.0,0.0,0.0,0.0,0.0,0.0,0.0,-3.3111,-3.3111,-3.3111,-3.3111,-3.3111,-3.3111,-3.347,-3.4022,-3.4575,-3.5082,-3.5633,-3.6279,-3.6405,-3.6405,-3.6405,-3.6709,-3.6943,-3.6499,-3.7129,-3.7678,-3.7494,0.0,-3.7814,-4.1178,-4.0224,-4.0099,-4.3081,-4.1739,-4.1019,-4.2593,-4.1369,-4.0567,-4.0844,-4.0592,-4.0211,-3.9749,-3.9697,-3.9697,-3.9697,-3.9697,-3.9697,-3.9697,-3.9697,-3.9697,-3.9697,-3.9697,-3.9798,-4.0023,-4.0576,-4.0774,-4.0774,-4.1125,-4.1401,-4.1656,-4.1656,-4.1957,-4.2514,-4.2514,-4.2715,-4.2986,-4.2986,-4.2986,-4.2986,-4.2986,-4.2986,-4.2986,0.0,0.0,0.0,0.0,0.0,0.0,0.0,0.0,0.0,0.0,0.0,0.0,0.0,0.0,0.0,0.0,0.0,0.0,-3.5519,-3.5519,-3.5519,-3.5519,-3.5519,-3.5519,-3.5519,-3.5519,-3.5519,-3.5519,-3.5699,-3.5818,-3.5818,-3.6477,-3.6896,-3.7105,-3.7524,-3.8093,-3.8721,-3.8721,-3.899,-3.9337,-3.8583,-3.7852,0.0,0.0,0.0,0.0,0.0,0.0,0.0,0.0,-3.3111,-3.3111,-3.3111,-3.3111,-3.3119,-3.3294,-3.3721,-3.4274,-3.4826,-3.5332,-3.5881,-3.6329,-3.6405,-3.6405,-3.6405,-3.6405,-3.6405,-3.6405,-3.6405,-3.6615,-3.7402,0.0,0.0,0.0,-3.911,-3.9011,-4.1897,-4.0794,-4.0364,-4.2084,-4.0743,-4.0032,-4.0945,-4.0211,-3.9697,-3.9697,-3.9697,-3.9697,-3.9697,-3.9697,-3.9697,-3.9697,-3.9697,-3.9697,-3.9697,-3.9697,-3.9697,-3.9697,-4.0074,-4.0249,-4.0275,-4.0651,-4.0902,-4.1025,-4.1025,-4.148,-4.2213,-4.2213,-4.2539,-4.2986,-4.2986,-4.2986,-4.2986,-4.2986,-4.2986,-4.2986,0.0,0.0,0.0,0.0,0.0,0.0,0.0,0.0,-3.5519,-3.5519,-3.5519,0.0,0.0,0.0,0.0,0.0,0.0,0.0,-3.5519,-3.5519,-3.5519,-3.5519,-3.5519,-3.5519,-3.5519,-3.5519,-3.5519,-3.5519,-3.6178,-3.6507,-3.6507,-3.7135,-3.7764,-3.8392,-3.8392,-3.8781,-3.9373,-3.9373,-3.9373,-3.9373,-3.9373,-3.9373,-3.9126,0.0,0.0,0.0,0.0,0.0,0.0,0.0,-3.3111,-3.3111,-3.3111,-3.3111,-3.3194,-3.3746,-3.4299,-3.4806,-3.5357,-3.5956,-3.6405,-3.6405,-3.6405,-3.6405,-3.6405,-3.6405,-3.6405,-3.6405,-3.6405,-3.6405,-3.6405,-3.6405,0.0,-3.7839,-3.8015,-3.8391,-3.9546,-3.9697,-3.9697,-3.9697,-3.9697,-3.9697,-3.9697,-3.9697,-3.9697,-3.9697,-3.9697,-3.9697,-3.9697,-3.9697,-3.9697,-3.9697,-3.9697,-3.9697,-3.9697,-3.9697,-3.9697,-3.9697,-3.9697,-3.9697,-3.9697,-3.9697,-3.9998,-4.0501,-4.0501,-4.1128,-4.2213,-4.2213,-4.2539,-4.2986,-4.2986,-4.2986,-4.2986,-4.2986,-4.2986,-4.2986,0.0,0.0,0.0,0.0,0.0,0.0,0.0,0.0,-3.5519,-3.5519,-3.5519,0.0,0.0,0.0,0.0,0.0,0.0,0.0,-3.5519,-3.5519,-3.5519,-3.5519,-3.5519,-3.5729,-3.6178,-3.6626,-3.6626,-3.6178,-3.6836,-3.7135,-3.7135,-3.7793,-3.8212,-3.8422,-3.8901,-3.923,-3.9373,-3.9373,-3.9373,-3.9373,-3.9373,-3.8943,-3.8219,0.0,0.0,0.0,0.0,0.0,0.0,0.0,0.0,0.0,-3.3111,-3.3345,-3.3696,-3.3847,-3.4575,-3.5282,-3.5458,-3.5956,-3.6405,-3.6405,-3.6405,-3.6405,-3.6405,-3.6405,-3.6405,-3.6405,-3.6405,-3.6405,-3.6405,-3.6405,0.0,-3.7839,-3.8015,-3.8391,-3.9546,-3.9697,-3.9697,-3.9697,-3.9697,-3.9697,-3.9697,-3.9697,-3.9697,-3.9697,-3.9697,-3.9697,-3.9697,-3.9697,-3.9697,-3.9697,-3.9697,-3.9697,-3.9697,-3.9697,-3.9697,-3.9697,-3.9697,-3.9697,-3.9697,-3.9697,-3.9798,-3.9948,-3.9948,-4.0576,-4.1656,-4.2409,-4.2891,-4.2986,-4.2986,-4.2986,-4.2986,-4.2986,-4.2986,-4.2986,0.0,0.0,0.0,0.0,0.0,0.0,0.0,0.0,-3.5519,-3.5519,-3.5519,-3.5519,0.0,0.0,0.0,0.0,0.0,0.0,-3.5519,-3.5519,-3.5639,-3.5878,-3.5908,-3.6207,-3.6836,-3.7464,-3.7614,-3.7255,-3.7614,-3.7793,-3.7823,-3.8482,-3.8811,-3.8811,-3.923,-3.9373,-3.9373,-3.9373,-3.9373,-3.9373,-3.9373,-3.9017,-3.8397,0.0,0.0,0.0,0.0,0.0,0.0,0.0,0.0,0.0,-3.3345,-3.3621,-3.3972,-3.4424,-3.4981,-3.5533,-3.5805,-3.6107,-3.6405,-3.6405,-3.6405,-3.6405,-3.6405,-3.6405,-3.6405,-3.6405,-3.6405,-3.6405,-3.6405,-3.6405,0.0,-3.7839,-3.8015,-3.8391,-3.9546,-3.9697,-3.9697,-3.9697,-3.9697,-3.9697,-3.9697,-3.9697,-3.9697,-3.9697,-3.9697,-3.9697,-3.9697,-3.9697,-3.9697,-3.9697,-3.9697,-3.9697,-3.9697,-3.9697,-3.9697,-3.9697,-3.9697,-3.9697,-3.9697,-3.9697,-3.9697,-3.9722,-4.0149,-4.0727,-4.1376,-4.2534,-4.2986,-4.2986,-4.2986,-4.2986,-4.2986,-4.2986,-4.2986,-4.2986,0.0,0.0,-3.5519,-3.5519,0.0,0.0,0.0,0.0,-3.5519,-3.5519,-3.5519,-3.5519,0.0,0.0,0.0,0.0,0.0,0.0,0.0,-3.5579,-3.5848,-3.6447,-3.6596,-3.6926,-3.7494,-3.8153,-3.8482,-3.8482,-3.8482,-3.8482,-3.8482,-3.911,-3.9373,-3.9373,-3.9373,-3.9373,-3.9373,-3.9373,-3.9373,-3.9373,-3.9373,-3.9373,-3.9301,-3.8323,0.0,0.0,0.0,0.0,0.0,0.0,0.0,0.0,-3.3852,-3.406,-3.4248,-3.5207,-3.5533,-3.5683,-3.6279,-3.6405,-3.6405,-3.6405,-3.6405,-3.6405,-3.6405,-3.6405,-3.6405,-3.6405,0.0,-3.6405,-3.6405,-3.6405,-3.6782,-3.7839,-3.8015,-3.8391,-3.9546,-3.9697,-3.9697,-3.9697,-3.9697,-3.9697,-3.9697,-3.9697,-3.9697,-3.9697,-3.9697,-3.9697,-3.9697,-3.9697,-3.9697,-3.9697,-3.9697,-3.9697,-3.9697,-3.9697,-3.9697,-3.9697,-3.9697,-3.9697,-3.9697,-3.9697,-3.9697,-3.9747,-4.0799,-4.1275,-4.1376,-4.2534,-4.2986,-4.2986,-4.2986,-4.2986,-4.2986,-4.2986,-4.2986,-4.2986,0.0,0.0,-3.5519,-3.5519,0.0,0.0,0.0,0.0,0.0,-3.5519,0.0,0.0,0.0,0.0,0.0,0.0,0.0,0.0,0.0,-3.5998,-3.6327,-3.6477,-3.7434,-3.8033,-3.8182,-3.8841,-3.92,-3.92,-3.92,-3.92,-3.92,-3.9313,-3.9373,-3.9373,-3.9373,-3.9373,-3.9373,-3.9373,-3.9373,-3.9373,-3.9373,-3.9373,-3.9373,-3.9156,-3.8546,0.0,0.0,0.0,0.0,0.0,0.0,0.0,-3.4839,-3.5161,-3.5182,-3.5433,-3.5855,-3.6207,-3.638,-3.6405,-3.6405,-3.6405,-3.6405,-3.6405,-3.6405,-3.6405,-3.6405,-3.6405,-3.6405,-3.6405,-3.6405,-3.6405,-3.6782,-3.7839,-3.8015,-3.8391,-3.9546,-3.9697,-3.9697,-3.9697,-3.9697,-3.9697,-3.9697,-3.9697,-3.9697,-3.9697,-3.9697,-3.9697,-3.9697,-3.9697,-3.9697,-3.9697,-3.9697,-3.9697,-3.9697,-3.9697,-3.9697,-3.9697,-3.9697,-3.9697,-3.9697,-3.9697,-3.9697,-3.9747,-4.0799,-4.1275,-4.1376,-4.2534,-4.2986,-4.2986,-4.2986,-4.2986,-4.2986,-4.2986,-4.2986,-4.2986,0.0,0.0,0.0,0.0,0.0,0.0,0.0,0.0,0.0,0.0,0.0,0.0,0.0,0.0,0.0,0.0,-3.5789,0.0,0.0,0.0,-3.7075,-3.7375,-3.8362,-3.8871,-3.8871,-3.923,-3.9373,-3.9373,-3.9373,-3.9373,-3.9373,-3.9373,-3.9373,-3.9373,-3.9373,-3.9373,-3.9373,-3.9373,-3.9373,-3.9373,-3.9373,-3.9373,-3.9373,-3.9373,-3.9053,-3.8583,-3.8583,0.0,0.0,0.0,0.0,0.0,0.0,0.0,-3.5558,-3.5855,-3.6132,-3.6405,-3.6405,-3.6405,-3.6405,-3.6405,-3.6405,-3.6405,-3.6405,-3.6405,-3.6405,-3.6405,-3.6405,-3.6405,-3.6405,-3.6405,-3.6782,-3.7839,-3.8015,-3.8391,-3.9546,-3.9697,-3.9697,-3.9697,-3.9697,-3.9697,-3.9697,-3.9697,-3.9697,-3.9697,-3.9697,-3.9697,-3.9697,-3.9697,-3.9697,-3.9697,-3.9697,-3.9697,-3.9697,-3.9697,-3.9697,-3.9697,-3.9697,-3.9697,-3.9697,-3.9697,-3.9697,-3.9747,-4.0799,-4.1275,-4.1376,-4.2534,-4.2986,-4.2986,-4.2986,-4.2986,-4.2986,-4.2986,-4.2986,-4.2986,0.0,0.0,0.0,0.0,0.0,0.0,0.0,0.0,0.0,0.0,0.0,0.0,0.0,0.0,-3.5549,0.0,0.0,0.0,0.0,0.0,0.0,-3.8542,-3.911,-3.9373,-3.9373,-3.9373,-3.9373,-3.9373,-3.9373,-3.9373,-3.9373,-3.9373,-3.9373,-3.9373,-3.9373,-3.9373,-3.9373,-3.9373,-3.9373,-3.9373,-3.9373,-3.9373,-3.9373,-3.9373,-3.9373,-3.9439,-3.9559,-3.887,-3.8102,-3.8967,0.0,0.0,0.0,0.0,-3.6033,-3.6535,-3.6546,-3.6452,-3.6615,-3.6546,-3.6405,-3.6405,-3.6405,-3.6405,-3.6405,-3.6405,-3.6405,-3.6405,-3.6405,-3.6405,-3.6405,-3.6405,-3.6782,-3.7839,-3.8015,-3.8391,-3.9546,-3.9697,-3.9697,-3.9697,-3.9697,-3.9697,-3.9697,-3.9697,-3.9697,-3.9697,-3.9697,-3.9697,-3.9697,-3.9697,-3.9697,-3.9697,-3.9697,-3.9697,-3.9697,-3.9697,-3.9697,-3.9697,-3.9697,-3.9697,-3.9697,-3.9697,-3.9697,-3.9747,-4.0799,-4.1275,-4.1376,-4.2534,-4.2986,-4.2986,-4.2986,-4.2986,-4.2986,-4.2986,-4.2986,-4.2986,0.0,0.0,0.0,0.0,0.0,0.0,0.0,0.0,0.0,0.0,-3.5519,-3.5519,0.0,0.0,0.0,-3.6297,-3.6447,-3.6716,-3.7255,0.0,0.0,-3.926,-3.9343,-3.9373,-3.9373,-3.9373,-3.9373,-3.9373,-3.9373,-3.9373,-3.9373,-3.9373,-3.9373,-3.9373,-3.9373,-3.9373,-3.9373,-3.9373,-3.9373,-3.9373,-3.9373,-3.9373,-3.9373,-3.9373,-3.9373,-3.9499,-4.0068,-3.9585,-3.889,-4.0541,-3.9945,0.0,0.0,0.0,-3.7756,-3.788,-3.715,-3.6615,-3.7586,-3.715,-3.6405,-3.6405,-3.6405,-3.6405,-3.6405,0.0,-3.6405,0.0,-3.6405,-3.6405,-3.6405,-3.6405,-3.6782,-3.7839,-3.8015,-3.8391,-3.9546,-3.9697,-3.9697,-3.9697,-3.9697,-3.9697,-3.9697,-3.9697,-3.9697,-3.9697,-3.9697,-3.9697,-3.9697,-3.9697,-3.9697,-3.9697,-3.9697,-3.9697,-3.9697,-3.9697,-3.9697,-3.9697,-3.9697,-3.9697,-3.9697,-3.9697,-3.9697,-3.9747,-4.0799,-4.1275,-4.1376,-4.2534,-4.2986,-4.2986,-4.2986,-4.2986,-4.2986,-4.2986,-4.2986,-4.2986,0.0,0.0,0.0,0.0,0.0,0.0,0.0,0.0,0.0,0.0,0.0,-3.5519,0.0,0.0,0.0,-3.6447,-3.7135,-3.7823,-3.8482,-3.8811,-3.911,-3.9373,-3.9373,-3.9373,-3.9373,-3.9373,-3.9373,-3.9373,-3.9373,-3.9373,-3.9373,-3.9373,-3.9373,-3.9373,-3.9373,-3.9373,-3.9373,-3.9373,-3.9373,-3.9373,-3.9373,-3.9373,-3.9469,-3.9828,-3.9978,-4.0068,-4.0726,-4.0672,-4.0427,-4.1569,-4.1065,-3.9954,-4.0294,0.0,0.0,0.0,-3.7769,-3.7335,-3.7196,-3.6803,-3.6405,-3.6405,-3.6405,-3.6405,-3.6405,-3.6405,-3.6405,-3.6405,-3.6405,-3.6405,-3.6405,-3.6405,-3.6782,-3.7839,-3.8015,-3.8391,-3.9546,-3.9697,-3.9697,-3.9697,-3.9697,-3.9697,-3.9697,-3.9697,-3.9697,-3.9697,-3.9697,-3.9697,-3.9697,-3.9697,-3.9697,-3.9697,-3.9697,-3.9697,-3.9697,-3.9697,-3.9697,-3.9697,-3.9697,-3.9697,-3.9697,-3.9697,-3.9697,-3.9747,-4.0799,-4.1275,-4.1376,-4.2534,-4.2986,-4.2986,-4.2986,-4.2986,-4.2986,-4.2986,-4.2986,-4.2986,0.0,0.0,0.0,0.0,0.0,0.0,0.0,0.0,0.0,0.0,0.0,0.0,0.0,0.0,0.0,0.0,-3.7853,-3.8691,-3.9379,-3.9373,-3.9373,-3.9373,-3.9373,-3.9373,-3.9373,-3.9373,-3.9373,-3.9373,-3.9373,-3.9373,-3.9373,-3.9373,-3.9373,-3.9373,-3.9373,-3.9373,-3.9373,-3.9373,-3.9373,-3.9373,-3.9373,-3.9529,-3.9738,-4.0217,-4.0516,-4.0726,-4.1384,-4.1662,-4.1782,-4.244,-4.2041,-4.1308,-4.1526,-4.1,0.0,0.0,0.0,-3.7861,-3.6709,-3.6405,-3.6405,-3.6405,-3.6405,-3.6405,0.0,0.0,-3.6405,0.0,-3.6405,-3.6405,-3.6405,-3.6405,-3.6782,-3.7839,-3.8015,-3.8391,-3.9546,-3.9697,-3.9697,-3.9697,-3.9697,-3.9697,-3.9697,-3.9697,-3.9697,-3.9697,-3.9697,-3.9697,-3.9697,-3.9697,-3.9697,-3.9697,-3.9697,-3.9697,-3.9697,-3.9697,-3.9697,-3.9697,-3.9697,-3.9697,-3.9697,-3.9697,-3.9697,-3.9747,-4.0799,-4.1275,-4.1376,-4.2534,-4.2986,-4.2986,-4.2986,-4.2986,-4.2986,-4.2986,-4.2986,-4.2986,0.0,0.0,0.0,0.0,0.0,0.0,0.0,0.0,0.0,0.0,0.0,0.0,-3.6447,-3.6985,-3.7614,-3.8242,-3.8362,-3.8691,-3.9379,-3.9373,-3.9373,-3.9373,-3.9373,0.0,-3.9373,-3.9373,-3.9373,-3.9373,-3.9373,-3.9373,-3.9373,-3.9373,-3.9373,-3.9373,-3.9373,-3.9373,-3.9373,-3.9373,-3.9373,-3.9373,-3.9373,-3.9798,-4.0337,-4.0397,-4.0786,-4.1452,-4.2111,-4.2351,-4.244,-4.306,-4.319,-4.2991,-4.1918,-4.1545,-4.1295,0.0,0.0,0.0,-3.6709,-3.6405,-3.6405,-3.6405,-3.6405,-3.6405,0.0,0.0,-3.6405,-3.6405,-3.6405,-3.6405,-3.6405,-3.6405,-3.6782,-3.7839,-3.8015,-3.8391,-3.9546,-3.9697,-3.9697,-3.9697,-3.9697,-3.9697,-3.9697,-3.9697,-3.9697,-3.9697,-3.9697,-3.9697,-3.9697,-3.9697,-3.9697,-3.9697,-3.9697,-3.9697,-3.9697,-3.9697,-3.9697,-3.9697,-3.9697,-3.9697,-3.9697,-3.9697,-3.9697,-3.9747,-4.0799,-4.1275,-4.1376,-4.2534,-4.2986,-4.2986,-4.2986,-4.2986,-4.2986,-4.2986,-4.2986,-4.2986,0.0,0.0,0.0,0.0,0.0,0.0,0.0,0.0,0.0,0.0,0.0,0.0,0.0,-3.7644,-3.8123,-3.8362,-3.8781,-3.914,-3.9373,-3.9373,-3.9373,-3.9373,-3.9373,-3.9373,-3.9373,-3.9373,-3.9373,-3.9373,-3.9373,-3.9373,-3.9373,-3.9373,-3.9373,-3.9373,-3.9373,-3.9373,-3.9373,-3.9373,-3.9679,-4.0038,-4.0038,-4.0427,-4.1085,-4.1542,-4.1841,-4.2141,-4.2761,-4.3,-4.303,-4.323,-4.329,-4.325,-4.282,-4.267,-4.2467,-4.1337,-3.9596,-3.8017,-3.7586,-3.6989,-3.6405,-3.6405,-3.6405,-3.6405,-3.6405,-3.6405,-3.6405,-3.6405,-3.6405,-3.6405,-3.6405,-3.6405,-3.6656,-3.7362,-3.7789,-3.8291,-3.9044,-3.9471,-3.9697,-3.9697,-3.9697,-3.9697,-3.9697,-3.9697,-3.9697,-3.9697,-3.9697,-3.9697,-3.9697,-3.9697,-3.9697,-3.9697,-3.9697,-3.9697,-3.9697,-3.9697,-3.9697,-3.9697,-3.9697,-3.9697,-3.9697,-3.9697,-3.9697,-3.9747,-4.0799,-4.1275,-4.1376,-4.2534,-4.2986,-4.2986,-4.2986,-4.2986,-4.2986,-4.2986,-4.2986,-4.2986,0.0,0.0,0.0,0.0,0.0,-3.5848,-3.5848,-3.5998,-3.6297,-3.6746,0.0,0.0,0.0,0.0,-3.8751,-3.8751,-3.914,-3.9373,-3.9373,-3.9373,-3.9373,-3.9373,-3.9373,-3.9373,-3.9373,-3.92,-3.92,-3.9373,-3.92,-3.92,-3.9373,-3.9373,-3.9373,-3.9403,-3.9649,-3.9738,-3.9738,-3.9738,-4.0127,-4.0726,-4.0726,-4.1115,-4.1782,-4.2231,-4.253,-4.2731,-4.314,-4.329,-4.329,-4.329,-4.329,-4.329,-4.329,-4.3021,-4.2589,-4.1794,-4.0247,-3.8604,-3.8198,-3.754,-3.6896,-3.6499,-3.6405,-3.6405,-3.6405,-3.6405,-3.6405,-3.6405,-3.6405,-3.6405,-3.6405,-3.6405,-3.6581,-3.7086,-3.7638,-3.8216,-3.8844,-3.9346,-3.9697,-3.9697,-3.9697,-3.9697,-3.9697,-3.9697,-3.9697,-3.9697,-3.9697,0.0,-3.9697,-3.9697,-3.9697,-3.9697,-3.9697,-3.9697,-3.9697,-3.9697,-3.9697,-3.9697,-3.9697,-3.9697,-3.9697,-3.9697,-3.9697,-3.9747,-4.0799,-4.1275,-4.1376,-4.2534,-4.2986,-4.2986,-4.2986,-4.2986,-4.2986,-4.2986,-4.2986,-4.2986,0.0,0.0,-3.5519,-3.5519,-3.6088,-3.6507,-3.6507,-3.7015,-3.7434,-3.7434,0.0,0.0,0.0,0.0,0.0,-3.9373,-3.9373,-3.9373,-3.9373,-3.9373,-3.9373,-3.9373,-3.9373,-3.9373,-3.9373,-3.8751,-3.8751,-3.9373,-3.8751,-3.8751,-3.9373,-3.9373,-3.9403,-3.9433,-4.0127,-4.0427,-4.0457,-4.0427,-4.0816,-4.1452,-4.1452,-4.1841,-4.244,-4.244,-4.2791,-4.329,-4.329,-4.329,-4.329,-4.329,-4.329,-4.329,-4.329,-4.2548,-4.1629,-4.1629,-4.0831,-3.9623,0.0,0.0,0.0,-3.6662,-3.6405,-3.6405,-3.6405,-3.6405,-3.6405,-3.6405,-3.6405,-3.6405,-3.6405,-3.6405,-3.6581,-3.7061,-3.7613,-3.8191,-3.8768,-3.932,-3.9672,-3.9697,-3.9697,-3.9697,-3.9697,-3.9697,-3.9697,-3.9697,-3.9697,-3.9697,-3.9697,-3.9697,-3.9697,-3.9697,-3.9697,-3.9697,-3.9697,-3.9697,-3.9697,-3.9697,-3.9697,-3.9697,-3.9697,-3.9697,-3.9697,-3.9747,-4.0799,-4.1275,-4.1376,-4.2534,-4.2986,-4.2986,-4.2986,-4.2986,-4.2986,-4.2986,-4.2986,-4.2986,0.0,-3.5878,-3.6207,-3.6207,-3.6746,-3.7165,-3.7165,-3.7285,-3.7584,0.0,0.0,0.0,-3.908,-3.932,-3.9373,-3.9373,-3.9373,-3.9373,-3.9373,-3.9373,-3.9373,-3.9373,-3.9373,-3.9373,-3.9373,-3.923,-3.923,-3.9373,-3.923,-3.923,-3.9373,-3.9373,-3.9679,-4.0127,-4.0307,-4.0935,-4.1811,-4.1362,-4.1542,-4.2141,-4.2141,-4.2491,-4.306,-4.306,-4.314,-4.329,-4.329,-4.329,-4.329,-4.329,-4.329,-4.329,-4.329,-4.3061,-4.282,-4.282,-4.1449,-3.9826,-3.9492,0.0,0.0,0.0,0.0,0.0,-3.6405,-3.6405,-3.6405,-3.6405,-3.6405,-3.6405,-3.6405,-3.6405,-3.6455,-3.6606,-3.7061,-3.7613,-3.8165,-3.8743,-3.9245,-3.9647,-3.9697,-3.9697,-3.9697,-3.9697,-3.9697,0.0,-3.9697,-3.9697,-3.9697,-3.9697,-3.9697,-3.9697,-3.9697,-3.9697,-3.9697,-3.9697,-3.9697,-3.9697,-3.9697,-3.9697,-3.9697,-3.9697,-3.9697,-3.9747,-4.0799,-4.1275,-4.1376,-4.2534,-4.2986,-4.2986,-4.2986,-4.2986,-4.2986,-4.2986,-4.2986,-4.2986,-3.6237,-3.6596,-3.6866,-3.6866,-3.7404,-3.7823,-3.7823,-3.8063,-3.8392,0.0,0.0,0.0,-3.9379,-3.9373,-3.9373,-3.9373,-3.9373,-3.9373,-3.9373,-3.9373,-3.9373,-3.9373,-3.9373,-3.9373,-3.9373,-3.914,-3.914,-3.9373,-3.914,-3.914,-3.9373,-3.9373,-3.9768,-4.0397,-4.0696,-4.1384,-4.2381,-4.2252,-4.2432,-4.2761,-4.2761,-4.3,-4.329,-4.329,-4.329,-4.329,-4.329,-4.329,-4.329,-4.329,-4.329,-4.329,-4.329,-4.329,-4.329,-4.329,-4.2345,-4.1211,-4.0746,-3.9271,-3.775,-3.7243,0.0,0.0,-3.6405,-3.6405,-3.6405,-3.6405,-3.6405,-3.6405,-3.6405,-3.6405,-3.6405,-3.6405,-3.6681,-3.7111,-3.7889,-3.8517,-3.9069,-3.9622,-3.9697,-3.9697,-3.9697,-3.9697,-3.9697,-3.9697,-3.9697,-3.9697,-3.9697,-3.9697,-3.9697,-3.9697,-3.9697,-3.9697,-3.9697,-3.9697,-3.9697,-3.9697,-3.9697,-3.9697,-3.9697,-3.9697,-3.9697,-3.9747,-4.0799,-4.1275,-4.1376,-4.2534,-4.2986,-4.2986,-4.2986,-4.2986,-4.2986,-4.2986,-4.2986,-4.2986,0.0,-3.7464,-3.7524,-3.7524,-3.8063,-3.8512,-3.8512,-3.902,-3.9373,0.0,-3.9373,-3.9373,-3.9373,-3.9373,-3.9373,-3.9373,-3.9373,-3.9373,-3.9373,-3.9373,-3.9373,-3.9373,-3.9373,-3.9373,-3.9373,-3.8811,-3.8811,-3.9373,-3.8811,-3.8811,-3.9373,-3.9499,-3.9888,-4.0546,-4.1205,-4.1901,-4.256,-4.309,-4.329,-4.329,-4.329,-4.329,-4.329,-4.329,-4.329,-4.329,-4.329,-4.329,-4.329,-4.329,-4.329,-4.329,-4.329,-4.329,-4.329,-4.329,-4.321,-4.29,-4.1906,0.0,0.0,-3.8379,-3.7243,0.0,-3.6405,-3.6405,-3.6405,-3.6405,-3.6405,-3.6405,-3.6405,-3.6405,-3.6405,-3.6405,-3.6405,-3.6782,-3.7764,-3.8417,-3.8969,-3.9546,-3.9647,-3.9697,-3.9697,-3.9697,-3.9697,-3.9697,-3.9697,-3.9697,-3.9697,-3.9697,-3.9697,-3.9697,-3.9697,-3.9697,-3.9697,-3.9697,-3.9697,-3.9697,-3.9697,-3.9697,-3.9697,-3.9697,-3.9697,-3.9747,-4.0799,-4.1275,-4.1376,-4.2534,-4.2986,-4.2986,-4.2986,-4.2986,-4.2986,-4.2986,-4.2986,-4.2986,-3.7375,-3.7823,-3.8182,-3.8182,-3.8751,-3.92,-3.92,-3.932,-3.9373,-3.9373,-3.9373,-3.9373,-3.9373,-3.9373,-3.9373,-3.9373,-3.9373,-3.9373,-3.9373,-3.9373,-3.9373,-3.9373,-3.9373,-3.9373,-3.9373,-3.929,-3.929,-3.9373,-3.929,-3.929,-3.9403,-3.9948,-4.0546,-4.1205,-4.1901,-4.2521,-4.315,-4.323,-4.329,-4.329,-4.329,-4.329,-4.329,-4.329,-4.329,-4.329,-4.329,-4.329,-4.329,-4.329,-4.329,-4.329,-4.329,-4.329,-4.329,-4.329,-4.2629,-4.1906,-4.167,-4.0074,-3.8379,-3.8153,-3.7243,0.0,-3.6405,-3.6405,-3.6405,-3.6405,-3.6405,-3.6405,-3.6405,-3.6405,-3.6405,-3.6405,-3.6405,-3.6631,-3.7262,-3.7814,-3.8391,-3.8969,-3.9421,-3.9697,-3.9697,-3.9697,-3.9697,-3.9697,-3.9697,-3.9697,-3.9697,-3.9697,-3.9697,-3.9697,-3.9697,-3.9697,-3.9697,-3.9697,-3.9697,-3.9697,-3.9697,-3.9697,-3.9697,-3.9697,-3.9697,-3.9747,-4.0799,-4.1275,-4.1376,-4.2534,-4.2986,-4.2986,-4.2986,-4.2986,-4.2986,-4.2986,-4.2986,-4.2986,-3.8332,-3.8661,-3.8901,-3.8901,-3.92,-3.9373,-3.9373,-3.9373,-3.9373,-3.9373,-3.9373,-3.9373,-3.9373,-3.9373,-3.9373,-3.9373,-3.9373,-3.9373,-3.9373,-3.9373,-3.9373,-3.9373,-3.9373,-3.9373,-3.9373,-3.9373,-3.9373,-3.9373,-3.9373,-3.9553,-3.9918,-4.0247,-4.0935,-4.1931,-4.2261,-4.2731,-4.329,-4.329,-4.329,-4.329,-4.329,-4.329,-4.329,-4.329,-4.329,-4.329,-4.329,-4.329,-4.329,-4.329,-4.329,-4.329,-4.329,-4.329,-4.329,-4.329,-4.29,-4.2316,-4.1753,-4.0333,-3.8872,-3.8243,-3.7243,0.0,0.0,-3.6405,-3.6405,-3.6405,-3.6405,-3.6405,-3.6405,-3.6405,-3.6405,-3.6405,-3.6405,-3.6505,-3.6782,-3.7236,-3.7914,-3.8818,-3.912,-3.9396,-3.9672,-3.9697,-3.9697,-3.9697,-3.9697,-3.9697,-3.9697,-3.9697,-3.9697,-3.9697,-3.9697,-3.9697,-3.9697,-3.9697,-3.9697,-3.9697,-3.9697,-3.9697,-3.9697,-3.9697,-3.9848,-4.0149,-4.0924,-4.1505,-4.1806,-4.2635,-4.2986,-4.2986,-4.2986,-4.2986,-4.2986,-4.2986,-4.2986,-4.2986,-3.932,-3.9373,-3.9373,-3.9373,-3.9373,-3.9373,-3.9373,-3.9373,-3.9373,-3.9373,-3.9373,-3.9373,-3.9373,-3.9373,-3.9373,-3.9373,-3.9373,-3.9373,-3.9373,-3.9373,-3.9373,-3.9373,-3.9373,-3.9373,-3.9373,-3.9373,-3.9373,-3.9373,-3.9559,-3.9888,-4.0397,-4.0666,-4.1354,-4.241,-4.253,-4.2851,-4.329,-4.329,-4.329,-4.329,-4.329,-4.329,-4.329,-4.329,-4.329,-4.329,-4.329,-4.329,-4.329,-4.329,-4.329,-4.329,-4.329,-4.329,-4.329,-4.329,-4.329,-4.313,-4.2193,-4.1085,-3.9929,-3.8738,-3.7586,-3.6662,0.0,0.0,0.0,-3.6405,0.0,0.0,0.0,0.0,0.0,0.0,0.0,0.0,0.0,-3.6782,0.0,-3.8466,-3.8793,-3.9095,-3.9496,-3.9622,-3.9697,-3.9697,-3.9697,-3.9697,-3.9697,-3.9697,-3.9697,-3.9697,-3.9697,-3.9697,-3.9697,-3.9697,-3.9697,-3.9697,-3.9697,-3.9697,-3.9697,-3.9697,-3.9998,-4.0551,-4.105,-4.1656,-4.2263,-4.2816,-4.2986,-4.2986,-4.2986,-4.2986,-4.2986,-4.2986,-4.2986,-4.2986,-3.9373,-3.9373,-3.9373,-3.9373,-3.9373,-3.9373,-3.9373,-3.9373,-3.9373,-3.9373,-3.9373,-3.9373,-3.9373,-3.9373,-3.9373,-3.9373,-3.9373,-3.9373,-3.9373,-3.9373,-3.9373,-3.9373,-3.9373,-3.9373,-3.9373,-3.9373,-3.9373,-3.9373,-4.0008,-4.0337,-4.0427,-4.1632,-4.2261,-4.241,-4.297,-4.323,-4.329,-4.329,-4.329,-4.329,-4.329,-4.329,-4.329,-4.329,-4.329,-4.329,-4.329,-4.329,-4.329,-4.329,-4.329,-4.329,-4.329,-4.329,-4.329,-4.329,-4.329,-4.325,-4.317,-4.2275,-4.1127,-3.9972,-3.8783,-3.7632,-3.6615,0.0,-3.6405,-3.6405,0.0,0.0,0.0,0.0,0.0,0.0,0.0,0.0,-3.6405,-3.6455,-3.6732,-3.7312,-3.8266,-3.8944,-3.8969,-3.9396,-3.9697,-3.9697,-3.9697,-3.9697,-3.9697,-3.9697,-3.9697,-3.9697,-3.9697,-3.9697,-3.9697,-3.9697,-3.9697,-3.9697,-3.9697,-3.9697,-3.9697,-3.9697,-3.9998,-4.0551,-4.105,-4.1656,-4.2263,-4.2816,-4.2986,-4.2986,-4.2986,-4.2986,-4.2986,-4.2986,-4.2986,-4.2986,-3.9373,-3.9373,-3.9373,-3.9373,-3.9373,-3.9373,-3.9373,-3.9373,-3.9373,-3.9373,-3.9373,-3.9373,-3.9373,-3.9373,-3.9373,-3.9373,-3.9373,-3.9373,-3.9373,-3.9373,-3.9373,-3.9373,-3.9373,-3.9373,-3.9373,-3.9373,-3.9619,-3.9978,-4.0277,-4.0786,-4.1602,-4.2141,-4.262,-4.294,-4.317,-4.329,-4.329,-4.329,-4.329,-4.329,-4.329,-4.329,-4.329,-4.329,-4.329,-4.329,-4.329,-4.329,-4.329,-4.329,-4.329,-4.329,-4.329,-4.329,-4.329,-4.329,-4.329,-4.317,-4.2508,-4.1947,-4.1337,-4.0189,-3.9006,-3.7971,-3.7494,-3.6896,-3.6405,-3.6405,0.0,0.0,0.0,0.0,0.0,0.0,-3.6405,0.0,0.0,0.0,-3.6606,0.0,0.0,0.0,-3.8869,-3.9371,-3.9697,-3.9697,-3.9697,-3.9697,-3.9697,-3.9697,-3.9697,-3.9697,-3.9697,-3.9697,-3.9697,-3.9697,-3.9697,-3.9697,-3.9697,-3.9697,-3.9697,-3.9697,-4.0174,-4.0949,-4.1175,-4.1831,-4.2715,-4.2942,-4.2986,-4.2986,-4.2986,-4.2986,-4.2986,-4.2986,-4.2986,-4.2986,-3.9373,-3.9373,-3.9373,-3.9373,-3.9373,-3.9373,-3.9373,-3.9373,-3.9373,-3.9373,-3.9156,-3.8943,-3.8943,-3.8943,-3.8943,-3.8943,-3.9228,-3.9373,-3.9373,-3.9373,-3.9373,-3.9373,-3.9373,-3.9373,-3.9373,-3.9589,-3.9918,-4.0397,-4.0756,-4.1482,-4.241,-4.259,-4.288,-4.329,-4.329,-4.329,-4.329,-4.329,-4.329,-4.329,-4.329,-4.329,-4.329,-4.329,-4.329,-4.329,-4.329,-4.329,-4.329,-4.329,-4.329,-4.329,-4.329,-4.329,-4.329,-4.329,-4.329,-4.313,-4.2275,-4.207,-4.1782,-4.0661,-3.9492,-3.8514,-3.8153,-3.7243,-3.6405,-3.6405,-3.6405,0.0,0.0,0.0,0.0,0.0,0.0,-3.6405,0.0,-3.6405,0.0,0.0,0.0,0.0,0.0,-3.922,-3.9521,-3.9697,-3.9697,-3.9697,-3.9697,-3.9697,-3.9697,-3.9697,-3.9697,-3.9697,-3.9697,-3.9697,-3.9697,-3.9697,-3.9697,-3.9697,-3.9697,-3.9697,-4.03,-4.1275,-4.1275,-4.1957,-4.2986,-4.2986,-4.2986,-4.2986,-4.2986,-4.2986,-4.2986,-4.2986,-4.2986,-4.2986,-3.9373,-3.9373,-3.9373,-3.9373,-3.9373,-3.9373,-3.9373,-3.9373,-3.9373,-3.9373,-3.8509,-3.7843,-3.7843,-3.7843,-3.7843,-3.7843,-3.8797,-3.9373,-3.9373,-3.9373,-3.9373,-3.9373,-3.9373,-3.9373,-3.9373,-4.0038,-4.0367,-4.0397,-4.1722,-4.2351,-4.241,0.0,0.0,0.0,-4.329,-4.329,-4.329,-4.329,-4.329,-4.329,-4.329,-4.329,-4.329,-4.329,-4.329,-4.329,-4.329,-4.329,-4.329,-4.329,-4.329,-4.329,-4.329,-4.329,-4.329,-4.329,-4.329,-4.329,-4.325,-4.325,-4.2981,-4.1864,-4.0703,-3.9536,-3.8379,-3.7243,-3.6405,-3.6405,-3.6405,0.0,0.0,0.0,0.0,0.0,0.0,0.0,0.0,0.0,0.0,0.0,0.0,0.0,0.0,-3.8944,-3.912,-3.9647,-3.9697,-3.9697,-3.9697,-3.9697,-3.9697,-3.9697,-3.9697,-3.9697,-3.9697,-3.9697,-3.9697,-3.9697,-3.9697,-3.9697,-3.9697,-3.9697,-4.03,-4.1275,-4.1275,-4.1957,-4.2986,-4.2986,-4.2986,-4.2986,-4.2986,-4.2986,-4.2986,-4.2986,-4.2986,-4.2986,-3.9373,-3.9373,-3.9373,-3.9373,-3.9373,-3.9373,-3.9373,-3.9373,-3.9373,-3.9373,-3.9053,-3.8583,-3.7881,-3.8435,-3.8583,-3.7881,-3.8797,-3.9373,-3.9373,-3.9373,-3.9373,-3.9373,-3.9373,-3.9619,-4.0068,-4.0277,-4.0816,-4.1722,-4.2171,-4.262,0.0,0.0,0.0,0.0,-4.329,-4.329,-4.329,-4.329,-4.329,-4.329,-4.329,-4.329,-4.329,-4.329,-4.329,-4.329,-4.329,-4.329,-4.329,-4.329,-4.329,-4.329,-4.329,-4.329,-4.329,-4.329,-4.329,-4.329,-4.329,-4.329,-4.33,-4.3393,-4.2225,-4.1001,-4.1053,-3.9231,-3.754,-3.754,-3.6943,0.0,0.0,0.0,0.0,0.0,0.0,0.0,0.0,0.0,0.0,0.0,0.0,0.0,0.0,0.0,-3.8994,-3.9145,-3.9496,-3.9697,-3.9697,-3.9697,-3.9697,-3.9697,-3.9697,-3.9697,-3.9697,-3.9697,-3.9697,-3.9697,-3.9697,-3.9697,-3.9697,-4.0074,-4.0651,-4.13,-4.1731,-4.2308,-4.2986,-4.2986,-4.2986,-4.2986,-4.2986,-4.2986,-4.2986,-4.2986,-4.2986,-4.2986,-3.9373,-3.9373,-3.9373,-3.9373,-3.9373,-3.9373,-3.9373,-3.9053,-3.898,-3.9337,-3.8937,-3.8492,-3.8198,-3.8961,-3.9258,-3.8582,-3.9512,-4.0127,-4.0127,-4.0127,-4.0127,-4.0127,-4.0127,-4.0307,-4.0756,-4.0965,-4.1504,-4.241,-4.262,-4.291,0.0,0.0,0.0,0.0,-4.329,-4.329,-4.329,-4.329,-4.329,-4.329,-4.329,-4.329,-4.329,-4.329,-4.329,-4.329,-4.329,-4.3439,-4.3648,-4.3648,-4.3798,-4.3977,-4.3977,-4.3977,-4.3977,-4.3977,-4.3977,-4.3977,-4.3977,-4.3977,-4.4137,-4.4556,-4.3466,-4.2436,-4.2882,-4.0769,-3.8799,-3.9042,-3.7805,0.0,0.0,0.0,0.0,0.0,0.0,0.0,0.0,-3.6405,0.0,0.0,0.0,0.0,0.0,-3.814,-3.8718,-3.912,-3.9496,-3.9697,-3.9697,-3.9697,-3.9697,-3.9697,-3.9697,-3.9697,-3.9697,-3.9697,-3.9697,-3.9697,-3.9697,-3.9697,-3.9722,-4.0275,-4.0774,-4.13,-4.1907,-4.2514,-4.2986,-4.2986,-4.2986,-4.2986,-4.2986,-4.2986,-4.2986,-4.2986,-4.2986,-4.2986,-3.9373,-3.9373,-3.9373,-3.9373,-3.9373,-3.9373,-3.9373,-3.8575,-3.8277,-3.9222,-3.8188,-3.769,-3.8589,-3.9301,-3.9715,-3.9715,-4.0713,-4.1346,-4.1422,-4.1422,-4.1422,-4.1422,-4.1422,-4.1422,-4.1482,-4.2081,-4.241,-4.244,-4.303,0.0,0.0,0.0,0.0,0.0,-4.329,-4.329,-4.329,-4.329,-4.329,-4.329,-4.329,-4.329,-4.329,-4.3319,-4.3349,-4.3349,-4.3349,-4.3768,-4.4377,-4.4377,-4.4766,-4.5304,-4.5304,-4.5304,-4.5304,-4.5304,-4.5304,-4.5304,-4.5304,-4.5304,-4.5304,-4.5334,-4.452,-4.3719,-4.3748,-4.1844,-4.0274,-4.0818,-3.9051,0.0,0.0,0.0,0.0,0.0,0.0,0.0,0.0,0.0,-3.6405,0.0,-3.643,-3.6857,-3.7864,-3.799,-3.8467,-3.9572,-3.9672,-3.9697,0.0,-3.9697,-3.9697,-3.9697,-3.9697,-3.9697,-3.9697,-3.9697,-3.9697,-3.9697,-3.9697,-3.9697,-3.9722,-4.03,-4.0852,-4.1326,-4.1957,-4.2539,-4.2986,-4.2986,-4.2986,-4.2986,-4.2986,-4.2986,-4.2986,-4.2986,-4.2986,-4.2986,-3.9373,-3.9373,-3.9373,-3.9373,-3.9373,-3.9373,-3.9373,-3.9579,-3.9542,-3.8917,-3.8964,-3.8468,-3.7064,-3.7786,-3.8434,-3.8475,-3.9407,-4.0451,-4.1346,-4.1422,-4.1422,-4.1422,-4.1422,-4.1662,-4.2141,-4.2321,-4.265,-4.309,-4.32,0.0,-4.329,0.0,0.0,0.0,0.0,-4.329,-4.329,-4.329,-4.329,-4.329,-4.329,-4.329,-4.3349,-4.3828,-4.4047,-4.4047,-4.4047,-4.4496,-4.5035,-4.5035,-4.5155,-4.5304,-4.5304,-4.5304,-4.5304,-4.5304,-4.5304,-4.5304,-4.5304,-4.5304,-4.5424,-4.5933,-4.5454,-4.4976,-4.548,-4.4081,-4.2685,-4.2851,-4.1657,-4.0464,-3.996,0.0,0.0,0.0,0.0,0.0,0.0,0.0,0.0,-3.6405,-3.6782,-3.7086,-3.7362,-3.7764,-3.8316,-3.9019,-3.9471,-3.9697,-3.9697,-3.9697,-3.9697,-3.9697,-3.9697,-3.9697,-3.9697,-3.9697,-3.9697,-3.9697,-3.9697,-3.9697,-3.9722,-4.0701,-4.115,-4.1351,-4.2359,-4.2836,-4.2986,-4.2986,-4.2986,-4.2986,-4.2986,-4.2986,-4.2986,-4.2986,-4.2986,-4.2986,-3.9373,-3.9373,-3.9499,-3.9798,-3.9858,-3.9682,-3.9172,-3.9217,-3.9314,-3.9089,-3.9235,-3.9237,-3.899,-3.9738,-4.0277,-4.0318,-4.0873,-4.1499,-4.2183,-4.2222,-4.2222,-4.2222,-4.2222,-4.2402,-4.2791,-4.2791,-4.297,-4.329,-4.329,-4.329,-4.329,0.0,0.0,0.0,0.0,-4.329,-4.329,-4.329,-4.329,-4.329,-4.329,-4.3469,0.0,-4.4167,-4.4676,-4.5185,-4.5185,-4.5424,-4.5753,-4.5753,-4.5933,-4.6172,-4.6172,-4.6172,-4.6172,-4.6172,-4.6172,-4.6172,-4.6172,-4.6172,-4.6262,-4.6651,-4.6471,-4.6262,-4.6651,-4.5521,-4.4442,-4.4732,-4.3405,-4.2213,-4.2251,-4.074,0.0,0.0,0.0,0.0,0.0,0.0,0.0,0.0,-3.6985,-3.7387,-3.7864,-3.8216,-3.8617,-3.9195,-3.9521,-3.9697,0.0,-3.9697,-3.9697,-3.9697,-3.9697,-3.9697,-3.9697,-3.9697,-3.9697,-3.9697,-3.9697,-3.9823,-4.0074,-4.0953,-4.1455,-4.1731,-4.261,-4.2986,-4.2986,-4.2986,-4.2986,-4.2986,-4.2986,-4.2986,-4.2986,-4.2986,-4.2986,-4.2986,-3.9679,-3.9679,-3.9785,-4.0211,-4.0353,-4.0005,-3.8682,-3.8415,-3.8628,-3.943,-3.9173,-3.9704,-4.1533,-4.2239,-4.2772,-4.3057,-4.3057,-4.3208,-4.3559,-4.3469,-4.3409,-4.3409,-4.3349,-4.329,-4.329,-4.329,-4.329,-4.329,-4.329,-4.329,-4.329,0.0,0.0,0.0,0.0,-4.329,-4.329,-4.329,-4.329,-4.329,-4.3379,-4.3768,-4.4347,-4.4526,-4.5304,-4.6279,-4.6369,-4.6441,-4.6441,-4.6441,-4.683,-4.7309,-4.7309,-4.7309,-4.7309,-4.7309,-4.7309,-4.7309,-4.7309,-4.7309,-4.7309,-4.7309,-4.7309,-4.7309,-4.7309,-4.6432,-4.5812,-4.6347,-4.476,-4.3709,-4.5056,0.0,0.0,0.0,0.0,0.0,0.0,0.0,0.0,0.0,0.0,0.0,-3.8768,-3.8919,-3.9094,-3.9647,-3.9697,0.0,0.0,0.0,-3.9697,-3.9697,-3.9697,-3.9697,-3.9697,-3.9697,-3.9697,-3.9697,-3.9697,-3.9973,-4.0526,-4.1025,-4.163,-4.2238,-4.2791,-4.2986,-4.2986,-4.2986,-4.2986,-4.2986,-4.2986,-4.2986,-4.2986,-4.2986,-4.2986,-4.2986,-4.1025,-4.1025,-4.0791,-3.9896,-4.0173,-3.9845,-3.7704,-3.8936,-3.9893,-3.9117,-3.8959,-3.8708,-3.8179,-3.8605,-3.9767,-4.1781,-4.1959,-4.2824,-4.4821,-4.4436,-4.4137,-4.4137,-4.3589,-4.329,-4.329,-4.329,-4.329,-4.329,-4.329,-4.329,-4.329,0.0,0.0,0.0,0.0,-4.329,-4.329,-4.329,-4.329,-4.3349,-4.3888,-4.4227,-4.4436,-4.5544,-4.607,-4.6339,-4.695,-4.713,-4.713,-4.713,-4.7219,-4.7309,-4.7309,-4.7309,-4.7309,-4.7309,-4.7309,-4.7309,-4.7309,-4.7309,-4.7309,-4.7309,-4.7309,-4.7309,-4.7309,-4.7106,-4.6989,-4.7116,-4.6797,-4.63,-4.5504,-4.3663,0.0,0.0,0.0,0.0,0.0,0.0,0.0,0.0,0.0,-3.8693,-3.8894,-3.8919,-3.9094,-3.9647,-3.9697,0.0,0.0,0.0,-3.9697,0.0,-3.9697,-3.9697,0.0,0.0,-3.9697,-3.9697,-3.9697,-3.9973,-4.0526,-4.1025,-4.163,-4.2238,-4.2791,-4.2986,-4.2986,-4.2986,-4.2986,-4.2986,-4.2986,-4.2986,-4.2986,-4.2986,-4.2986,-4.3037,-4.1422,-4.1422,-4.1101,-4.0267,-4.0641,-4.0547,-3.9173,-3.9632,-3.9875,-3.9015,-3.9176,-3.938,-3.9427,-3.9664,-4.0294,-4.1498,-4.2223,-4.3066,-4.4248,-4.4644,-4.4825,-4.4825,-4.4197,-4.3838,-4.3838,-4.3469,-4.329,-4.329,-4.329,-4.329,-4.329,-4.329,0.0,-4.329,0.0,-4.329,-4.329,-4.329,-4.3499,-4.3828,-4.4197,-4.4736,-4.5424,-4.604,-4.6531,-4.686,-4.7189,-4.7309,-4.7309,-4.7309,-4.7309,-4.7309,-4.7309,-4.7309,-4.7309,-4.7309,-4.7309,-4.7309,-4.7309,-4.7309,-4.7309,-4.7309,-4.7309,-4.7309,-4.7309,-4.7309,-4.7309,-4.7309,-4.7309,-4.6931,-4.5644,-4.417,-4.2493,-4.0665,-3.9793,-3.9277,0.0,0.0,-3.8115,0.0,0.0,0.0,0.0,-3.9295,-3.9396,0.0,0.0,0.0,0.0,0.0,-3.9697,0.0,0.0,0.0,-3.9697,0.0,-3.9697,-3.9697,-3.9697,-4.0124,-4.0899,-4.1175,-4.1806,-4.2665,-4.2861,-4.2986,-4.2986,-4.2986,-4.2986,-4.2986,-4.2986,-4.2986,-4.2986,-4.2986,-4.3162,-4.3438,-4.1504,-4.1516,-4.1322,-4.0417,-4.0718,-4.0848,-4.0205,-3.9853,-3.9494,-3.9149,-3.9359,-3.9965,-4.0857,-4.1058,-4.1206,-4.1486,-4.2677,-4.3554,-4.3803,-4.4883,-4.5514,-4.5514,-4.4885,-4.4526,-4.4526,-4.3868,-4.3499,-4.3499,-4.3349,-4.329,-4.329,0.0,0.0,0.0,-4.329,-4.3379,-4.3499,-4.3499,-4.3888,-4.4526,-4.4676,-4.5364,-4.6352,-4.6429,-4.686,-4.7309,-4.7309,-4.7309,-4.7309,-4.7309,-4.7309,-4.7309,-4.7309,-4.7309,-4.7309,-4.7309,-4.7309,-4.7309,-4.7309,-4.7309,-4.7309,-4.7309,-4.7309,-4.7309,-4.7309,-4.7309,-4.7309,-4.7309,-4.7309,-4.6931,-4.5644,-4.4794,-4.3667,-4.1683,-4.054,-3.9645,0.0,0.0,-3.8542,0.0,0.0,0.0,-3.9647,-3.9697,-3.9697,-3.9697,0.0,0.0,-3.9697,0.0,0.0,0.0,0.0,-3.9697,-3.9697,0.0,-3.9697,-3.9697,-3.9823,-4.0375,-4.1275,-4.1401,-4.2057,-4.2986,-4.2986,-4.2986,-4.2986,-4.2986,-4.2986,-4.2986,-4.2986,-4.2986,-4.2986,-4.3112,-4.3438,-4.384,-4.1773,-4.1959,-4.161,-3.9409,-3.9528,-3.9575,-3.8428,-3.864,-3.9165,-3.9638,-3.9282,-3.9019,-3.912,-3.9576,-4.0337,-4.1482,-4.2767,-4.3995,-4.5125,-4.5857,-4.619,-4.619,-4.5574,-4.5214,-4.5214,-4.4556,-4.4227,-4.4227,-4.3589,-4.329,-4.329,0.0,0.0,-4.329,-4.329,-4.3618,-4.4227,-4.4227,-4.4586,-4.5244,-4.5873,-4.6202,-4.6381,-4.698,-4.7249,-4.7309,-4.7309,-4.7309,-4.7309,-4.7309,-4.7309,-4.7309,-4.7309,-4.7309,-4.7309,-4.7309,-4.7309,-4.7309,-4.7309,-4.7309,-4.7309,-4.7309,-4.7309,-4.7309,-4.7309,-4.7309,-4.7309,-4.7309,-4.7309,-4.6931,-4.5644,-4.6255,-4.6137,-4.3657,-4.3136,0.0,0.0,0.0,-3.9546,-3.9622,0.0,0.0,-3.9697,-3.9697,-3.9697,-3.9697,-3.9697,0.0,0.0,0.0,0.0,-3.9697,-3.9697,-3.9697,-3.9697,-3.9697,-3.9697,-3.9697,-4.0199,-4.0752,-4.13,-4.1856,-4.2464,-4.2986,-4.2986,-4.2986,-4.2986,-4.2986,-4.2986,-4.2986,-4.2986,-4.2986,-4.3037,-4.3539,-4.3765,-4.394,-4.2163,-4.1936,-4.1339,-3.9741,-3.9912,-3.9871,-3.8717,-3.8994,-3.9474,-3.9725,-3.95,-3.9371,-3.9371,-3.9572,-3.9929,-4.0415,-4.1591,-4.2882,-4.4163,-4.5203,-4.6123,-4.6877,-4.6262,-4.5903,-4.5903,-4.5244,-4.4915,-4.4915,-4.4257,-4.3888,-4.3858,-4.3469,-4.3499,-4.3888,-4.3888,-4.4287,-4.4915,-4.4915,-4.5304,-4.5933,-4.6202,-4.6561,-4.695,-4.7219,-4.7309,-4.7309,-4.7309,-4.7309,-4.7309,-4.7309,-4.7309,-4.7309,-4.7309,-4.7309,-4.7309,-4.7309,-4.7309,-4.7309,-4.7309,-4.7309,-4.7309,-4.7309,-4.7309,-4.7309,-4.7309,-4.7309,-4.7309,-4.7309,-4.7309,-4.7149,-4.6638,-4.6344,-4.5824,-4.484,-4.4022,0.0,0.0,0.0,0.0,-4.0844,0.0,-3.9697,-3.9697,-3.9697,-3.9697,-3.9697,-3.9697,-3.9697,-3.9697,0.0,0.0,-3.9697,0.0,-3.9697,-3.9697,-3.9697,-3.9697,-3.9697,-4.0249,-4.0802,-4.13,-4.1907,-4.2514,-4.2986,-4.2986,-4.2986,-4.2986,-4.2986,-4.2986,-4.2986,-4.2986,-4.3187,-4.3489,-4.3714,-4.4242,-4.4869,-4.2825,-4.2233,-4.1423,-4.0304,-4.0252,-4.005,-3.9247,-3.9446,-3.9697,-3.9697,-3.9697,-3.9697,-3.9697,-3.9697,-3.9697,-3.9697,-4.0844,-4.1985,-4.2882,-4.4489,-4.5779,-4.6682,-4.6645,-4.6578,-4.6578,-4.5933,-4.5603,-4.5603,-4.4915,-4.4616,-4.4586,-4.4137,-4.4167,-4.4616,-4.4616,-4.4975,-4.5603,-4.5603,-4.5992,-4.6578,-4.6578,-4.689,-4.7309,-4.7309,-4.7309,-4.7309,-4.7309,-4.7309,-4.7309,-4.7309,-4.7309,-4.7309,-4.7309,-4.7309,-4.7309,-4.7309,-4.7309,-4.7309,-4.7309,-4.7309,-4.7309,-4.7309,-4.7309,-4.7309,-4.7309,-4.7309,-4.7309,-4.7309,-4.7309,-4.7309,-4.7309,-4.6594,-4.5824,-4.5434,-4.4303,0.0,0.0,-4.1838,0.0,-4.1019,-4.0262,-3.9697,-3.9697,-3.9697,-3.9697,-3.9697,-3.9697,-3.9697,-3.9697,-3.9697,-3.9697,0.0,0.0,0.0,-3.9697,-3.9697,-3.9772,-3.9948,-4.0501,-4.1053,-4.1605,-4.2158,-4.2665,-4.2986,-4.2986,-4.2986,-4.2986,-4.2986,-4.2986,-4.2986,-4.3162,-4.3463,-4.384,-4.4166,-4.4794,-4.5522,-4.382,-4.2998,-4.2125,-4.101,-4.0182,-3.9724,-3.9697,-3.9697,-3.9697,-3.9697,-3.9697,-3.9697,-3.9697,-3.9697,-3.9697,-3.9697,-4.0844,-4.1591,-4.1591,-4.3975,-4.5389,-4.5389,-4.6638,-4.7309,-4.7309,-4.6651,-4.6279,-4.6279,0.0,-4.5274,-4.5274,-4.5274,-4.5274,-4.5274,-4.5274,-4.5663,-4.6279,-4.6279,-4.6681,-4.7309,-4.7309,-4.7309,-4.7309,-4.7309,-4.7309,-4.7309,-4.7309,-4.7309,-4.7309,-4.7309,-4.7309,-4.7309,-4.7309,-4.7309,-4.7309,-4.7309,-4.7309,-4.7309,-4.7309,-4.7309,-4.7309,-4.7309,-4.7309,-4.7309,-4.7309,-4.7309,-4.7309,-4.7309,-4.7309,-4.7309,-4.7309,-4.7309,-4.6887,-4.5598,-4.4303,0.0,0.0,-4.0567,0.0,-3.9749,-3.9697,-3.9697,-3.9697,-3.9697,-3.9697,-3.9697,-3.9697,-3.9697,-3.9697,-3.9697,-3.9697,-3.9697,-3.9697,0.0,-3.9697,-3.9697,-3.9973,-4.0526,-4.1025,-4.1605,-4.2213,-4.2766,-4.2961,-4.2986,-4.2986,-4.2986,-4.2986,-4.2986,-4.2986,-4.3037,-4.3589,-4.379,-4.394,-4.5045,-4.5472,-4.5573,-4.1805,-4.1029,-4.0485,-4.0083,-3.9854,-3.9697,-3.9697,-3.9697,-3.9697,-3.9697,-3.9697,-3.9697,-3.9697,-3.9697,-3.9697,-3.9697,-4.0083,-4.0642,-4.1541,-4.235,-4.3598,-4.5298,-4.5779,-4.6388,-4.7266,-4.71,-4.698,-4.698,-4.6322,-4.5753,-4.5304,-4.5304,-4.5544,-4.5992,-4.5992,-4.6352,-4.698,-4.698,-4.71,-4.7309,-4.7309,-4.7309,-4.7309,-4.7309,-4.7309,-4.7309,-4.7309,-4.7309,-4.7309,-4.7309,-4.7309,-4.7309,-4.7309,-4.7309,-4.7309,-4.7309,-4.7309,-4.7309,-4.7309,-4.7309,-4.7309,-4.7309,-4.7309,-4.7309,-4.7309,-4.7309,-4.7309,-4.7309,-4.7309,-4.7309,-4.7309,-4.7309,-4.7149,-4.677,-4.6344,0.0,-4.5553,0.0,-4.3598,-4.3598,-4.2834,-4.1936,-4.1069,-4.0969,-4.0642,-3.98,-3.9697,-3.9697,-3.9697,-3.9697,-3.9697,-3.9697,-3.9697,0.0,-3.9697,-3.9697,-3.9973,-4.0526,-4.1025,-4.1831,-4.2766,-4.2886,-4.2986,-4.2986,-4.2986,-4.2986,-4.2986,-4.2986,-4.2986,-4.3037,-4.3589,-4.4041,-4.4443,-4.5196,-4.5723,-4.6075,-4.2642,-4.1719,-4.0995,-4.0516,-4.0032,-3.9697,-3.9697,-3.9697,-3.9697,-3.9697,-3.9697,-3.9697,-3.9697,-3.9697,-3.9697,-3.9697,-3.9697,-4.0032,-4.0844,-4.1319,-4.2301,-4.3882,-4.4442,-4.5252,-4.655,-4.6594,-4.6814,-4.7309,-4.689,-4.6471,-4.6052,-4.6052,-4.6292,-4.6681,-4.6681,-4.692,-4.7309,-4.7309,-4.7309,-4.7309,-4.7309,-4.7309,-4.7309,-4.7309,-4.7309,-4.7309,-4.7309,-4.7309,-4.7309,-4.7309,-4.7309,-4.7309,-4.7309,-4.7309,-4.7309,-4.7309,-4.7309,-4.7309,-4.7309,-4.7309,-4.7309,-4.7309,-4.7309,-4.7309,-4.7309,-4.7309,-4.7309,-4.7309,-4.7309,-4.7309,-4.7309,-4.7309,-4.7309,-4.7309,-4.6931,-4.6594,-4.6594,-4.507,-4.3975,0.0,-4.2834,-4.1739,-4.0995,-4.0895,-4.0541,-3.9749,-3.9697,-3.9697,-3.9697,-3.9697,-3.9697,-3.9697,-3.9697,-3.9697,-3.9697,-3.9898,-4.0275,-4.0774,-4.158,-4.2308,-4.2986,-4.2986,-4.2986,-4.2986,-4.2986,-4.2986,-4.2986,-4.2986,-4.3112,-4.3338,-4.389,-4.4443,-4.502,-4.5598,-4.6024,-4.6301,-4.5389,-4.4116,-4.2882,-4.169,-4.0516,-3.9697,-3.9697,-3.9697,-3.9697,-3.9697,-3.9697,-3.9697,-3.9697,-3.9697,-3.9697,-3.9697,-3.9697,-3.9697,-3.9697,-4.0794,-4.1518,-4.1591,-4.2738,-4.4022,-4.5343,-4.5389,-4.6032,-4.7309,-4.7309,-4.7309,-4.7309,-4.7309,-4.7309,-4.7309,-4.7309,-4.7309,-4.7309,-4.7309,-4.7309,-4.7309,-4.7309,-4.7309,-4.7309,-4.7309,-4.7309,-4.7309,-4.7309,-4.7309,-4.7309,-4.7309,-4.7309,-4.7309,-4.7309,-4.7309,-4.7309,-4.7309,-4.7309,-4.7309,-4.7309,-4.7309,-4.7309,-4.7309,-4.7309,-4.7309,-4.7309,-4.7309,-4.7309,-4.7309,-4.7309,-4.7309,-4.7309,-4.7309,-4.7309,-4.7309,-4.6211,-4.5434,-4.5553,-4.3361,-4.1739,-4.1838,-4.0743,-3.9929,-3.9826,-3.9826,-3.98,-3.9697,-3.9697,-3.9697,-3.9697,-3.9697,-3.9697,-3.9697,-3.9697,-3.9722,-3.9747,-4.0249,-4.0802,-4.1351,-4.2484,-4.2986,-4.2986,-4.2986,-4.2986,-4.2986,-4.2986,-4.2986,-4.2986,-4.3011,-4.3338,-4.3865,-4.4443,-4.502,-4.5547,-4.61,-4.6301,-4.6301,-4.2738,-4.1468,-4.0516,-4.0211,-3.9878,-3.9697,-3.9697,-3.9697,-3.9697,-3.9697,-3.9697,-3.9697,-3.9697,-3.9697,-3.9697,-3.9697,-3.9697,-3.9697,-3.9697,-3.9981,-4.0592,-4.1541,-4.1887,-4.3122,-4.5343,-4.5389,-4.6032,-4.7309,-4.7309,-4.7309,-4.7309,-4.7309,-4.7309,-4.7309,-4.7309,-4.7309,-4.7309,-4.7309,-4.7309,-4.7309,-4.7309,-4.7309,-4.7309,-4.7309,-4.7309,-4.7309,-4.7309,-4.7309,-4.7309,-4.7309,-4.7309,-4.7309,-4.7309,-4.7309,-4.7309,-4.7309,-4.7309,-4.7309,-4.7309,-4.7309,-4.7309,-4.7309,-4.7309,-4.7309,-4.7309,-4.7309,-4.7309,-4.7309,-4.7309,-4.7309,-4.7309,-4.7309,-4.7309,-4.7309,-4.6211,-4.5734,-4.6726,-4.4627,-4.3409,0.0,-4.3361,-4.223,-4.1219,-4.1169,-4.0743,0.0,0.0,-3.9697,-3.9697,-3.9697,-3.9697,-3.9697,-3.9697,-3.9898,-4.0325,-4.045,-4.1003,-4.1982,-4.266,-4.2986,-4.2986,-4.2986,-4.2986,-4.2986,-4.2986,-4.2986,-4.3011,-4.3438,-4.3689,-4.389,-4.4895,-4.5372,-4.5547,-4.61,-4.6301,-4.6301,-4.3598,-4.2786,-4.1936,-4.0794,-4.0541,-4.0364,-3.98,-3.9697,-3.9697,-3.9697,-3.9697,-3.9697,-3.9697,-3.9697,-3.9697,-3.9697,-3.9697,-3.9697,-3.9697,-3.9697,-4.0032,-4.0693,-4.1269,-4.2496,-4.4489,-4.5115,-4.6032,-4.7309,-4.7309,-4.7309,-4.7309,-4.7309,-4.7309,-4.7309,-4.7309,-4.7309,-4.7309,-4.7309,-4.7309,-4.7309,-4.7309,-4.7309,-4.7309,-4.7309,-4.7309,-4.7309,-4.7309,-4.7309,-4.7309,-4.7309,-4.7309,-4.7309,-4.7309,-4.7309,-4.7309,-4.7309,-4.7309,-4.7309,-4.7309,-4.7309,-4.7309,-4.7309,-4.7309,-4.7309,-4.7309,-4.7309,-4.7309,-4.7309,-4.7309,-4.7309,-4.7309,-4.6814,-4.6432,-4.6432,-4.5343,-4.4794,-4.5434,-4.4349,-4.374,-4.4442,-4.3929,-4.3218,-4.2544,-4.1936,-4.1319,-4.0592,-4.0032,-3.9697,-3.9697,-3.9697,-3.9697,-3.9697,-3.9948,-4.0224,-4.0526,-4.1028,-4.1681,-4.259,-4.2836,-4.2986,-4.2986,-4.2986,-4.2986,-4.2986,-4.2986,-4.3112,-4.3388,-4.3689,-4.4116,-4.4644,-4.5246,-4.5648,-4.5899,-4.62,-4.6301,-4.6301,-4.5598,-4.507,-4.4116,-4.1985,-4.1468,-4.0945,-3.9878,-3.9697,-3.9697,-3.9697,-3.9697,-3.9697,-3.9697,-3.9697,-3.9697,-3.9697,-3.9697,-3.9697,-3.9697,-3.9697,-3.9697,-3.9697,-4.0945,-4.223,-4.3456,-4.4932,-4.6211,-4.7309,-4.7309,-4.7309,-4.7309,-4.7309,-4.7309,-4.7309,-4.7309,-4.7309,-4.7309,-4.7309,-4.7309,-4.7309,-4.7309,-4.7309,-4.7309,-4.7309,-4.7309,-4.7309,-4.7309,-4.7149,-4.7019,-4.7266,-4.7149,-4.7019,-4.7019,-4.7149,-4.7266,-4.7062,-4.7149,-4.7309,-4.7309,-4.7309,-4.7309,-4.7309,-4.7309,-4.7309,-4.7309,-4.7309,-4.7309,-4.7309,-4.7309,-4.7309,-4.7309,-4.6388,-4.5644,-4.5434,-4.4489,-4.3787,-4.3787,0.0,-4.3504,-4.3504,-4.3313,-4.3122,-4.293,-4.1936,-4.1319,-4.1319,-4.0313,-3.9697,-3.9697,-3.9772,-3.9823,-3.9823,-4.0275,-4.0601,-4.0752,-4.1835,-4.2564,-4.2986,-4.2986,-4.2986,-4.2986,-4.2986,-4.2986,-4.2986,-4.2986,-4.3288,-4.3815,-4.389,-4.4543,-4.5497,-4.5573,-4.5899,-4.6301,-4.6301,-4.6301,-4.6301,-4.5434,-4.3693,-4.2084,-4.164,-4.0693,-3.9929,-3.9749,-3.9697,-3.9697,-3.9697,-3.9697,-3.9697,-3.9697,-3.9697,-3.9697,-3.9697,-3.9697,-3.9697,-3.9697,-3.9697,-3.9697,-3.9697,-4.0945,-4.223,-4.3456,-4.5779,-4.7106,-4.7309,-4.7309,-4.7309,-4.7309,-4.7309,-4.7309,-4.7309,-4.7309,-4.7309,-4.7309,-4.7309,-4.7309,-4.7309,-4.7309,-4.7309,-4.7309,-4.7309,-4.7309,-4.7309,-4.7309,-4.6594,-4.5869,-4.6931,-4.6594,-4.5689,-4.5689,-4.6432,-4.7062,-4.6003,-4.6462,-4.7309,-4.7309,-4.7309,-4.7309,-4.7309,-4.7309,-4.7309,-4.7309,-4.7309,-4.7309,-4.7309,-4.7309,-4.7309,-4.7309,-4.7149,-4.6638,-4.5598,-4.5207,-4.5115,-4.5115,-4.4163,-4.3504,-4.3504,-4.2544,-4.1468,-4.0415,-4.0134,-3.9981,-3.9981,-3.98,-3.9697,-3.9697,-4.0149,-4.04,-4.04,-4.0475,-4.0953,-4.1936,-4.259,-4.2886,-4.2986,-4.2986,-4.2986,-4.2986,-4.2986,-4.2986,-4.2986,-4.2986,-4.3288,-4.384,-4.4292,-4.4895,-4.5547,-4.5999,-4.6225,-4.6301,-4.6301,-4.6301,-4.6301,-4.6388,-4.5479,-4.4442,-4.3787,-4.2593,-4.1492,-4.0844,-4.0134,-3.9697,-3.9697,-3.9697,-3.9697,-3.9697,-3.9697,-3.9697,-3.9697,-3.9697,-3.9697,-3.9697,-3.9697,-3.9697,-3.9697,-4.1591,-4.3551,-4.5508,-4.6032,-4.6594,-4.7309,-4.6594,-4.6638,-4.7309,-4.7309,-4.7309,-4.7309,-4.7309,-4.7309,-4.7309,-4.7309,-4.6931,-4.6344,-4.7019,-4.6887,-4.6299,-4.6299,-4.6682,-4.7222,-4.655,-4.5913,-4.5598,-4.6887,-4.6432,-4.5389,-4.5389,-4.5779,-4.6032,-4.4748,-4.5779,-4.7309,-4.7309,-4.7309,-4.7309,-4.7309,-4.7309,-4.7309,-4.7309,-4.7309,-4.7309,-4.7309,-4.7309,-4.7309,-4.7309,-4.6726,-4.6077,-4.5508,-4.484,-4.4116,-4.3456,-4.3456,-4.3266,-4.2544,-4.2544,-4.2398,-4.1789,-4.1119,-4.0693,-4.0693,-4.0083,-3.9823,-4.0124,-4.0375,-4.0777,-4.1379,-4.1404,-4.1781,-4.264,-4.2861,-4.2986,-4.2986,-4.2986,-4.2986,-4.2986,-4.2986,-4.2986,-4.2986,-4.3288,-4.374,-4.4292,-4.4844,-4.5422,-4.5949,-4.62,-4.6301,-4.6301,-4.6301,-4.6301,-4.6301,-4.7309,-4.7062,-4.655,-4.5598,-4.4349,-4.3074,-4.1789,-4.0794,-4.0032,-3.9749,-3.9697,-3.9697,-3.9697,-3.9697,-3.9697,-3.9697,-3.9697,-3.9697,-3.9697,-3.9697,-3.9697,-3.9697,-4.2133,-4.4396,-4.6344,-4.5734,-4.5869,-4.6887,-4.5869,-4.5913,-4.6887,-4.7149,-4.7149,-4.6887,-4.6887,-4.7019,-4.7266,-4.6975,-4.6299,-4.5508,-4.677,-4.6344,-4.4978,-4.5298,-4.5824,-4.6344,-4.5644,-4.5024,-4.4748,-4.6475,-4.6011,-4.4743,-4.4837,-4.5081,-4.5081,-4.3822,-4.5006,-4.6755,-4.6608,-4.6712,-4.6887,-4.6887,-4.7062,-4.7309,-4.7309,-4.7309,-4.7309,-4.7309,-4.7309,-4.7222,-4.6931,-4.6077,-4.5207,-4.4581,-4.3929,-4.3074,-4.1789,-4.2689,-4.3026,-4.1739,-4.2447,-4.293,-4.2641,-4.1739,-4.1222,-4.1302,-4.0466,-4.0124,-4.0676,-4.0827,-4.1329,-4.2363,-4.2414,-4.2615,-4.2961,-4.2986,-4.2986,-4.2986,-4.2986,-4.2986,-4.2986,-4.2986,-4.3062,-4.3187,-4.3614,-4.4192,-4.4869,-4.5296,-4.5824,-4.6301,-4.6301,-4.6301,-4.6301,-4.6301,-4.6301,-4.6301,-4.7309,-4.6344,-4.5508,-4.5389,-4.4349,-4.3074,-4.1789,-4.1492,-4.1019,-3.9826,-3.9697,-3.9697,-3.9697,-3.9697,-3.9697,-3.9697,-3.9697,-3.9697,-3.9697,-3.9697,-3.9697,-3.9697,-4.2133,-4.3598,-4.3787,-4.484,-4.5434,-4.5553,-4.5434,-4.5434,-4.5598,-4.6726,-4.6682,-4.5553,-4.5553,-4.6211,-4.7222,-4.6032,-4.5508,-4.5508,-4.677,-4.5824,-4.3787,-4.4978,-4.472,-4.3929,-4.5024,-4.3882,-4.236,-4.5307,-4.4669,-4.274,-4.322,-4.4192,-4.4864,-4.3584,-4.4192,-4.5149,-4.4692,-4.5034,-4.5553,-4.5553,-4.6432,-4.7309,-4.7309,-4.7309,-4.7309,-4.7309,-4.7309,-4.6931,-4.5779,-4.5434,-4.4627,-4.2279,-4.2786,-4.3074,-4.1789,-4.2689,-4.3026,-4.1739,-4.169,-4.1269,-4.0083,-3.9878,-4.0053,-4.0557,-4.0503,-4.0701,-4.12,-4.1756,-4.2363,-4.2886,-4.2911,-4.2936,-4.2986,-4.2986,-4.2986,-4.2986,-4.2986,-4.2986,-4.2986,-4.2986,-4.3263,-4.374,-4.379,-4.4418,-4.5422,-4.5472,-4.5824,-4.6301,-4.6301,-4.6301,-4.6301,-4.6301,-4.6301,-4.6301,-4.7309,-4.6931,-4.6594,-4.6594,-4.5553,-4.4256,-4.2978,-4.2133,-4.1119,-3.9878,-3.9697,-3.9697,-3.9697,-3.9697,-3.9697,-3.9697,-3.9697,-3.9697,-3.9697,-3.9697,-4.0032,-4.0844,-4.2544,-4.3504,-4.3504,-4.3975,-4.421,-4.421,-4.421,-4.421,-4.4256,-4.6344,-4.6638,-4.5389,-4.5389,-4.6121,-4.7149,-4.5115,-4.421,-4.4256,-4.4748,-4.3882,-4.235,-4.2882,-4.3437,-4.396,-4.3621,-4.313,-4.2902,-4.4836,-4.4375,-4.294,-4.315,-4.3512,-4.3746,-4.2835,-4.2653,-4.2762,-4.2944,-4.4084,-4.5188,-4.5188,-4.5599,-4.5931,-4.5931,-4.5931,-4.5931,-4.5931,-4.5931,-4.5676,-4.4855,-4.4724,-4.428,-4.2985,-4.317,-4.3074,-4.1789,-4.2035,-4.1838,-4.0541,-4.0722,-4.0746,-4.0251,-4.0526,-4.0802,-4.0949,-4.0974,-4.1254,-4.1806,-4.2359,-4.276,-4.2961,-4.2986,-4.2986,-4.2986,-4.2986,-4.2986,-4.2986,-4.2986,-4.2986,-4.2986,-4.3338,-4.3614,-4.384,-4.4543,-4.5095,-4.5522,-4.5849,-4.6125,-4.6301,-4.6301,-4.6301,-4.6301,-4.6301,-4.6301,-4.6301,-4.7309,-4.7309,-4.7309,-4.7309,-4.6594,-4.5434,-4.374,-4.2738,-4.1591,-3.9929,-3.9697,-3.9697,-3.9697,-3.9697,-3.9697,-3.9697,-3.9697,-3.9697,-3.9697,-3.9697,-4.0083,-4.0995,-4.2593,-4.3122,-4.2301,-4.3074,-4.3504,-4.3504,-4.3504,-4.3504,-4.3551,-4.6121,-4.6388,-4.4794,-4.4794,-4.5508,-4.655,-4.3975,-4.2882,-4.293,-4.3361,-4.2604,-4.1305,-4.1681,-4.2475,-4.3332,-4.2827,-4.2656,-4.2814,-4.4262,-4.3932,-4.2943,-4.3098,-4.315,-4.3041,-4.2612,-4.2158,-4.1932,-4.2363,-4.3408,-4.4428,-4.4509,-4.4802,-4.5101,-4.5101,-4.5101,-4.5101,-4.5101,-4.5101,-4.4892,-4.4085,-4.3954,-4.3719,-4.2919,-4.2816,-4.2468,-4.1616,-4.1515,-4.1183,-4.0304,-4.0551,-4.0777,-4.0777,-4.1075,-4.1351,-4.158,-4.1605,-4.1831,-4.2439,-4.2816,-4.2986,-4.2986,-4.2986,-4.2986,-4.2986,-4.2986,-4.2986,-4.2986,-4.2986,-4.2986,-4.2986,-4.3539,-4.389,-4.4116,-4.507,-4.5598,-4.5773,-4.615,-4.6301,-4.6301,-4.6301,-4.6301,-4.6301,-4.6301,-4.6301,-4.6301,-4.7309,-4.7309,-4.7309,-4.7309,-4.7309,-4.6432,-4.3882,-4.3504,-4.2593,-4.0032,-3.9697,-3.9697,-3.9697,-3.9697,-3.9697,-3.9697,-3.9697,-3.9697,-3.9697,-3.9697,-3.9697,-3.9697,-4.2133,-4.2301,-3.9749,-4.2181,-4.3504,-4.3456,-4.3504,-4.3504,-4.3551,-4.6077,-4.5913,-4.3504,-4.3504,-4.421,-4.5207,-4.2689,-4.1591,-4.1716,-4.2978,-4.2282,-4.0606,-4.1929,-4.1931,-4.149,-4.2736,-4.2395,-4.1591,-4.3439,-4.322,-4.2313,-4.2811,-4.2986,-4.2986,-4.2986,-4.2986,-4.2986,-4.2986,-4.2986,-4.3017,-4.318,-4.4125,-4.5051,-4.5051,-4.5051,-4.5051,-4.5051,-4.5051,-4.4729,-4.3436,-4.3178,-4.2788,-4.149,-4.1275,-4.1275,-4.1275,-4.1275,-4.1275,-4.1275,-4.1275,-4.13,-4.13,-4.13,-4.158,-4.2162,-4.2213,-4.2464,-4.2936,-4.2986,-4.2986,-4.2986,-4.2986,-4.2986,-4.2986,-4.2986,-4.2986,-4.2986,-4.2986,-4.2986,-4.3011,-4.3564,-4.4116,-4.4669,-4.5246,-4.5799,-4.6301,-4.6301,-4.6301,-4.6301,-4.6301,-4.6301,-4.6301,-4.6301,-4.6301,-4.6301,-4.7309,-4.7309,-4.7309,-4.7309,-4.7309,-4.6432,-4.3882,-4.3504,-4.2593,-4.0032,-3.9697,-3.9697,-3.9697,-3.9697,-3.9697,-3.9697,-3.9697,-3.9697,-3.9697,-3.9697,-3.9697,-3.9697,-4.1269,-4.1419,-3.9749,-4.1319,-4.1739,-4.0844,-4.1739,-4.169,-4.0895,-4.3456,-4.421,-4.3456,-4.2544,-4.3361,-4.5161,-4.1739,-4.1026,-4.2124,-4.1618,-4.1284,-4.1078,-4.1478,-4.1727,-4.1961,-4.237,-4.2515,-4.2564,-4.3132,-4.3098,-4.276,-4.2936,-4.2986,-4.2986,-4.2986,-4.2986,-4.2986,-4.2986,-4.2986,-4.2997,-4.303,-4.3364,-4.3609,-4.3609,-4.3609,-4.3609,-4.3609,-4.3609,-4.3398,-4.2636,-4.2506,-4.2243,-4.1458,-4.1275,-4.1275,-4.1275,-4.1275,-4.1275,-4.1275,-4.1681,-4.1907,-4.1907,-4.2258,-4.2559,-4.2766,-4.2791,-4.2811,-4.2961,-4.2986,-4.2986,-4.2986,-4.2986,-4.2986,-4.2986,-4.2986,-4.2986,-4.2986,-4.2986,-4.3187,-4.3564,-4.4141,-4.4694,-4.5271,-4.5824,-4.615,-4.6301,-4.6301,-4.6301,-4.6301,-4.6301,-4.6301,-4.6301,-4.6301,-4.6301,-4.6301,-4.7309,-4.7309,-4.7309,-4.7309,-4.7309,-4.6594,-4.4535,-4.3834,-4.2786,-4.0693,-4.0032,-3.9697,-3.9697,-3.9898,-4.0023,-4.0023,-4.0224,-4.035,-4.035,-4.035,-4.035,-4.035,-4.108,-4.0901,-3.9749,-4.0945,-4.1219,-4.0465,-4.1219,-4.1219,-4.0516,-4.2544,-4.3218,-4.2689,-4.2176,-4.2748,-4.4054,-4.1465,-4.0972,-4.1931,-4.1145,-4.1178,-4.1656,-4.1656,-4.2007,-4.2539,-4.2539,-4.2685,-4.2986,-4.2986,-4.2986,-4.2986,-4.2986,-4.2986,-4.2986,-4.2986,-4.2986,-4.2986,-4.2986,-4.2986,-4.2986,-4.2986,-4.2986,-4.2986,-4.2986,-4.2986,-4.2986,-4.2986,-4.2986,-4.2886,-4.259,-4.2539,-4.2384,-4.2032,-4.1982,-4.1982,-4.1982,-4.1982,-4.1982,-4.1982,-4.2283,-4.2539,-4.2539,-4.2841,-4.2986,-4.2986,-4.2986,-4.2986,-4.2986,-4.2986,-4.2986,-4.2986,-4.2986,-4.2986,-4.2986,-4.2986,-4.2986,-4.2986,-4.3212,-4.3489,-4.384,-4.4618,-4.5146,-4.5522,-4.6075,-4.6301,-4.6301,-4.6301,-4.6301,-4.6301,-4.6301,-4.6301,-4.6301,-4.6301,-4.6301,-4.6301,-4.7309,-4.7309,-4.7309,-4.7309,-4.7309,-4.6887,-4.5598,-4.4396,-4.317,-4.1789,-4.0693,-3.9955,-3.9824,-4.0304,-4.0631,-4.0576,-4.1,-4.1275,-4.1275,-4.1275,-4.1275,-4.1275,-4.1275,-4.0824,-3.9873,-4.0948,-4.1498,-4.1498,-4.1498,-4.1498,-4.1547,-4.2728,-4.2755,-4.1776,-4.2102,-4.2338,-4.2415,-4.161,-4.13,-4.1351,-4.1351,-4.1731,-4.2288,-4.2288,-4.259,-4.2986,-4.2986,-4.2986,-4.2986,-4.2986,-4.2986,-4.2986,-4.2986,-4.2986,-4.2986,-4.2986,-4.2986,-4.2986,-4.2986,-4.2986,-4.2986,-4.2986,-4.2986,-4.2986,-4.2986,-4.2986,-4.2986,-4.2986,-4.2986,-4.2986,-4.2986,-4.2986,-4.2986,-4.2986,-4.2986,-4.2986,-4.2986,-4.2986,-4.2986,-4.2986,-4.2986,-4.2986,-4.2986,-4.2986,-4.2986,-4.2986,-4.2986,-4.2986,-4.2986,-4.2986,-4.2986,-4.2986,-4.2986,-4.2986,-4.2986,-4.3037,-4.3062,-4.3062,-4.3564,-4.384,-4.3991,-4.502,-4.5522,-4.5598,-4.61,-4.6301,-4.6301,-4.6301,-4.6301,-4.6301,-4.6301,-4.6301,-4.6301,-4.6301,-4.6301,-4.6301,-4.7309,-4.7309,-4.7309,-4.7309,-4.7309,-4.6887,-4.5598,-4.5161,-4.4163,-4.1887,-4.223,-4.2047,-4.0484,-4.1312,-4.1776,-4.1182,-4.1225,-4.1275,-4.1275,-4.1275,-4.1275,-4.1275,-4.1275,-4.1175,-4.0924,-4.0788,-4.0717,-4.0717,-4.0717,-4.0717,-4.0743,-4.1463,-4.2164,-4.281,-4.1953,-4.211,-4.2942,-4.1788,-4.158,-4.1982,-4.1982,-4.2308,-4.2866,-4.2866,-4.2861,-4.2986,-4.2986,-4.2986,-4.2986,-4.2986,-4.2986,-4.2986,-4.2986,-4.2986,-4.2986,-4.2986,-4.2986,-4.2986,-4.2986,-4.2986,-4.2986,-4.2986,-4.2986,-4.2986,-4.2986,-4.2986,-4.2986,-4.2986,-4.2986,-4.2986,-4.2986,-4.2986,-4.2986,-4.2986,-4.2986,-4.2986,-4.2986,-4.2986,-4.2986,-4.2986,-4.2986,-4.2986,-4.2986,-4.2986,-4.2986,-4.2986,-4.2986,-4.2986,-4.2986,-4.2986,-4.2986,-4.2986,-4.2986,-4.2986,-4.2986,-4.3413,-4.3614,-4.3614,-4.374,-4.4267,-4.5121,-4.5372,-4.5723,-4.6125,-4.625,-4.6301,-4.6301,-4.6301,-4.6301,-4.6301,-4.6301,-4.6301,-4.6301,-4.6301,-4.6301,-4.6301,-4.7309,-4.7309,-4.7309,-4.7309,-4.7309,-4.7062,-4.6388,-4.5779,-4.4932,-4.3598,-4.3752,-4.3573,-4.2536,-4.3546,-4.3904,-4.3143,-4.2464,-4.2133,-4.2133,-4.2133,-4.2133,-4.2133,-4.2133,-4.2133,-4.2133,-4.158,-4.1178,-4.0849,-4.0849,-4.0849,-4.0902,-4.115,-4.1625,-4.229,-4.1904,-4.2084,-4.2701,-4.2254,-4.2283,-4.2615,-4.2615,-4.2766,-4.2986,-4.2986,-4.2986,-4.2986,-4.2986,-4.2986,-4.2986,-4.2986,-4.2986,-4.2986,-4.2986,-4.2986,-4.2986,-4.2986,-4.2986,-4.2986,-4.2986,-4.2986,-4.2986,-4.2986,-4.2986,-4.2986,-4.2986,-4.2986,-4.2986,-4.2986,-4.2986,-4.2986,-4.2986,-4.2986,-4.2986,-4.2986,-4.2986,-4.2986,-4.2986,-4.2986,-4.2986,-4.2986,-4.2986,-4.2986,-4.2986,-4.2986,-4.2986,-4.2986,-4.2986,-4.2986,-4.2986,-4.2986,-4.2986,-4.2986,-4.2986,-4.3112,-4.3363,-4.3664,-4.4066,-4.4593,-4.4593,-4.492,-4.5497,-4.5748,-4.6024,-4.6301,-4.6301,-4.6301,-4.6301,-4.6301,-4.6301,-4.6301,-4.6301,-4.6301,-4.6301,-4.6301,-4.6301,-4.6351,-4.7309,-4.7309,-4.7309,-4.7309,-4.7309,-4.7309,-4.7309,-4.6388,-4.5673,-4.5578,-4.5344,-4.5049,-4.4837,-4.5785,-4.6161,-4.5422,-4.4318,-4.3713,-4.3713,-4.3713,-4.3713,-4.3713,-4.3713,-4.3602,-4.3351,-4.2895,-4.2279,-4.148,-4.148,-4.148,-4.148,-4.158,-4.1551,-4.1576,-4.2082,-4.2363,-4.2389,-4.2841,-4.2986,-4.2986,-4.2986,-4.2986,-4.2986,-4.2986,-4.2986,-4.2986,-4.2986,-4.2986,-4.2986,-4.2986,-4.2986,-4.2986,-4.2986,-4.2986,-4.2986,-4.2986,-4.2986,-4.2986,-4.2986,-4.2986,-4.2986,-4.2986,-4.2986,-4.2986,-4.2986,-4.2986,-4.2986,-4.2986,-4.2986,-4.2986,-4.2986,-4.2986,-4.2986,-4.2986,-4.2986,-4.2986,-4.2986,-4.2986,-4.2986,-4.2986,-4.2986,-4.2986,-4.2986,-4.2986,-4.2986,-4.2986,-4.2986,-4.2986,-4.2986,-4.2986,-4.2986,-4.2986,-4.3062,-4.3338,-4.379,-4.3991,-4.4568,-4.5497,-4.5573,-4.5623,-4.5648,-4.61,-4.6301,-4.6301,-4.6301,-4.6301,-4.6301,-4.6301,-4.6301,-4.6301,-4.6301,-4.6301,-4.6301,-4.6301,-4.6376,-4.6527,-4.7309,-4.7309,-4.7309,-4.7309,-4.7309,-4.7309,-4.7309,-4.7149,-4.6845,-4.6321,-4.7164,-4.7328,-4.62,-4.662,-4.696,-4.6837,-4.663,-4.6526,-4.6526,-4.6526,-4.6526,-4.6526,-4.6526,-4.5978,-4.4725,-4.4647,-4.3767,-4.2112,-4.2112,-4.2112,-4.2112,-4.2534,-4.276,-4.276,-4.2836,-4.2861,-4.2861,-4.2936,-4.2986,-4.2986,-4.2986,-4.2986,-4.2986,-4.2986,-4.2986,-4.2986,-4.2986,-4.2986,-4.2986,-4.2986,-4.2986,-4.2986,-4.2986,-4.2986,-4.2986,-4.2986,-4.2986,-4.2986,-4.2986,-4.2986,-4.2986,-4.2986,-4.2986,-4.2986,-4.2986,-4.2986,-4.2986,-4.2986,-4.2986,-4.2986,-4.2986,-4.2986,-4.2986,-4.2986,-4.2986,-4.2986,-4.2986,-4.2986,-4.2986,-4.2986,-4.2986,-4.2986,-4.2986,-4.2986,-4.2986,-4.2986,-4.2986,-4.2986,-4.2986,-4.2986,-4.2986,-4.2986,-4.3438,-4.374,-4.379,-4.4769,-4.5347,-4.5497,-4.5974,-4.62,-4.62,-4.6276,-4.6301,-4.6301,-4.6301,-4.6301,-4.6301,-4.6301,-4.6301,-4.6301,-4.6301,-4.6301,-4.6301,-4.6301,-4.6602,-4.6968,-4.7309,-4.7309,-4.7309,-4.7309,-4.7309,-4.7309,-4.7309,-4.7608,-4.7762,-4.7509,-4.858,-4.9143,-4.8566,-4.8366,-4.8289,-4.8289,-4.7554,-4.7094,-4.7094,-4.7094,-4.7094,-4.7094,-4.7094,-4.6785,-4.6188,-4.6188,-4.579,-4.4917,-4.3384,-4.2665,-4.2665,-4.2861,-4.2986,-4.2986,-4.2986,-4.2986,-4.2986,-4.2986,-4.2986,-4.2986,-4.2986,-4.2986,-4.2986,-4.2986,-4.2986,-4.2986,-4.2986,-4.2986,-4.2986,-4.2986,-4.2986,-4.2986,-4.2986,-4.2986,-4.2986,-4.2986,-4.2986,-4.2986,-4.2986,-4.2986,-4.2986,-4.2986,-4.2986,-4.2986,-4.2986,-4.2986,-4.2986,-4.2986,-4.2986,-4.2986,-4.2986,-4.2986,-4.2986,-4.2986,-4.2986,-4.2986,-4.2986,-4.2986,-4.2986,-4.2986,-4.2986,-4.2986,-4.2986,-4.2986,-4.2986,-4.2986,-4.2986,-4.2986,-4.2986,-4.2986,-4.3112,-4.3438,-4.3689,-4.4116,-4.4744,-4.5246,-4.5648,-4.5949,-4.62,-4.6301,-4.6301,-4.6301,-4.6301,-4.6301,-4.6301,-4.6301,-4.6301,-4.6301,-4.6301,-4.6301,-4.6301,-4.6301,-4.6351,-4.6652,-4.6928,-4.723]},{"header":{"parameterUnit":"m.s-1","parameterCategory":1,"la1":30.6,"la2":28.766,"lo1":-90.7593,"lo2":-88.6598,"dy":0.0162,"dx":0.0183,"nx":116,"ny":114,"refTime":"2024-04-03T00:00:00:Z","depth":0,"parameterNumber":3,"parameterNumberName":"V-component_of_WINDS"},"data":[0.0,0.0,0.0,0.0,0.0,0.0,0.0,0.0,0.0,0.0,0.0,0.0,0.0,0.0,0.0,0.0,0.0,0.0,0.0,0.0,0.0,0.0,0.0,0.0,0.0,0.0,0.0,0.0,0.0,0.0,0.0,0.0,0.0,0.0,0.0,0.0,0.0,0.0,0.0,0.0,0.0,0.0,0.0,0.0,0.0,0.0,0.0,0.0,0.0,0.0,0.0,0.0,0.0,0.0,0.0,0.0,0.0,0.0,0.0,0.0,0.0,0.0,0.0,0.0,0.0,0.0,0.0,0.0,0.0,0.0,0.0,0.0,0.0,0.0,0.0,0.0,0.0,0.0,0.0,0.0,0.0,0.0,0.0,0.0,0.0,0.0,0.0,0.0,0.0,0.0,0.0,0.0,0.0,0.0,0.0,0.0,0.0,0.0,0.0,0.0,0.0,0.0,0.0,0.0,0.0,0.0,0.0,0.0,0.0,0.0,0.0,0.0,0.0,0.0,0.0,0.0,0.0,0.0,0.0,0.0,0.0,0.0,0.0,0.0,0.0,0.0,0.0,0.0,0.0,0.0,0.0,0.0,0.0,0.0,0.0,0.0,0.0,0.0,0.0,0.0,0.0,0.0,0.0,0.0,0.0,0.0,0.0,0.0,0.0,0.0,0.0,0.0,0.0,0.0,0.0,0.0,0.0,0.0,0.0,0.0,0.0,0.0,0.0,0.0,0.0,0.0,0.0,0.0,0.0,0.0,0.0,0.0,0.0,0.0,0.0,0.0,0.0,0.0,0.0,0.0,0.0,0.0,0.0,0.0,0.0,0.0,0.0,0.0,0.0,0.0,0.0,0.0,0.0,0.0,0.0,0.0,0.0,0.0,0.0,0.0,0.0,0.0,0.0,0.0,0.0,0.0,0.0,0.0,0.0,0.0,0.0,0.0,0.0,0.0,0.0,0.0,0.0,0.0,0.0,0.0,0.0,0.0,0.0,0.0,0.0,0.0,0.0,0.0,0.0,0.0,0.0,0.0,0.0,0.0,0.0,0.0,0.0,0.0,0.0,0.0,0.0,0.0,0.0,0.0,0.0,0.0,0.0,0.0,0.0,0.0,0.0,0.0,0.0,0.0,0.0,0.0,0.0,0.0,0.0,0.0,0.0,0.0,0.0,0.0,0.0,0.0,0.0,0.0,0.0,0.0,0.0,0.0,0.0,0.0,0.0,0.0,0.0,0.0,0.0,0.0,0.0,0.0,0.0,0.0,0.0,0.0,0.0,0.0,0.0,0.0,0.0,0.0,0.0,0.0,0.0,0.0,0.0,0.0,0.0,0.0,0.0,0.0,0.0,0.0,0.0,0.0,0.0,0.0,0.0,0.0,0.0,0.0,0.0,0.0,0.0,0.0,0.0,0.0,0.0,0.0,0.0,0.0,0.0,0.0,0.0,0.0,0.0,0.0,0.0,0.0,0.0,0.0,0.0,0.0,0.0,0.0,0.0,0.0,0.0,0.0,0.0,0.0,0.0,0.0,0.0,0.0,0.0,0.0,0.0,0.0,0.0,0.0,0.0,0.0,0.0,0.0,0.0,0.0,0.0,0.0,0.0,0.0,0.0,0.0,0.0,0.0,0.0,0.0,0.0,0.0,0.0,0.0,0.0,0.0,0.0,0.0,0.0,0.0,0.0,0.0,0.0,0.0,0.0,0.0,0.0,0.0,0.0,0.0,0.0,0.0,0.0,0.0,0.0,0.0,0.0,0.0,0.0,0.0,0.0,0.0,0.0,0.0,0.0,0.0,0.0,0.0,0.0,0.0,0.0,0.0,0.0,0.0,0.0,0.0,0.0,0.0,0.0,0.0,0.0,0.0,0.0,0.0,0.0,0.0,0.0,0.0,0.0,0.0,0.0,0.0,0.0,0.0,0.0,0.0,0.0,0.0,0.0,0.0,0.0,0.0,0.0,0.0,0.0,0.0,0.0,0.0,0.0,0.0,0.0,0.0,0.0,0.0,0.0,0.0,0.0,0.0,0.0,0.0,0.0,0.0,0.0,0.0,0.0,0.0,0.0,0.0,0.0,0.0,0.0,0.0,0.0,0.0,0.0,0.0,0.0,0.0,0.0,0.0,0.0,0.0,0.0,0.0,0.0,0.0,0.0,0.0,0.0,0.0,0.0,0.0,0.0,0.0,0.0,0.0,0.0,0.0,0.0,0.0,0.0,0.0,0.0,0.0,0.0,0.0,0.0,0.0,0.0,0.0,0.0,0.0,0.0,0.0,0.0,0.0,0.0,0.0,0.0,0.0,0.0,0.0,0.0,0.0,0.0,0.0,0.0,0.0,0.0,0.0,0.0,0.0,0.0,0.0,0.0,0.0,0.0,0.0,0.0,0.0,0.0,0.0,0.0,0.0,0.0,0.0,0.0,0.0,0.0,0.0,0.0,0.0,0.0,0.0,0.0,0.0,0.0,0.0,0.0,0.0,0.0,0.0,0.0,0.0,0.0,0.0,0.0,0.0,0.0,0.0,0.0,0.0,0.0,0.0,0.0,0.0,0.0,0.0,0.0,0.0,0.0,0.0,0.0,0.0,0.0,0.0,0.0,0.0,0.0,0.0,0.0,0.0,0.0,0.0,0.0,0.0,0.0,0.0,0.0,0.0,0.0,0.0,0.0,0.0,0.0,0.0,0.0,0.0,0.0,0.0,0.0,0.0,0.0,0.0,0.0,0.0,0.0,0.0,0.0,0.0,0.0,0.0,0.0,0.0,0.0,0.0,0.0,0.0,0.0,0.0,0.0,0.0,0.0,0.0,0.0,0.0,0.0,0.0,0.0,0.0,0.0,0.0,0.0,0.0,0.0,0.0,0.0,0.0,0.0,0.0,0.0,0.0,0.0,0.0,0.0,0.0,0.0,0.0,0.0,0.0,0.0,0.0,0.0,0.0,0.0,0.0,0.0,0.0,0.0,0.0,0.0,0.0,0.0,0.0,0.0,0.0,0.0,0.0,0.0,0.0,0.0,0.0,0.0,0.0,0.0,0.0,0.0,0.0,0.0,0.0,0.0,0.0,0.0,0.0,0.0,0.0,0.0,0.0,0.0,0.0,0.0,0.0,0.0,0.0,0.0,0.0,0.0,0.0,0.0,0.0,0.0,0.0,0.0,0.0,0.0,0.0,0.0,0.0,0.0,0.0,0.0,0.0,0.0,0.0,0.0,0.0,0.0,0.0,0.0,0.0,0.0,0.0,0.0,0.0,0.0,0.0,0.0,0.0,0.0,0.0,0.0,0.0,0.0,0.0,0.0,0.0,0.0,0.0,0.0,0.0,0.0,0.0,0.0,0.0,0.0,0.0,0.0,0.0,0.0,0.0,0.0,0.0,0.0,0.0,0.0,0.0,0.0,0.0,0.0,0.0,0.0,0.0,0.0,0.0,0.0,0.0,0.0,0.0,0.0,0.0,0.0,0.0,0.0,0.0,0.0,0.0,0.0,0.0,0.0,0.0,0.0,0.0,0.0,0.0,0.0,0.0,0.0,0.0,0.0,0.0,0.0,0.0,0.0,0.0,0.0,0.0,0.0,0.0,0.0,0.0,0.0,0.0,0.0,0.0,0.0,0.0,0.0,0.0,0.0,0.0,0.0,0.0,0.0,0.0,0.0,0.0,0.0,0.0,0.0,0.0,0.0,0.0,0.0,0.0,0.0,0.0,0.0,0.0,0.0,0.0,0.0,0.0,0.0,0.0,0.0,0.0,0.0,0.0,0.0,0.0,0.0,0.0,0.0,0.0,0.0,0.0,0.0,0.0,0.0,0.0,0.0,0.0,0.0,0.0,0.0,0.0,0.0,0.0,0.0,0.0,0.0,0.0,0.0,0.0,0.0,0.0,0.0,0.0,0.0,0.0,0.0,0.0,0.0,0.0,0.0,0.0,0.0,0.0,0.0,0.0,0.0,0.0,0.0,0.0,0.0,0.0,0.0,0.0,0.0,0.0,0.0,0.0,0.0,0.0,0.0,0.0,0.0,0.0,0.0,0.0,0.0,0.0,0.0,0.0,0.0,0.0,0.0,0.0,0.0,0.0,0.0,0.0,0.0,0.0,0.0,0.0,0.0,0.0,0.0,0.0,0.0,0.0,0.0,0.0,0.0,0.0,0.0,0.0,0.0,0.0,0.0,0.0,0.0,0.0,0.0,0.0,0.0,0.0,0.0,0.0,0.0,0.0,0.0,0.0,0.0,0.0,0.0,0.0,0.0,0.0,0.0,0.0,0.0,0.0,0.0,0.0,0.0,0.0,0.0,0.0,0.0,0.0,0.0,0.0,0.0,0.0,0.0,0.0,0.0,0.0,0.0,0.0,0.0,0.0,0.0,0.0,0.0,0.0,0.0,0.0,0.0,0.0,0.0,0.0,0.0,0.0,0.0,0.0,0.0,0.0,0.0,0.0,0.0,0.0,0.0,0.0,0.0,0.0,0.0,0.0,0.0,0.0,0.0,0.0,0.0,0.0,0.0,0.0,0.0,0.0,0.0,0.0,0.0,0.0,0.0,0.0,0.0,0.0,0.0,0.0,0.0,0.0,0.0,0.0,0.0,0.0,0.0,0.0,0.0,0.0,0.0,0.0,0.0,0.0,0.0,0.0,0.0,0.0,0.0,0.0,0.0,0.0,0.0,0.0,0.0,0.0,0.0,0.0,0.0,0.0,0.0,0.0,0.0,0.0,0.0,0.0,0.0,0.0,0.0,0.0,0.0,0.0,0.0,0.0,0.0,0.0,0.0,0.0,0.0,0.0,0.0,0.0,0.0,0.0,0.0,0.0,0.0,0.0,0.0,0.0,0.0,0.0,0.0,0.0,0.0,0.0,0.0,0.0,0.0,0.0,0.0,0.0,0.0,0.0,0.0,0.0,0.0,0.0,0.0,0.0,0.0,0.0,0.0,0.0,0.0,0.0,0.0,0.0,0.0,0.0,0.0,0.0,0.0,0.0,0.0,0.0,0.0,0.0,0.0,0.0,0.0,0.0,0.0,0.0,0.0,0.0,0.0,0.0,0.0,0.0,0.0,0.0,0.0,0.0,0.0,0.0,0.0,0.0,0.0,0.0,0.0,0.0,0.0,0.0,0.0,0.0,0.0,0.0,0.0,0.0,0.0,0.0,0.0,0.0,0.0,0.0,0.0,0.0,0.0,0.0,0.0,0.0,0.0,0.0,0.0,0.0,0.0,0.0,0.0,0.0,0.0,0.0,0.0,0.0,0.0,0.0,0.0,0.0,0.0,0.0,0.0,0.0,0.0,0.0,0.0,0.0,0.0,0.0,0.0,0.0,0.0,0.0,0.0,0.0,0.0,0.0,0.0,0.0,0.0,0.0,0.0,0.0,0.0,0.0,0.0,0.0,0.0,0.0,0.0,0.0,0.0,0.0,0.0,0.0,0.0,0.0,0.0,0.0,0.0,0.0,0.0,0.0,0.0,0.0,0.0,0.0,0.0,0.0,0.0,0.0,0.0,0.0,0.0,0.0,0.0,0.0,0.0,0.0,0.0,0.0,0.0,0.0,0.0,0.0,0.0,0.0,0.0,0.0,0.0,0.0,0.0,0.0,0.0,0.0,0.0,0.0,0.0,0.0,0.0,0.0,0.0,0.0,0.0,0.0,0.0,0.0,0.0,0.0,0.0,0.0,0.0,0.0,0.0,0.0,0.0,0.0,0.0,0.0,0.0,0.0,0.0,0.0,0.0,0.0,0.0,0.0,0.0,0.0,0.0,0.0,0.0,0.0,0.0,0.0,0.0,0.0,0.0,0.0,0.0,0.0,0.0,0.0,0.0,0.0,0.0,0.0,0.0,0.0,0.0,0.0,0.0,0.0,0.0,0.0,0.0,0.0,0.0,0.0,0.0,0.0,0.0,0.0,0.0,0.0,0.0,0.0,0.0,0.0,0.0,0.0,0.0,0.0,0.0,0.0,0.0,0.0,0.0,0.0,0.0,0.0,0.0,0.0,0.0,0.0,0.0,0.0,0.0,0.0,0.0,0.0,0.0,0.0,0.0,0.0,0.0,0.0,0.0,0.0,0.0,0.0,0.0,0.0,0.0,0.0,0.0,0.0,0.0,0.0,0.0,0.0,0.0,0.0,3.9373,0.0,0.0,0.0,0.0,0.0,0.0,0.0,0.0,0.0,0.0,0.0,0.0,0.0,0.0,0.0,0.0,0.0,0.0,0.0,0.0,0.0,0.0,0.0,0.0,2.6499,2.6499,2.6499,2.6499,2.6499,2.6499,2.6884,0.0,0.0,0.0,0.0,2.9034,2.9844,3.048,3.0925,3.1307,3.1511,3.1511,3.1511,3.1511,3.1511,0.0,0.0,0.0,0.0,0.0,0.0,0.0,0.0,0.0,0.0,0.0,0.0,0.0,0.0,0.0,0.0,0.0,0.0,0.0,0.0,0.0,0.0,0.0,0.0,0.0,0.0,0.0,0.0,0.0,0.0,0.0,0.0,0.0,0.0,0.0,0.0,0.0,0.0,0.0,0.0,0.0,0.0,0.0,0.0,0.0,0.0,0.0,0.0,0.0,0.0,0.0,0.0,0.0,0.0,0.0,0.0,0.0,0.0,0.0,0.0,0.0,0.0,0.0,0.0,0.0,0.0,0.0,0.0,0.0,0.0,0.0,3.9373,0.0,0.0,0.0,0.0,0.0,0.0,0.0,0.0,0.0,0.0,0.0,0.0,0.0,0.0,0.0,0.0,0.0,0.0,0.0,0.0,0.0,2.6499,2.6499,2.6499,2.6499,2.6499,2.6499,2.6499,2.6499,2.6499,2.6499,2.6499,2.7129,2.7571,2.7703,2.9254,3.0147,3.0299,3.1131,3.1511,3.1511,3.1511,3.1511,3.1511,3.1511,0.0,0.0,0.0,0.0,0.0,0.0,0.0,0.0,0.0,0.0,0.0,0.0,0.0,0.0,0.0,0.0,0.0,0.0,0.0,0.0,0.0,0.0,0.0,0.0,0.0,0.0,0.0,0.0,0.0,0.0,0.0,0.0,0.0,0.0,0.0,0.0,0.0,0.0,0.0,0.0,0.0,0.0,0.0,0.0,0.0,0.0,0.0,0.0,0.0,0.0,0.0,0.0,0.0,0.0,0.0,0.0,0.0,0.0,0.0,0.0,0.0,0.0,0.0,4.1115,4.1422,4.1422,4.1422,4.1422,4.1324,4.0217,3.9768,3.9768,3.9768,0.0,0.0,0.0,0.0,0.0,0.0,0.0,0.0,0.0,0.0,0.0,0.0,0.0,0.0,0.0,0.0,0.0,0.0,0.0,2.6499,2.6499,2.6499,2.6499,2.6499,2.6499,2.6499,2.6499,2.6499,2.6499,2.6499,2.6602,2.6994,2.767,2.8684,2.9535,3.0299,3.1131,3.1511,3.1511,3.1511,3.1511,3.1511,3.1511,3.1511,3.1511,0.0,0.0,0.0,0.0,0.0,0.0,0.0,0.0,0.0,0.0,0.0,0.0,0.0,0.0,0.0,0.0,0.0,0.0,0.0,0.0,0.0,0.0,0.0,0.0,0.0,0.0,0.0,0.0,0.0,0.0,0.0,0.0,0.0,0.0,0.0,0.0,0.0,0.0,0.0,0.0,0.0,3.7062,3.9162,0.0,0.0,0.0,0.0,0.0,0.0,0.0,0.0,0.0,0.0,0.0,0.0,0.0,4.1115,4.1115,4.1205,4.1302,4.1265,4.1354,4.1422,4.1422,4.1422,4.1422,4.1422,4.1205,0.0,4.1115,4.1115,0.0,0.0,0.0,0.0,0.0,0.0,0.0,0.0,0.0,0.0,0.0,0.0,0.0,0.0,0.0,0.0,0.0,0.0,0.0,0.0,0.0,2.6499,2.6499,2.6499,2.6499,2.6499,2.6499,2.6499,2.6499,2.6499,2.6499,2.6645,2.7027,2.833,2.9659,3.0955,3.1307,3.1511,3.1511,3.1511,3.1511,3.1511,3.1511,3.1511,3.1511,3.1511,0.0,0.0,0.0,0.0,0.0,0.0,0.0,0.0,0.0,0.0,0.0,0.0,0.0,0.0,0.0,0.0,0.0,0.0,0.0,0.0,0.0,0.0,0.0,0.0,0.0,0.0,0.0,0.0,0.0,0.0,0.0,0.0,0.0,0.0,0.0,0.0,0.0,0.0,0.0,3.6982,3.8331,3.9301,3.9373,3.9373,0.0,0.0,0.0,0.0,0.0,0.0,0.0,0.0,0.0,4.0935,4.1235,4.1422,4.1422,4.1782,4.1961,4.1961,4.2312,4.2491,4.2491,4.2491,4.2491,4.2491,4.2491,4.2491,4.2432,4.1683,4.1422,4.1422,0.0,0.0,0.0,0.0,4.1422,4.1422,0.0,0.0,0.0,0.0,0.0,0.0,0.0,0.0,0.0,0.0,0.0,0.0,2.6499,2.6499,2.6499,2.6499,2.6499,2.6499,2.6499,2.6499,2.6499,2.6499,2.6499,2.6499,2.6499,2.8136,2.9813,3.1511,3.1511,3.1511,3.1511,3.1511,3.1511,3.1511,3.1511,3.1511,3.1511,3.1511,3.1511,3.1511,0.0,0.0,0.0,0.0,0.0,0.0,0.0,0.0,0.0,0.0,0.0,0.0,0.0,0.0,0.0,0.0,0.0,0.0,0.0,0.0,0.0,0.0,0.0,0.0,0.0,0.0,0.0,0.0,0.0,0.0,0.0,0.0,0.0,0.0,0.0,0.0,0.0,3.7558,3.8694,3.8943,3.9228,3.9499,0.0,0.0,0.0,0.0,0.0,0.0,4.1354,4.1572,4.1662,4.1662,4.1803,4.1893,4.1893,4.2372,4.265,4.2611,4.312,4.329,4.329,4.329,4.329,4.329,4.329,4.329,4.323,4.2282,4.1893,4.1893,4.1893,4.1893,4.1893,4.1893,4.1893,4.1893,0.0,0.0,0.0,0.0,0.0,0.0,0.0,0.0,0.0,0.0,0.0,2.6499,2.6499,2.6499,2.6499,2.6499,2.6499,2.6499,2.6499,2.6499,2.6499,2.6499,2.6499,2.6499,2.6499,2.8136,2.9813,3.1511,3.1511,3.1511,3.1511,3.1511,3.1511,3.1511,3.1511,3.1511,3.1511,3.1511,3.1511,3.1511,3.1511,0.0,0.0,0.0,0.0,0.0,0.0,0.0,0.0,0.0,0.0,0.0,0.0,0.0,0.0,0.0,0.0,0.0,0.0,0.0,0.0,0.0,0.0,0.0,0.0,0.0,0.0,0.0,0.0,0.0,0.0,0.0,0.0,0.0,0.0,0.0,0.0,0.0,0.0,3.7738,3.8797,0.0,0.0,0.0,0.0,4.1294,4.1324,4.1354,4.1422,4.2021,4.2351,4.2351,4.291,4.32,4.32,4.323,4.323,4.326,4.329,4.329,4.329,4.329,4.329,4.329,4.329,4.329,4.329,4.323,4.32,4.32,4.32,4.32,4.32,4.32,4.32,4.32,0.0,0.0,0.0,0.0,0.0,2.6499,2.6499,2.6499,2.6499,2.6499,2.6499,2.6499,2.6499,2.6499,2.6499,2.6499,2.6499,2.6499,2.6499,2.6499,2.6499,2.6499,2.6499,2.6994,2.8071,2.9254,3.0389,3.1511,3.1929,3.2138,3.2138,3.2587,3.2796,3.2796,3.2796,3.2796,3.2736,3.1869,3.1511,3.1511,3.1511,3.175,0.0,0.0,0.0,0.0,0.0,0.0,0.0,0.0,0.0,0.0,0.0,0.0,0.0,0.0,0.0,0.0,0.0,0.0,0.0,0.0,0.0,0.0,0.0,0.0,0.0,0.0,0.0,0.0,0.0,0.0,0.0,0.0,0.0,0.0,0.0,0.0,0.0,3.8409,3.9093,0.0,4.092,4.0321,4.047,4.1914,4.2051,4.2192,4.2611,4.2851,4.3,4.3,4.317,4.329,4.329,4.329,4.3499,4.3958,4.3958,4.4197,4.4586,4.4586,4.4586,4.4586,4.4586,4.4586,4.4586,4.4586,4.4107,4.329,4.329,4.329,4.329,4.329,4.329,4.329,0.0,0.0,0.0,0.0,2.6499,2.6499,2.6499,2.6499,2.6499,2.6499,2.6499,2.6499,2.6499,2.6499,2.6499,2.6499,2.6499,2.6499,2.6499,2.6499,2.6499,2.6499,2.6499,2.7162,2.8524,2.9638,3.0585,3.1397,3.2348,3.2856,3.2856,3.3275,3.3484,3.3484,3.3484,3.3484,3.3425,3.2557,3.2168,3.2138,3.1929,3.2228,3.2856,0.0,0.0,0.0,0.0,0.0,0.0,0.0,0.0,0.0,0.0,0.0,0.0,0.0,0.0,0.0,0.0,0.0,0.0,0.0,0.0,0.0,0.0,0.0,0.0,0.0,0.0,0.0,0.0,0.0,0.0,0.0,0.0,0.0,0.0,0.0,3.8541,3.8541,3.9535,4.0617,4.1645,4.0998,4.1116,4.2602,4.2671,4.288,4.326,4.329,4.3379,4.3618,4.3618,4.3738,4.3947,4.3947,4.4227,4.4646,4.4646,4.4885,4.5304,4.5304,4.5304,4.5304,4.5304,4.5304,4.5304,4.5304,4.4796,4.3917,4.3708,4.3499,4.329,4.329,4.329,4.329,0.0,0.0,0.0,2.6499,2.6499,2.6499,2.6499,2.6499,2.6499,2.6499,2.6499,2.6499,2.6499,2.6499,2.6499,2.6499,2.6499,2.6499,2.6499,2.6499,2.6499,2.6499,2.6533,2.6918,2.7696,2.922,3.0371,3.1221,3.2757,3.3514,3.3544,3.3574,3.3604,3.3604,3.3604,3.3574,3.3574,3.3544,3.3544,3.3484,3.2826,3.2946,3.3514,0.0,0.0,0.0,0.0,0.0,0.0,0.0,0.0,0.0,0.0,0.0,0.0,0.0,0.0,0.0,0.0,0.0,0.0,0.0,0.0,0.0,0.0,0.0,0.0,0.0,0.0,0.0,0.0,0.0,0.0,0.0,0.0,0.0,3.3997,3.6348,3.8104,3.809,4.005,4.1645,4.2312,4.2402,4.2641,4.323,4.3319,4.3319,4.3319,4.3349,4.3648,4.4317,4.4347,4.4646,4.5274,4.5304,4.5304,4.5334,4.5334,4.5334,4.5364,4.5364,4.5364,4.5364,4.5364,4.5364,4.5364,4.5364,4.5334,4.5244,4.4616,4.3917,4.3349,4.3349,4.3349,4.3349,0.0,0.0,2.6499,2.6499,2.6499,2.6499,2.6499,2.6499,2.6499,2.6499,2.6499,2.6499,2.6499,2.6499,2.6499,2.6499,2.6499,2.6499,2.6499,2.6499,2.6499,2.6499,2.7061,2.7654,2.8283,2.9312,3.0499,3.185,3.2771,3.3803,3.4951,3.5429,3.5908,3.6327,3.5878,3.5669,3.5609,3.4653,3.4502,3.4861,3.3694,3.3634,3.4234,0.0,0.0,0.0,0.0,0.0,0.0,0.0,0.0,0.0,0.0,0.0,0.0,0.0,0.0,0.0,0.0,0.0,0.0,0.0,0.0,0.0,0.0,0.0,0.0,0.0,0.0,0.0,0.0,0.0,0.0,0.0,3.5006,3.5082,3.4575,3.6934,3.8443,3.7611,3.9914,4.1604,4.1779,4.1808,4.2221,4.325,4.3738,4.4047,4.4047,4.4496,4.4825,4.5035,4.5035,4.5095,4.5304,4.5304,4.5544,4.6052,4.6052,4.6292,4.6741,4.6741,4.6741,4.6741,4.6741,4.6741,4.6741,4.6741,4.6471,4.5963,4.5304,4.4915,4.4766,4.4766,4.4766,4.4766,0.0,2.6499,2.6499,2.6499,2.6499,2.6499,2.6499,2.6499,2.6499,2.6499,2.6499,2.6499,2.6499,2.6499,2.6499,2.6499,2.6499,2.6499,2.6499,2.6499,2.6499,2.6499,2.7156,2.7653,2.7997,2.9331,3.0684,3.1957,3.3269,3.4601,3.5938,3.6567,3.7075,3.7404,3.7015,3.6866,3.6806,3.5759,3.5549,3.5818,3.4771,3.4562,3.4921,3.4921,3.516,3.5519,3.5519,3.5519,3.5519,3.5519,0.0,0.0,0.0,0.0,0.0,0.0,0.0,0.0,0.0,0.0,0.0,0.0,0.0,0.0,0.0,0.0,0.0,0.0,0.0,0.0,0.0,0.0,0.0,0.0,3.5978,3.578,3.5454,3.7261,3.8378,3.7695,3.955,4.0873,4.0873,4.1566,4.2074,4.2199,4.3785,4.4501,4.3944,4.4816,4.5424,4.5723,4.5723,4.5843,4.6142,4.6142,4.6352,4.6741,4.6741,4.692,4.7309,4.7309,4.7309,4.7309,4.7309,4.7309,4.7309,4.7309,4.707,0.0,0.0,0.0,0.0,0.0,4.5304,4.5304,0.0,2.6499,2.6499,2.6499,2.6499,2.6499,2.6499,2.6499,2.6499,2.6499,2.6499,2.6499,2.6499,2.6499,2.6499,2.6499,2.6499,2.6499,2.6499,2.6499,2.6524,2.6575,2.7052,2.7379,2.7469,2.9274,3.0762,3.1833,3.3727,3.5294,3.6552,3.7084,3.7451,3.7644,3.7554,3.7524,3.7494,3.6866,3.6537,3.6447,3.5848,3.5579,3.5519,3.5519,3.5519,3.5519,3.5519,3.5519,3.5519,3.5519,0.0,0.0,0.0,0.0,0.0,0.0,0.0,0.0,0.0,0.0,0.0,0.0,0.0,0.0,0.0,0.0,0.0,0.0,0.0,0.0,0.0,0.0,0.0,0.0,3.7057,3.6405,3.6405,3.7289,3.788,3.788,3.9149,3.9996,3.9996,4.1481,4.2152,4.1295,4.3687,4.4778,4.3748,0.0,0.0,0.0,0.0,4.6711,4.7309,4.7309,4.7309,4.7309,4.7309,4.7309,4.7309,4.7309,4.7309,4.7309,4.7309,4.7309,4.7309,4.7309,4.7309,4.7249,4.6681,4.6052,4.5514,4.5514,4.5514,4.5514,0.0,2.6499,2.6499,2.6499,2.6499,2.6499,2.6499,2.6499,2.6499,2.6499,2.6499,2.6499,2.6499,2.6499,2.6499,2.6499,2.6499,2.6499,2.6499,2.6499,2.67,2.7128,2.7218,2.7695,2.8562,2.8987,3.012,3.1958,3.2359,3.4002,3.6744,3.686,3.7673,3.902,3.8452,3.8212,3.8153,3.7494,3.6956,3.6477,3.6357,3.5968,3.5519,3.5519,3.5519,3.5519,3.5519,3.5519,3.5519,3.5519,3.5519,3.5609,3.6267,3.6836,0.0,0.0,0.0,0.0,0.0,0.0,0.0,0.0,0.0,0.0,0.0,0.0,0.0,0.0,0.0,0.0,0.0,0.0,0.0,3.6662,3.6546,3.6405,3.6405,3.6593,3.6709,3.6709,3.9005,4.0576,4.062,4.1307,4.2471,4.4284,4.4486,4.4909,4.57,4.6493,4.698,4.71,4.713,4.7189,4.7309,4.7309,4.7309,4.7309,0.0,0.0,4.7309,4.7309,4.7309,4.7309,4.7309,4.7309,4.7309,4.7309,4.7309,4.7309,4.716,4.704,4.692,4.692,4.692,4.692,0.0,2.6499,2.6499,2.6499,2.6499,2.6499,2.6499,2.6499,2.6499,2.6499,2.6499,2.6499,2.6499,2.6499,2.6499,2.6499,2.6499,2.6499,2.6499,2.6499,2.6751,2.7304,2.7544,2.8072,2.8863,2.9227,3.0228,3.2,3.2354,3.399,3.6827,3.7143,3.8076,3.9373,3.905,3.8901,3.8871,3.8182,3.7524,3.6926,3.6596,3.6088,3.5519,3.5519,3.5519,3.5519,3.5519,3.5519,3.5519,3.5519,3.5729,3.6118,3.6746,3.7375,3.8033,0.0,0.0,0.0,0.0,0.0,0.0,0.0,0.0,0.0,0.0,0.0,0.0,0.0,0.0,3.6954,3.7191,0.0,3.6593,3.715,3.6756,3.6405,3.6405,3.6656,3.6832,3.6832,3.8075,3.9084,3.9374,4.0448,4.1381,4.203,4.3258,4.422,4.4883,4.5828,4.6638,4.7266,4.7309,4.7309,4.7309,4.7309,4.7309,4.7309,4.7309,4.7309,4.7309,4.7309,4.7309,4.7309,4.7309,4.7309,4.7309,4.7309,4.7309,4.7309,4.7309,4.7309,4.7309,4.7309,4.7309,4.7309,0.0,2.6499,2.6499,2.6499,2.6499,2.6499,2.6499,2.6499,2.6499,2.6499,2.6499,2.6499,2.6499,2.6499,2.6499,2.6499,2.6499,2.6499,2.6499,2.6499,2.6751,2.7304,2.7821,2.8373,2.8888,2.9503,3.0457,3.1719,3.2372,3.3904,3.624,3.6892,3.7738,3.8767,3.898,3.909,3.906,3.859,3.8003,3.7345,3.6746,3.6088,3.5519,3.5519,3.5519,3.5519,3.5519,3.5519,3.5519,3.5639,3.6058,3.6626,3.7375,3.7973,3.8476,3.8948,3.909,0.0,0.0,0.0,0.0,0.0,0.0,0.0,0.0,3.7202,3.6356,3.7644,3.7304,3.6943,3.7632,3.701,3.6709,3.7632,3.701,3.6455,3.6556,3.6958,3.7262,3.7487,3.7513,3.7786,3.851,3.976,4.0392,3.9823,4.2081,4.3598,4.3882,4.507,4.6255,4.7266,4.7309,4.7309,4.7309,4.7309,4.7309,4.7309,4.7309,4.7309,4.7309,4.7309,4.7309,4.7309,4.7309,4.7309,4.7309,4.7309,4.7309,4.7309,4.7309,4.7309,4.7309,4.7309,4.7309,4.7309,0.0,2.6499,2.6499,2.6499,2.6499,2.6499,2.6499,2.6499,2.6499,2.6499,2.6499,2.6499,2.6499,2.6499,2.6499,2.6499,2.6499,2.6499,2.6499,2.6499,2.6751,2.7304,2.7821,2.8373,2.8888,2.9503,3.0094,3.0767,3.1337,3.2467,3.4153,3.4767,3.5601,3.6604,3.7548,3.7994,3.8003,3.8305,3.8003,3.7345,3.6746,3.6088,3.5519,3.5519,3.5519,3.5519,3.5519,3.5519,3.5579,3.6178,3.6417,3.6686,3.7913,3.8332,3.8335,3.8082,3.7994,3.7776,3.6799,3.6487,3.616,3.5223,3.5563,3.6396,0.0,3.7547,3.7715,3.7314,3.7584,3.7632,3.6756,3.6499,3.6452,3.6593,3.6499,3.6581,3.701,3.7136,3.7563,3.8617,3.8743,3.9168,4.035,4.008,4.069,4.2821,4.3333,4.3975,4.5115,4.6388,4.7149,4.7309,4.7309,4.7309,4.7309,4.7309,4.7309,4.7309,4.7309,4.7309,4.7309,4.7309,4.7309,4.7309,4.7309,4.7309,4.7309,4.7309,4.7309,4.7309,4.7309,4.7309,4.7309,4.7309,4.7309,4.7309,0.0,0.0,2.6499,2.6499,2.6499,2.6499,2.6499,2.6499,2.6499,2.6499,2.6499,2.6499,2.6499,2.6499,2.6499,2.6499,2.6499,2.6499,2.6499,2.6499,2.6751,2.7304,2.7494,2.8021,2.8863,2.9176,2.9729,3.0608,3.0834,3.1749,3.3318,3.3582,3.457,3.6108,3.6544,3.7048,3.7582,3.7739,3.7434,3.6836,3.6596,3.6088,3.5519,3.5519,3.5519,3.5424,3.4839,3.461,0.0,0.0,3.5908,3.6481,3.7953,3.824,3.8018,3.787,3.7329,3.676,3.633,3.5774,3.5385,3.5579,3.5487,3.5583,3.646,3.691,3.7052,3.6749,3.6903,3.6964,3.6499,3.6405,3.6405,0.0,3.6405,3.6606,3.7111,3.7462,3.7965,3.8768,3.9196,3.9575,4.0107,3.988,4.0134,4.1219,4.1269,4.2181,4.421,4.4794,4.5779,4.7266,4.7309,4.7309,4.7309,4.7309,4.7309,4.7309,4.7309,4.7309,4.7309,4.7309,4.7309,4.7309,4.7309,4.7309,4.7309,4.7309,4.7309,4.7309,4.7309,4.7309,4.7309,4.7309,4.7309,4.7309,0.0,0.0,0.0,2.6499,2.6499,2.6499,2.6499,2.6499,2.6499,2.6499,2.6499,2.6499,2.6499,2.6499,2.6499,2.6499,2.6499,2.6499,2.6499,2.6499,2.6675,2.7077,2.7228,2.7645,2.8448,2.8737,2.9289,3.0116,3.0457,3.1182,3.2332,3.2489,3.3337,3.4724,3.5048,3.5552,3.6199,3.658,3.6325,3.5712,3.5803,3.5515,3.51,3.51,3.51,3.5001,3.4245,3.4094,0.0,3.4711,3.5267,3.6041,3.7361,3.7589,3.7291,3.7049,3.62,3.5332,3.5332,3.4815,3.4455,3.5401,3.5156,3.4977,3.5931,3.6304,3.6405,3.6405,3.6405,3.6405,3.6405,3.6405,3.6405,3.6405,3.6531,3.6832,3.7337,3.7889,3.8467,3.9019,3.9446,3.9697,3.9697,3.9697,3.9697,3.9697,4.0032,4.1019,4.2882,4.3313,4.4489,4.6726,4.677,4.6931,4.7309,4.7309,4.7309,4.7309,4.7309,4.7309,4.7309,4.7309,4.7309,4.7309,4.7309,4.7309,4.7309,4.7309,4.7309,4.7309,4.7309,4.7309,4.7309,4.7309,4.7309,4.7309,0.0,0.0,0.0,0.0,2.6499,2.6499,2.6499,2.6499,2.6499,2.6499,2.6499,2.6499,2.6499,2.6499,2.6499,2.6499,2.6499,2.6499,2.6499,2.6499,2.6499,2.6524,2.7027,2.7329,2.7344,2.8373,2.8913,2.8938,3.008,3.0608,3.0673,3.1201,3.1468,3.159,3.262,3.3091,3.3221,3.4538,3.4541,3.3704,3.399,3.4075,3.4075,3.4075,3.4075,3.4013,3.4013,0.0,3.4832,3.4529,3.4841,3.5411,3.6069,3.6263,3.6053,3.5102,3.4037,3.3197,3.3197,3.3154,3.3305,3.3815,3.4324,3.4831,3.5382,3.5981,3.6405,3.6405,3.6405,3.6405,3.6405,3.6405,3.6405,3.6405,3.6857,3.7337,3.7914,3.8492,3.9044,3.9597,3.9697,3.9697,0.0,3.9697,3.9697,3.9697,4.0844,4.1591,4.164,4.2834,4.4116,4.5389,4.5434,4.6077,4.7309,4.7309,4.7309,4.7309,4.7309,4.7309,4.7309,4.7309,4.7309,4.7309,4.7309,4.7309,4.7309,4.7309,4.7309,4.7309,4.7309,4.7309,4.7309,4.7309,4.7309,4.7309,0.0,0.0,0.0,0.0,0.0,2.6499,2.6499,2.6499,2.6499,2.6499,2.6499,0.0,0.0,0.0,0.0,0.0,2.6499,2.6499,2.6499,2.6499,2.6499,2.6499,2.6675,2.6952,2.7268,2.7645,2.8197,2.8888,2.9264,2.9704,3.008,3.0256,3.0673,3.1279,3.166,3.2123,3.2763,3.3223,3.3218,3.2969,3.303,3.3463,3.391,3.3325,3.3463,3.3899,0.0,0.0,3.3023,3.3353,3.3829,3.4538,3.5821,3.5734,3.502,3.3953,3.3386,3.3111,3.3111,3.3345,3.3746,3.4299,3.4806,3.5357,3.5956,3.6279,3.6405,3.6405,3.6405,3.6405,3.6405,3.6405,3.6405,3.6405,3.6883,3.7387,3.7939,3.8517,3.9069,3.9622,3.9697,0.0,0.0,0.0,0.0,3.9697,4.0083,4.0693,4.1541,4.2786,4.4069,4.5343,4.6211,4.6887,4.7309,4.7309,4.7309,4.7309,4.7758,4.8177,4.864,4.864,4.864,4.864,4.864,4.8356,4.7967,4.7967,4.7698,4.7309,4.7309,4.7309,4.7309,4.7309,4.7309,4.7309,0.0,0.0,0.0,0.0,0.0,0.0,0.0,0.0,0.0,0.0,0.0,0.0,0.0,0.0,0.0,0.0,0.0,2.6499,2.6499,2.6499,2.6499,2.6499,2.6499,2.665,2.7027,2.7193,2.772,2.8587,2.8787,2.9227,2.9804,2.9804,3.0101,3.0696,3.0696,3.1007,3.1609,3.1974,3.1901,3.1609,3.1947,3.2451,3.2912,3.2307,3.2451,0.0,0.0,3.1927,3.1876,3.2512,3.3083,3.3725,3.4764,3.465,3.3995,3.3326,3.3111,3.3111,3.3111,3.347,3.4022,3.4575,3.5082,3.5633,3.6279,3.6405,3.6405,3.6405,3.6405,3.6405,3.6405,3.6405,3.6405,3.6405,3.6985,3.7613,3.7965,3.8668,3.9295,3.9647,3.9697,3.9697,0.0,0.0,0.0,3.9697,3.9697,4.0083,4.0895,4.169,4.293,4.4674,4.5553,4.6388,4.7309,4.7549,4.7788,4.8027,4.8446,4.8865,4.9299,4.9299,4.9299,4.9299,4.9299,4.906,4.8626,4.8626,4.8237,4.7668,4.7668,4.7519,4.7309,4.7309,4.7309,4.7309,0.0,0.0,0.0,0.0,0.0,0.0,0.0,0.0,0.0,0.0,0.0,0.0,0.0,0.0,0.0,0.0,0.0,0.0,2.6499,2.6499,2.6499,2.6499,2.6499,2.6499,2.6499,2.7027,2.7544,2.8097,2.8612,2.9227,2.9804,2.9804,2.9804,2.9804,2.9804,2.9804,2.9856,3.0771,3.062,2.9856,3.0771,3.1156,3.1167,3.1156,0.0,0.0,0.0,3.1719,3.1461,3.2014,3.2591,3.3111,3.3111,3.3111,3.3111,3.3111,3.3111,3.3111,3.3111,3.3495,3.4073,3.46,3.5107,3.5683,3.6279,3.6405,3.6405,3.6405,3.6405,3.6405,0.0,0.0,3.6405,3.6405,3.7287,3.8015,3.8015,3.8969,3.9697,0.0,0.0,0.0,0.0,0.0,0.0,3.9697,0.0,3.9749,3.98,3.9826,4.1019,4.3504,4.3646,4.4886,4.7296,4.7997,4.87,4.9359,4.9359,4.9389,4.9419,4.9419,4.9419,4.9419,4.9419,4.9389,4.9359,4.9359,4.8925,4.8327,4.8297,4.7908,4.7369,4.7309,4.7309,4.7309,0.0,0.0,0.0,0.0,0.0,0.0,0.0,0.0,0.0,0.0,0.0,0.0,0.0,0.0,0.0,0.0,0.0,0.0,2.6499,2.6499,2.6499,2.6499,2.6499,2.6499,2.6499,2.7027,2.7544,2.8097,2.8612,2.9227,2.9804,2.9804,2.9804,2.9804,2.9804,2.9804,2.9818,3.0088,3.0011,2.9818,0.0,3.0582,3.1093,0.0,0.0,0.0,3.1458,3.1504,3.1461,3.2014,3.2591,3.3111,3.3111,3.3111,3.3111,3.3111,3.3111,3.3111,3.3111,3.3771,3.455,3.47,3.5454,3.6182,3.638,3.6405,3.6405,3.6405,3.6405,3.6405,3.6405,3.6405,0.0,3.6405,3.7287,0.0,3.8015,3.8969,0.0,3.9697,3.9697,3.9697,3.9697,3.9697,0.0,0.0,3.9697,4.0134,4.1069,4.2035,4.3266,4.4886,4.5824,4.6875,4.8027,4.8686,4.9344,5.0002,5.0002,5.0242,5.072,5.072,5.072,5.072,5.072,5.0451,5.0002,5.0002,4.9613,4.903,4.8476,4.8177,4.7967,4.7489,4.7309,4.7309,0.0,0.0,0.0,0.0,0.0,0.0,0.0,0.0,0.0,0.0,0.0,0.0,0.0,0.0,0.0,0.0,0.0,0.0,0.0,2.6499,2.6499,2.6499,2.6499,2.6499,2.6499,2.7027,2.7544,2.8097,2.8612,2.9227,2.9804,2.9804,2.9804,2.9804,2.9804,2.9804,2.9804,2.9804,0.0,0.0,0.0,0.0,0.0,0.0,0.0,3.0662,3.1185,3.1712,3.219,3.2491,3.2817,3.3111,3.3111,3.3111,3.3111,3.3111,3.3111,3.3111,3.3111,3.3872,3.468,3.468,3.5554,3.6405,3.6405,3.6405,3.6405,3.6405,3.6405,3.6405,3.6405,3.6405,3.6405,0.0,0.0,0.0,3.7965,3.8768,3.9421,0.0,3.9697,0.0,3.9697,3.9697,3.9697,0.0,3.9697,4.0032,4.0743,4.1985,4.3266,4.4535,4.5779,4.72,4.8716,4.9374,5.0032,5.0614,5.0614,5.0823,5.1229,5.1229,5.1229,5.1229,0.0,5.102,5.0614,5.0614,5.0272,4.9613,4.8985,4.8536,4.8207,4.7549,4.7309,4.7309,0.0,0.0,0.0,0.0,0.0,0.0,0.0,0.0,0.0,0.0,2.6499,0.0,0.0,0.0,0.0,0.0,0.0,0.0,0.0,0.0,0.0,2.6499,2.6499,2.6499,2.6499,2.7102,2.762,2.8097,2.8725,2.9302,2.9804,2.9804,2.9804,2.9804,2.9804,2.9804,2.9804,0.0,0.0,0.0,0.0,0.0,0.0,0.0,0.0,0.0,3.1009,3.2114,3.3111,3.3111,3.3111,3.3111,3.3111,3.3111,3.3111,3.3111,3.3111,3.3111,3.3111,3.3872,3.468,3.468,3.5554,3.6405,3.6405,3.6405,3.6405,3.6405,3.6405,3.6405,3.6405,3.6405,3.6405,3.6405,0.0,3.7387,3.7939,3.8517,3.9069,3.9622,3.9697,3.9697,3.9697,3.9697,3.9697,3.9697,3.9697,3.9826,4.016,4.1269,4.255,4.4087,4.5316,4.703,4.9374,5.0032,5.0614,5.1229,5.1229,5.1229,5.1229,5.1229,5.1229,5.1229,5.1229,5.1229,5.1229,5.1229,5.0853,5.0255,4.9643,4.8985,4.8327,4.7668,4.7369,4.7309,0.0,0.0,0.0,0.0,0.0,0.0,0.0,0.0,0.0,0.0,2.6499,2.6499,0.0,0.0,0.0,0.0,0.0,0.0,0.0,0.0,0.0,0.0,2.6499,2.6499,2.6499,2.7444,2.8021,2.8097,2.9151,2.9704,2.9804,2.9804,2.9804,2.9804,2.9804,2.9804,2.9804,0.0,0.0,0.0,0.0,0.0,0.0,0.0,0.0,0.0,3.1009,3.2114,3.3111,3.3111,3.3111,3.3111,3.3111,3.3111,3.3111,3.3111,3.3111,3.3111,3.3111,3.3872,3.468,3.468,3.5554,3.6405,3.6405,3.6405,3.6405,3.6405,3.6405,3.6405,3.6405,3.6405,3.6405,3.6405,3.6883,3.7387,3.7939,3.8517,3.9069,0.0,3.9697,3.9697,3.9697,3.9697,0.0,0.0,3.9697,4.0592,4.2738,4.3074,4.4481,4.7361,4.8193,4.9103,5.0016,5.0674,5.1063,5.1229,5.1229,5.1229,5.1229,5.1229,5.1229,5.1229,5.1229,0.0,5.1229,5.1229,5.1139,5.0943,5.0285,4.9673,4.906,4.8356,4.7788,4.7309,0.0,0.0,0.0,0.0,0.0,0.0,0.0,2.6499,2.6499,2.6499,2.6499,2.6499,2.6499,2.6499,2.6499,0.0,0.0,0.0,0.0,0.0,0.0,0.0,0.0,0.0,0.0,2.7695,2.8247,2.8524,0.0,2.9804,2.9804,2.9804,2.9804,2.9804,2.9804,2.9804,2.9804,2.9804,2.9804,2.9804,2.9804,2.9804,0.0,0.0,0.0,0.0,0.0,3.2114,3.3111,3.3111,3.3111,3.3111,3.3111,3.3111,3.3111,3.3111,3.3111,3.3111,3.3111,3.3872,3.468,3.468,3.5554,3.6405,3.6405,3.6405,3.6405,3.6405,3.6405,3.6405,3.6405,3.6405,3.6505,3.6782,3.701,3.7487,3.8341,3.8693,3.9069,3.9622,3.9697,3.9697,3.9697,3.9697,3.9697,3.9697,3.9697,4.0211,4.1468,4.2786,4.4678,4.7238,4.8625,4.9583,5.0196,5.0853,5.1229,5.1229,5.1229,5.1229,5.1229,5.1229,5.1229,5.1229,5.1229,5.1229,5.1229,5.1229,5.1229,5.1139,5.0435,4.9853,4.9239,4.8536,4.7878,4.7309,0.0,0.0,0.0,0.0,0.0,0.0,0.0,2.6499,2.6499,2.6499,2.6499,2.6499,2.6499,2.6499,2.6499,0.0,0.0,0.0,0.0,0.0,0.0,0.0,0.0,0.0,0.0,0.0,0.0,2.8888,2.9503,0.0,0.0,0.0,0.0,0.0,2.9804,2.9804,2.9804,2.9804,2.9804,0.0,0.0,2.9804,0.0,0.0,0.0,0.0,0.0,3.2114,3.3111,3.3111,3.3111,3.3111,3.3111,3.3111,3.3111,3.3111,3.3111,3.3111,3.3111,3.3872,3.468,3.468,3.5554,3.6405,3.6405,3.6405,3.6405,3.6405,3.6405,3.6405,3.6405,3.6405,3.6581,3.7086,3.7186,3.7588,3.8768,3.8919,3.9069,3.9622,3.9697,0.0,3.9697,3.9697,0.0,3.9697,3.9697,3.9826,4.0083,4.2279,4.4452,4.6558,4.811,4.9385,5.0405,5.096,5.1229,5.1229,5.1229,5.1229,5.1229,5.1229,5.1229,5.1229,5.1229,5.1229,5.1229,5.1229,5.1229,5.1169,5.0614,4.9972,4.9239,4.8686,4.7997,4.7309,0.0,0.0,0.0,0.0,0.0,0.0,0.0,2.6499,2.6499,2.6499,2.6499,2.6499,2.6499,2.6499,2.6499,0.0,0.0,0.0,0.0,0.0,0.0,0.0,0.0,0.0,0.0,0.0,0.0,2.8888,2.9503,0.0,0.0,0.0,0.0,0.0,0.0,2.9804,2.9804,2.9804,0.0,0.0,0.0,0.0,0.0,0.0,0.0,0.0,0.0,3.2114,3.3111,3.3111,3.3111,3.3111,3.3111,3.3111,3.3111,3.3111,3.3111,3.3111,3.3111,3.3872,3.468,3.468,3.5554,3.6405,3.6405,3.6405,3.6405,3.6405,3.6405,3.6405,3.6405,3.6405,3.6581,3.7086,3.7186,3.7588,3.8768,3.8919,3.9069,3.9622,0.0,0.0,3.9697,3.9697,3.9697,3.9697,3.9697,4.0211,4.1369,4.2738,4.4648,4.7239,4.7496,4.87,5.1063,5.1199,5.1229,5.1229,5.1229,5.1229,5.1229,5.1229,5.1229,5.1229,5.1229,5.1229,0.0,5.1229,5.1229,5.1199,5.1139,5.0361,4.9299,4.9239,4.8386,4.7309,0.0,0.0,0.0,0.0,0.0,0.0,2.6499,2.6499,2.6499,2.6499,2.6499,2.6499,2.6499,2.6499,2.6499,2.6499,0.0,0.0,0.0,0.0,0.0,0.0,0.0,0.0,0.0,0.0,2.9063,2.9453,2.9679,0.0,0.0,0.0,0.0,0.0,0.0,2.9804,2.9804,0.0,0.0,0.0,0.0,0.0,0.0,0.0,0.0,0.0,0.0,0.0,3.3111,3.3111,3.3111,3.3111,3.3111,3.3111,3.3111,3.3111,3.3111,3.3111,3.3111,3.3872,3.468,3.468,3.5554,3.6405,3.6405,3.6405,3.6405,3.6405,3.6405,3.6405,3.6405,3.6405,3.6707,3.7538,0.0,0.0,3.9195,3.9371,3.9446,3.9672,3.9697,0.0,0.0,0.0,3.9697,3.9697,3.9697,3.9929,4.0415,4.2797,4.4753,4.62,4.809,4.9779,5.1199,5.1229,5.1229,5.1229,5.1229,5.1229,5.1229,5.1229,5.1229,5.1229,5.1229,5.1229,0.0,5.1229,5.1229,5.1229,5.1229,5.0661,4.9793,4.9449,4.8686,4.7848,0.0,0.0,0.0,0.0,0.0,2.6499,2.6499,2.6499,2.6499,2.6499,2.6625,2.6751,2.6751,2.6876,2.6977,2.6977,2.6826,0.0,0.0,0.0,0.0,0.0,0.0,0.0,0.0,0.0,2.9377,2.9804,2.9804,2.9804,0.0,0.0,2.9804,2.9804,0.0,0.0,0.0,0.0,0.0,0.0,0.0,0.0,0.0,0.0,0.0,0.0,0.0,0.0,0.0,0.0,0.0,3.3154,3.3471,3.3368,3.3111,3.3111,3.3111,3.3111,3.3111,3.4135,3.5149,3.4816,3.5805,3.6803,3.6499,3.6405,3.6405,3.6405,3.6405,3.6405,3.6405,3.6405,3.6782,0.0,0.0,3.8391,3.9546,3.9697,3.9697,3.9697,0.0,3.9697,0.0,3.9697,3.9697,3.9697,3.9697,3.9697,3.9697,4.2766,4.4837,4.5468,4.8006,4.9961,5.1199,5.1229,5.1229,5.1229,5.1229,5.1229,5.1229,5.1229,5.1229,5.1229,5.1229,5.1229,0.0,5.1229,5.1229,5.1229,5.1229,5.0764,5.0106,4.9494,4.891,4.8177,0.0,0.0,0.0,0.0,0.0,0.0,2.6499,2.6499,2.6499,2.6499,2.6977,2.7268,2.7268,2.777,2.8097,2.8097,2.7595,0.0,0.0,0.0,0.0,0.0,0.0,0.0,0.0,0.0,2.9779,2.9804,2.9804,2.9804,2.9804,2.9804,2.9804,2.9804,0.0,0.0,0.0,0.0,0.0,0.0,0.0,0.0,0.0,0.0,0.0,0.0,0.0,0.0,0.0,0.0,0.0,0.0,0.0,3.3953,3.3111,3.3111,3.3111,3.3111,3.3111,3.4736,3.6175,3.5015,3.6393,3.7815,3.6662,3.6405,3.6405,3.6405,3.6405,3.6405,3.6405,3.6405,3.6782,3.7839,0.0,0.0,3.9546,3.9697,3.9697,0.0,0.0,3.9697,3.9697,3.9697,3.9697,3.9697,3.9697,0.0,3.9697,4.2766,4.4837,4.5468,4.6737,4.8635,5.1152,5.1229,5.1229,5.1229,5.1229,5.1229,5.1229,5.1229,5.1229,5.1229,5.1229,5.1229,0.0,5.1229,5.1229,5.1229,5.1229,5.0764,5.0106,4.9494,4.891,4.8177,0.0,0.0,0.0,0.0,0.0,0.0,0.0,2.7595,2.7595,2.7595,2.7745,2.7846,2.7846,2.7996,2.8097,2.8097,2.7946,0.0,0.0,0.0,0.0,0.0,0.0,0.0,0.0,2.9704,2.9804,2.9804,2.9804,2.9804,2.9804,2.9804,2.9804,2.9804,2.9804,2.9804,0.0,0.0,0.0,0.0,0.0,0.0,0.0,0.0,0.0,0.0,0.0,0.0,0.0,0.0,0.0,0.0,0.0,0.0,0.0,3.3995,3.4204,3.4037,3.3326,3.4693,3.6088,3.497,3.5851,3.6849,3.6499,3.6405,3.6405,3.6405,3.6405,3.6405,3.6405,3.6405,3.6782,3.7839,3.8015,0.0,0.0,0.0,0.0,3.9697,3.9697,3.9697,0.0,0.0,4.0642,3.98,4.0516,4.0969,4.0969,4.2782,4.4346,4.5468,4.8006,4.9931,5.1199,5.1229,5.1229,5.1229,5.1229,5.1229,5.1229,5.1229,5.1229,5.1229,5.1229,5.1229,5.1229,5.1229,5.1229,5.1229,5.1229,5.1079,5.078,4.9673,4.9179,4.8805,0.0,0.0,0.0,0.0,0.0,0.0,0.0,2.8097,2.8097,2.8097,2.8298,2.8423,2.8423,2.8624,2.875,2.875,2.875,0.0,0.0,0.0,0.0,0.0,0.0,0.0,2.9804,2.9804,2.9804,2.9804,2.9804,2.9804,2.9804,2.9804,2.9804,2.9804,2.9804,2.9804,0.0,0.0,0.0,0.0,0.0,0.0,2.9854,0.0,0.0,0.0,0.0,0.0,0.0,0.0,0.0,0.0,0.0,0.0,0.0,0.0,3.5561,3.5061,3.3995,3.5309,3.6608,3.5105,3.5897,3.6943,3.6499,3.6405,3.6405,3.6405,3.6405,3.6405,3.6405,3.6405,3.6782,3.7839,3.8015,3.8391,0.0,0.0,0.0,3.9697,0.0,0.0,0.0,4.0415,4.0541,3.9749,4.0415,4.1069,4.1541,4.2786,4.4232,4.5814,4.8424,5.0301,5.1199,5.1229,5.1229,5.1229,5.1229,5.1229,5.1229,5.1229,5.1229,5.1229,5.1229,5.1229,0.0,5.1229,5.1229,5.1229,5.1229,5.1229,5.1079,5.0032,4.9643,4.9494,0.0,0.0,0.0,0.0,0.0,0.0,0.0,2.8222,2.8222,2.8222,2.8674,2.8938,2.8938,2.9478,2.9804,2.9804,0.0,0.0,0.0,0.0,0.0,0.0,0.0,0.0,2.9804,2.9804,2.9804,2.9804,2.9804,2.9804,2.9804,2.9804,2.9804,2.9804,2.9804,2.9804,2.9804,2.9804,2.9804,2.9804,2.9804,2.9843,0.0,0.0,0.0,0.0,0.0,0.0,0.0,0.0,0.0,0.0,0.0,0.0,0.0,0.0,0.0,0.0,0.0,3.651,3.7588,3.548,3.6483,3.7723,3.6756,3.6452,0.0,3.6405,3.6405,3.6405,3.6405,3.6405,3.6782,3.7839,3.8015,3.8391,0.0,3.9697,0.0,0.0,3.9697,0.0,3.9697,3.9826,3.9878,3.9697,3.9929,4.0592,4.169,4.293,4.4537,4.6478,4.8295,4.9823,5.1139,5.1199,5.1229,5.1229,5.1229,5.1229,5.1229,5.1229,5.1229,0.0,5.1229,5.1229,5.1229,5.1229,5.1229,5.1229,5.1229,5.1229,5.1139,5.0435,5.0196,5.0106,0.0,0.0,0.0,0.0,0.0,0.0,0.0,0.0,0.0,0.0,2.9503,2.9578,2.9578,2.9704,2.9804,0.0,0.0,0.0,0.0,0.0,0.0,0.0,0.0,0.0,2.9804,2.9804,2.9804,2.9804,2.9804,2.9804,2.9804,2.9804,2.9804,2.9804,2.9804,2.9804,2.9804,2.9804,2.9804,2.9804,2.9804,3.0548,0.0,0.0,0.0,0.0,3.5167,3.5678,0.0,0.0,0.0,0.0,0.0,0.0,0.0,0.0,3.7625,3.7481,3.777,0.0,3.7854,3.7365,3.7041,3.6989,0.0,3.701,3.6405,3.6405,3.6405,3.6405,3.6405,3.6405,3.6782,3.7839,3.8015,3.8391,3.9546,3.9697,0.0,3.9697,3.9697,3.9697,3.9697,4.1468,4.1789,3.9826,4.2398,4.3787,4.3074,4.4256,4.5842,4.7763,4.8283,4.9134,5.0405,5.096,5.1229,5.1229,5.1229,5.1229,5.1229,5.1229,5.1229,5.1229,5.1229,5.1229,5.1229,5.1229,5.1229,5.1229,5.1229,5.1229,5.1139,5.0435,5.0196,5.0106,0.0,0.0,0.0,0.0,0.0,0.0,0.0,0.0,0.0,0.0,0.0,2.9804,2.9804,2.9804,0.0,0.0,0.0,0.0,0.0,0.0,0.0,0.0,0.0,2.9804,2.9804,2.9804,2.9804,2.9804,2.9804,2.9804,2.9804,2.9804,2.9804,2.9804,2.9804,2.9804,2.9804,2.9804,2.9804,2.9804,3.0055,0.0,0.0,0.0,0.0,0.0,3.6186,3.6838,0.0,3.7098,3.7252,3.7701,0.0,0.0,0.0,0.0,3.8182,3.8034,3.9194,3.9108,3.8654,3.8491,3.8216,3.8179,3.8783,3.8043,3.7335,3.7906,3.715,3.6546,3.7057,3.6756,3.6782,3.7839,3.8015,3.8391,0.0,0.0,3.9697,3.9697,3.9697,3.9929,0.0,4.1838,4.2301,4.1518,4.3361,4.4489,4.4396,4.5024,4.6133,4.7774,4.8117,4.8925,5.0196,5.0554,5.0883,5.1229,5.1229,5.1229,5.1229,5.1229,5.1229,5.1229,5.1229,5.1229,5.1229,5.1229,5.1229,5.1229,5.1229,5.1229,5.1169,5.0764,5.0644,5.0584,0.0,0.0,0.0,0.0,0.0,0.0,0.0,0.0,0.0,0.0,0.0,0.0,0.0,0.0,0.0,0.0,0.0,0.0,0.0,0.0,0.0,0.0,2.9804,2.9804,2.9804,2.9804,2.9804,2.9804,2.9804,2.9804,2.9804,2.9804,2.9804,2.9804,2.9804,2.9804,2.9804,2.9804,2.9854,2.9955,3.0432,0.0,0.0,0.0,0.0,0.0,0.0,0.0,0.0,3.836,3.8657,3.9373,3.9373,0.0,0.0,0.0,0.0,0.0,4.0115,4.0224,3.9819,3.9562,3.9743,3.9956,4.0102,3.9094,3.8424,3.9623,3.8043,3.6803,3.8107,3.7289,3.6852,3.8326,0.0,0.0,3.9598,3.9878,3.9981,3.9981,3.9981,0.0,4.1789,4.1887,4.235,4.3409,4.3882,4.4442,4.5343,4.5598,4.6166,4.7266,4.7848,4.8716,4.9897,5.0076,5.0465,5.1079,5.1169,5.1229,5.1229,5.1229,5.1229,5.1229,5.1229,0.0,5.1229,5.1229,5.1229,5.1229,5.1229,5.1229,5.1229,5.1229,5.1229,5.1229,0.0,0.0,0.0,0.0,0.0,0.0,0.0,0.0,0.0,0.0,0.0,0.0,0.0,0.0,0.0,0.0,0.0,0.0,0.0,0.0,0.0,2.9804,2.9804,2.9804,2.9804,2.9804,2.9804,2.9804,2.9804,2.9804,2.9804,2.9804,2.9804,2.9804,2.9804,2.9804,2.9804,2.9804,3.0055,3.0507,3.0583,0.0,0.0,0.0,0.0,0.0,0.0,0.0,0.0,3.9228,3.9265,3.9373,3.9373,0.0,0.0,0.0,0.0,0.0,4.0868,4.1181,4.1237,4.1774,4.0879,4.0145,4.1127,3.9683,3.8424,3.9623,3.8043,3.7083,3.9227,3.7861,3.7441,4.0646,0.0,4.0737,0.0,0.0,4.1319,4.1319,0.0,4.1789,4.3074,4.3218,4.3313,4.3504,4.5508,4.6344,4.5434,4.6388,4.7106,4.7309,4.7399,4.7818,4.8566,4.9628,5.0255,5.0345,5.096,5.1229,5.1229,5.1229,5.1229,5.1229,0.0,5.1229,5.1229,5.1229,5.1229,5.1229,5.1229,5.1229,5.1229,5.1229,5.1229,5.1229,0.0,0.0,0.0,0.0,0.0,0.0,0.0,0.0,0.0,0.0,0.0,0.0,0.0,0.0,0.0,0.0,0.0,0.0,0.0,0.0,2.9804,2.9804,2.9804,2.9804,2.9804,2.9804,2.9804,2.9804,2.9804,2.9804,2.9804,2.9804,2.9804,2.9804,2.9804,2.9955,3.0231,3.0231,3.0557,3.11,0.0,0.0,0.0,0.0,0.0,0.0,0.0,0.0,0.0,0.0,3.9373,3.9373,3.9373,0.0,0.0,0.0,0.0,0.0,4.1025,4.1422,4.1624,4.2641,4.2302,4.1864,4.2386,4.1211,4.0333,4.1491,3.9929,3.8827,4.0532,0.0,3.7837,3.9428,0.0,4.1542,3.993,4.1419,4.2133,0.0,0.0,4.2882,4.3456,4.4116,4.484,4.5508,4.6638,4.7019,4.6462,4.6975,4.7309,4.7309,4.7309,4.7459,4.7758,4.8716,4.9374,4.9733,5.0361,5.0644,5.0644,5.1003,5.1229,5.1229,0.0,5.1229,5.1229,5.1229,5.1229,5.1229,5.1229,5.1229,5.1229,5.1229,5.1229,5.1229,0.0,0.0,0.0,0.0,0.0,0.0,0.0,0.0,0.0,0.0,0.0,0.0,0.0,0.0,0.0,0.0,0.0,0.0,0.0,2.9804,2.9804,2.9804,2.9804,2.9804,2.9804,2.9804,2.9804,2.9804,2.9804,2.9804,2.9804,2.9804,2.9854,2.998,2.998,3.0281,3.0809,3.0809,3.111,3.1694,0.0,0.0,0.0,0.0,0.0,0.0,0.0,0.0,0.0,0.0,0.0,0.0,0.0,0.0,0.0,3.9373,3.9493,3.9888,4.1055,4.1542,4.1893,4.3021,4.329,4.329,4.329,4.2426,4.1947,4.3061,4.1491,4.0318,0.0,4.0659,0.0,3.8955,4.118,4.2391,4.0817,4.2544,4.3218,4.1269,4.2738,4.4069,4.4349,4.5024,4.5913,4.7222,4.7309,4.7309,4.7309,4.7309,4.7309,4.7309,4.7309,4.7309,4.7309,4.7818,4.8386,4.909,4.9703,5.0002,5.0032,5.0541,5.084,5.099,5.099,5.1079,5.1229,5.1229,5.1229,5.1229,5.1229,5.1229,5.1229,5.1229,5.1229,5.1229,0.0,0.0,0.0,0.0,0.0,0.0,0.0,0.0,0.0,0.0,0.0,0.0,0.0,0.0,0.0,0.0,0.0,0.0,0.0,2.9804,2.9804,2.9804,2.9804,2.9804,2.9804,2.9804,2.9804,2.9804,2.9804,2.9804,2.9804,2.9804,3.0055,3.0557,3.0557,3.0859,3.1336,3.1336,3.1662,3.2164,3.2273,0.0,0.0,0.0,0.0,0.0,0.0,0.0,0.0,0.0,0.0,0.0,0.0,0.0,3.9373,3.9373,3.9858,4.0487,4.1175,4.1871,4.25,4.311,4.329,4.329,4.329,4.2426,4.1947,4.3061,4.1491,4.0575,4.278,4.3567,4.3303,4.1734,4.3026,4.4038,4.3326,0.0,4.5207,4.5024,4.5161,4.5734,4.6931,4.6032,4.5913,4.7222,4.7309,4.7309,4.7309,4.7309,4.7309,4.7309,4.7309,4.7309,4.7309,4.7369,4.7698,4.8356,4.906,4.9389,4.9389,4.9419,4.9733,5.0255,5.0255,5.0614,5.1229,5.1229,5.1229,5.1229,5.1229,5.1229,5.1229,5.1229,5.1229,5.1229,0.0,0.0,0.0,0.0,0.0,0.0,0.0,0.0,0.0,0.0,0.0,0.0,0.0,0.0,0.0,0.0,0.0,0.0,0.0,2.9804,2.9804,2.9804,2.9804,2.9804,2.9804,2.9804,2.9804,2.9804,2.9804,2.9804,2.9804,3.0156,3.0407,3.0633,3.0959,3.1411,3.1913,3.1913,3.224,3.2827,3.3492,3.448,0.0,0.0,0.0,0.0,0.0,0.0,0.0,0.0,3.9373,3.9373,3.9373,3.9373,3.9373,3.9373,3.9888,4.0546,4.1205,4.1901,4.256,4.314,4.329,4.329,4.329,4.2981,4.278,4.321,4.2618,4.2029,4.2193,0.0,4.3213,4.1903,4.3514,4.4632,4.3648,4.5252,4.5958,4.4396,4.5644,4.6462,4.6166,4.6388,4.677,4.7266,4.7309,4.7309,4.7309,4.7309,4.7309,4.7309,4.7309,4.7309,4.7309,4.7309,4.7429,4.7698,4.8356,4.87,4.87,4.912,4.9449,4.9643,4.9643,5.0002,5.0554,5.0554,5.0794,5.1229,5.1229,5.1229,5.1229,5.1229,5.1229,5.1229,0.0,0.0,0.0,0.0,0.0,0.0,0.0,0.0,0.0,0.0,0.0,0.0,0.0,0.0,0.0,0.0,0.0,0.0,2.9804,2.9804,2.9804,2.9804,2.9804,2.9804,2.9804,2.9804,2.9804,2.9804,2.9955,3.0055,3.0055,3.0608,3.0959,3.1135,3.1486,3.1964,3.2491,3.2491,3.2717,3.3154,3.3911,3.4609,0.0,0.0,0.0,0.0,0.0,0.0,0.0,0.0,3.9373,3.9373,3.9373,3.9373,3.9469,3.9679,4.0187,4.0846,4.1504,4.2201,4.2761,4.32,4.329,4.329,4.329,4.329,4.329,4.329,4.329,4.3061,4.2275,0.0,0.0,0.0,4.4206,4.5175,4.4733,4.6211,4.6638,4.4932,4.6255,4.6975,4.6077,4.677,4.7309,4.7309,4.7309,4.7309,4.7309,4.7309,4.7309,4.7309,4.7309,4.7309,4.7309,4.7309,4.7309,4.7309,4.7758,4.7967,4.7997,4.8446,4.8745,4.9,4.9,4.9434,5.0196,5.0196,5.0584,5.1229,5.1229,5.1229,5.1229,5.1229,5.1229,5.1229,0.0,0.0,0.0,0.0,0.0,0.0,0.0,0.0,2.9804,2.9804,2.9804,0.0,0.0,0.0,0.0,0.0,0.0,0.0,2.9804,2.9804,2.9804,2.9804,2.9804,2.9804,2.9804,2.9804,2.9804,2.9804,3.0357,3.0633,3.0633,3.116,3.1687,3.2215,3.2215,3.2541,3.3111,3.3111,3.3111,3.3111,3.3111,3.3111,3.3343,0.0,0.0,0.0,0.0,0.0,0.0,0.0,3.9373,3.9373,3.9373,3.9373,3.9559,4.0217,4.0876,4.1572,4.2231,4.2851,4.329,4.329,4.329,4.329,4.329,4.329,4.329,4.329,4.329,4.329,4.329,4.329,0.0,4.5095,4.5304,4.5753,4.713,4.7309,4.7309,4.7309,4.7309,4.7309,4.7309,4.7309,4.7309,4.7309,4.7309,4.7309,4.7309,4.7309,4.7309,4.7309,4.7309,4.7309,4.7309,4.7309,4.7309,4.7309,4.7309,4.7309,4.7309,4.7309,4.7668,4.8267,4.8267,4.9015,5.0196,5.0196,5.0584,5.1229,5.1229,5.1229,5.1229,5.1229,5.1229,5.1229,0.0,0.0,0.0,0.0,0.0,0.0,0.0,0.0,2.9804,2.9804,2.9804,0.0,0.0,0.0,0.0,0.0,0.0,0.0,2.9804,2.9804,2.9804,2.9804,2.9804,2.998,3.0357,3.0733,3.0733,3.0357,3.0909,3.116,3.116,3.1712,3.2064,3.224,3.2641,3.2918,3.3111,3.3111,3.3111,3.3111,3.3111,3.3556,3.4262,0.0,0.0,0.0,0.0,0.0,0.0,0.0,0.0,0.0,3.9373,3.9738,4.0157,4.0337,4.1205,4.2141,4.2351,4.2851,4.329,4.329,4.329,4.329,4.329,4.329,4.329,4.329,4.329,4.329,4.329,4.329,0.0,4.5095,4.5304,4.5753,4.713,4.7309,4.7309,4.7309,4.7309,4.7309,4.7309,4.7309,4.7309,4.7309,4.7309,4.7309,4.7309,4.7309,4.7309,4.7309,4.7309,4.7309,4.7309,4.7309,4.7309,4.7309,4.7309,4.7309,4.7309,4.7309,4.7429,4.7608,4.7608,4.8356,4.9643,5.0541,5.1003,5.1229,5.1229,5.1229,5.1229,5.1229,5.1229,5.1229,0.0,0.0,0.0,0.0,0.0,0.0,0.0,0.0,2.9804,2.9804,2.9804,2.9804,0.0,0.0,0.0,0.0,0.0,0.0,2.9804,2.9804,2.9905,3.0105,3.0131,3.0382,3.0909,3.1436,3.1562,3.126,3.1562,3.1712,3.1738,3.229,3.2566,3.2566,3.2918,3.3111,3.3111,3.3111,3.3111,3.3111,3.3111,3.3471,3.4121,0.0,0.0,0.0,0.0,0.0,0.0,0.0,0.0,0.0,3.9738,4.0068,4.0487,4.1025,4.1782,4.244,4.2671,4.303,4.329,4.329,4.329,4.329,4.329,4.329,4.329,4.329,4.329,4.329,4.329,4.329,0.0,4.5095,4.5304,4.5753,4.713,4.7309,4.7309,4.7309,4.7309,4.7309,4.7309,4.7309,4.7309,4.7309,4.7309,4.7309,4.7309,4.7309,4.7309,4.7309,4.7309,4.7309,4.7309,4.7309,4.7309,4.7309,4.7309,4.7309,4.7309,4.7309,4.7309,4.7339,4.7848,4.8536,4.9419,5.069,5.1229,5.1229,5.1229,5.1229,5.1229,5.1229,5.1229,5.1229,0.0,0.0,2.9804,2.9804,0.0,0.0,0.0,0.0,2.9804,2.9804,2.9804,2.9804,0.0,0.0,0.0,0.0,0.0,0.0,0.0,2.9854,3.008,3.0583,3.0708,3.0984,3.1461,3.2014,3.229,3.229,3.229,3.229,3.229,3.2817,3.3111,3.3111,3.3111,3.3111,3.3111,3.3111,3.3111,3.3111,3.3111,3.3111,3.3197,3.4204,0.0,0.0,0.0,0.0,0.0,0.0,0.0,0.0,4.0077,4.0412,4.0816,4.2051,4.244,4.262,4.314,4.329,4.329,4.329,4.329,4.329,4.329,4.329,4.329,4.329,0.0,4.329,4.329,4.329,4.3738,4.5095,4.5304,4.5753,4.713,4.7309,4.7309,4.7309,4.7309,4.7309,4.7309,4.7309,4.7309,4.7309,4.7309,4.7309,4.7309,4.7309,4.7309,4.7309,4.7309,4.7309,4.7309,4.7309,4.7309,4.7309,4.7309,4.7309,4.7309,4.7309,4.7309,4.7369,4.873,4.9299,4.9419,5.069,5.1229,5.1229,5.1229,5.1229,5.1229,5.1229,5.1229,5.1229,0.0,0.0,2.9804,2.9804,0.0,0.0,0.0,0.0,0.0,2.9804,0.0,0.0,0.0,0.0,0.0,0.0,0.0,0.0,0.0,3.0206,3.0482,3.0608,3.1411,3.1913,3.2039,3.2591,3.2893,3.2893,3.2893,3.2893,3.2893,3.3061,3.3111,3.3111,3.3111,3.3111,3.3111,3.3111,3.3111,3.3111,3.3111,3.3111,3.3111,3.3368,3.3953,0.0,0.0,0.0,0.0,0.0,0.0,0.0,3.9379,4.0448,4.2021,4.2321,4.2731,4.315,4.326,4.329,4.329,4.329,4.329,4.329,4.329,4.329,4.329,4.329,4.329,4.329,4.329,4.329,4.3738,4.5095,4.5304,4.5753,4.713,4.7309,4.7309,4.7309,4.7309,4.7309,4.7309,4.7309,4.7309,4.7309,4.7309,4.7309,4.7309,4.7309,4.7309,4.7309,4.7309,4.7309,4.7309,4.7309,4.7309,4.7309,4.7309,4.7309,4.7309,4.7309,4.7309,4.7369,4.873,4.9299,4.9419,5.069,5.1229,5.1229,5.1229,5.1229,5.1229,5.1229,5.1229,5.1229,0.0,0.0,0.0,0.0,0.0,0.0,0.0,0.0,0.0,0.0,0.0,0.0,0.0,0.0,0.0,0.0,3.003,0.0,0.0,0.0,3.111,3.1361,3.219,3.2616,3.2616,3.2918,3.3111,3.3111,3.3111,3.3111,3.3111,3.3111,3.3111,3.3111,3.3111,3.3111,3.3111,3.3111,3.3111,3.3111,3.3111,3.3111,3.3111,3.3111,3.3428,3.3911,3.3911,0.0,0.0,0.0,0.0,0.0,0.0,0.0,4.247,4.2731,4.306,4.329,4.329,4.329,4.329,4.329,4.329,4.329,4.329,4.329,4.329,4.329,4.329,4.329,4.329,4.329,4.3738,4.5095,4.5304,4.5753,4.713,4.7309,4.7309,4.7309,4.7309,4.7309,4.7309,4.7309,4.7309,4.7309,4.7309,4.7309,4.7309,4.7309,4.7309,4.7309,4.7309,4.7309,4.7309,4.7309,4.7309,4.7309,4.7309,4.7309,4.7309,4.7309,4.7309,4.7369,4.873,4.9299,4.9419,5.069,5.1229,5.1229,5.1229,5.1229,5.1229,5.1229,5.1229,5.1229,0.0,0.0,0.0,0.0,0.0,0.0,0.0,0.0,0.0,0.0,0.0,0.0,0.0,0.0,2.9829,0.0,0.0,0.0,0.0,0.0,0.0,3.234,3.2817,3.3111,3.3111,3.3111,3.3111,3.3111,3.3111,3.3111,3.3111,3.3111,3.3111,3.3111,3.3111,3.3111,3.3111,3.3111,3.3111,3.3111,3.3111,3.3111,3.3111,3.3111,3.3111,3.3093,3.3194,3.3938,3.4914,3.5241,0.0,0.0,0.0,0.0,4.2376,4.2872,4.317,4.325,4.3061,4.317,4.329,4.329,4.329,4.329,4.329,4.329,4.329,4.329,4.329,4.329,4.329,4.329,4.3738,4.5095,4.5304,4.5753,4.713,4.7309,4.7309,4.7309,4.7309,4.7309,4.7309,4.7309,4.7309,4.7309,4.7309,4.7309,4.7309,4.7309,4.7309,4.7309,4.7309,4.7309,4.7309,4.7309,4.7309,4.7309,4.7309,4.7309,4.7309,4.7309,4.7309,4.7369,4.873,4.9299,4.9419,5.069,5.1229,5.1229,5.1229,5.1229,5.1229,5.1229,5.1229,5.1229,0.0,0.0,0.0,0.0,0.0,0.0,0.0,0.0,0.0,0.0,2.9804,2.9804,0.0,0.0,0.0,3.0457,3.0583,3.0809,3.126,0.0,0.0,3.2943,3.3086,3.3111,3.3111,3.3111,3.3111,3.3111,3.3111,3.3111,3.3111,3.3111,3.3111,3.3111,3.3111,3.3111,3.3111,3.3111,3.3111,3.3111,3.3111,3.3111,3.3111,3.3111,3.3111,3.3144,3.3621,3.4486,3.5325,3.4933,3.6603,0.0,0.0,0.0,4.1749,4.1794,4.2548,4.3061,4.2111,4.2548,4.329,4.329,4.329,4.329,4.329,0.0,4.329,0.0,4.329,4.329,4.329,4.329,4.3738,4.5095,4.5304,4.5753,4.713,4.7309,4.7309,4.7309,4.7309,4.7309,4.7309,4.7309,4.7309,4.7309,4.7309,4.7309,4.7309,4.7309,4.7309,4.7309,4.7309,4.7309,4.7309,4.7309,4.7309,4.7309,4.7309,4.7309,4.7309,4.7309,4.7309,4.7369,4.873,4.9299,4.9419,5.069,5.1229,5.1229,5.1229,5.1229,5.1229,5.1229,5.1229,5.1229,0.0,0.0,0.0,0.0,0.0,0.0,0.0,0.0,0.0,0.0,0.0,2.9804,0.0,0.0,0.0,3.0583,3.116,3.1738,3.229,3.2566,3.2817,3.3111,3.3111,3.3111,3.3111,3.3111,3.3111,3.3111,3.3111,3.3111,3.3111,3.3111,3.3111,3.3111,3.3111,3.3111,3.3111,3.3111,3.3111,3.3111,3.3111,3.3111,3.3119,3.342,3.3545,3.3621,3.4173,3.466,3.5065,3.5113,3.6411,3.8081,3.8405,0.0,0.0,0.0,4.1947,4.2386,4.2508,4.29,4.329,4.329,4.329,4.329,4.329,4.329,4.329,4.329,4.329,4.329,4.329,4.329,4.3738,4.5095,4.5304,4.5753,4.713,4.7309,4.7309,4.7309,4.7309,4.7309,4.7309,4.7309,4.7309,4.7309,4.7309,4.7309,4.7309,4.7309,4.7309,4.7309,4.7309,4.7309,4.7309,4.7309,4.7309,4.7309,4.7309,4.7309,4.7309,4.7309,4.7309,4.7369,4.873,4.9299,4.9419,5.069,5.1229,5.1229,5.1229,5.1229,5.1229,5.1229,5.1229,5.1229,0.0,0.0,0.0,0.0,0.0,0.0,0.0,0.0,0.0,0.0,0.0,0.0,0.0,0.0,0.0,0.0,3.1763,3.2466,3.3043,3.3111,3.3111,3.3111,3.3111,3.3111,3.3111,3.3111,3.3111,3.3111,3.3111,3.3111,3.3111,3.3111,3.3111,3.3111,3.3111,3.3111,3.3111,3.3111,3.3111,3.3111,3.3111,3.3169,3.3345,3.3746,3.3997,3.4173,3.4726,3.4881,3.4981,3.5533,3.6305,3.7194,3.7885,3.8738,0.0,0.0,0.0,4.1864,4.2981,4.329,4.329,4.329,4.329,4.329,0.0,0.0,4.329,0.0,4.329,4.329,4.329,4.329,4.3738,4.5095,4.5304,4.5753,4.713,4.7309,4.7309,4.7309,4.7309,4.7309,4.7309,4.7309,4.7309,4.7309,4.7309,4.7309,4.7309,4.7309,4.7309,4.7309,4.7309,4.7309,4.7309,4.7309,4.7309,4.7309,4.7309,4.7309,4.7309,4.7309,4.7309,4.7369,4.873,4.9299,4.9419,5.069,5.1229,5.1229,5.1229,5.1229,5.1229,5.1229,5.1229,5.1229,0.0,0.0,0.0,0.0,0.0,0.0,0.0,0.0,0.0,0.0,0.0,0.0,3.0583,3.1035,3.1562,3.2089,3.219,3.2466,3.3043,3.3111,3.3111,3.3111,3.3111,0.0,3.3111,3.3111,3.3111,3.3111,3.3111,3.3111,3.3111,3.3111,3.3111,3.3111,3.3111,3.3111,3.3111,3.3111,3.3111,3.3111,3.3111,3.3395,3.3847,3.3897,3.4223,3.4705,3.5257,3.5458,3.5533,3.6132,3.6402,3.6637,3.7743,3.8153,3.8424,0.0,0.0,0.0,4.2981,4.329,4.329,4.329,4.329,4.329,0.0,0.0,4.329,4.329,4.329,4.329,4.329,4.329,4.3738,4.5095,4.5304,4.5753,4.713,4.7309,4.7309,4.7309,4.7309,4.7309,4.7309,4.7309,4.7309,4.7309,4.7309,4.7309,4.7309,4.7309,4.7309,4.7309,4.7309,4.7309,4.7309,4.7309,4.7309,4.7309,4.7309,4.7309,4.7309,4.7309,4.7309,4.7369,4.873,4.9299,4.9419,5.069,5.1229,5.1229,5.1229,5.1229,5.1229,5.1229,5.1229,5.1229,0.0,0.0,0.0,0.0,0.0,0.0,0.0,0.0,0.0,0.0,0.0,0.0,0.0,3.1587,3.1989,3.219,3.2541,3.2842,3.3111,3.3111,3.3111,3.3111,3.3111,3.3111,3.3111,3.3111,3.3111,3.3111,3.3111,3.3111,3.3111,3.3111,3.3111,3.3111,3.3111,3.3111,3.3111,3.3111,3.3294,3.3596,3.3596,3.3922,3.4474,3.4781,3.5031,3.5282,3.5881,3.6081,3.6107,3.6355,3.6405,3.6452,3.6896,3.701,3.7243,3.8379,4.0118,4.167,4.2111,4.2739,4.329,4.329,4.329,4.329,4.329,4.329,4.329,4.329,4.329,4.329,4.329,4.329,4.3589,4.4526,4.5035,4.5633,4.6531,4.704,4.7309,4.7309,4.7309,4.7309,4.7309,4.7309,4.7309,4.7309,4.7309,4.7309,4.7309,4.7309,4.7309,4.7309,4.7309,4.7309,4.7309,4.7309,4.7309,4.7309,4.7309,4.7309,4.7309,4.7309,4.7309,4.7369,4.873,4.9299,4.9419,5.069,5.1229,5.1229,5.1229,5.1229,5.1229,5.1229,5.1229,5.1229,0.0,0.0,0.0,0.0,0.0,3.008,3.008,3.0206,3.0457,3.0834,0.0,0.0,0.0,0.0,3.2516,3.2516,3.2842,3.3111,3.3111,3.3111,3.3111,3.3111,3.3111,3.3111,3.3111,3.2893,3.2893,3.3111,3.2893,3.2893,3.3111,3.3111,3.3111,3.3136,3.3269,3.3345,3.3345,3.3345,3.3671,3.4173,3.4173,3.45,3.4981,3.5357,3.5608,3.5855,3.6279,3.6405,3.6405,3.6405,3.6405,3.6405,3.6405,3.6662,3.7103,3.788,3.9464,4.1127,4.1504,4.2152,4.282,4.321,4.329,4.329,4.329,4.329,4.329,4.329,4.329,4.329,4.329,4.329,4.3499,4.4197,4.4855,4.5544,4.619,4.689,4.7309,4.7309,4.7309,4.7309,4.7309,4.7309,4.7309,4.7309,4.7309,0.0,4.7309,4.7309,4.7309,4.7309,4.7309,4.7309,4.7309,4.7309,4.7309,4.7309,4.7309,4.7309,4.7309,4.7309,4.7309,4.7369,4.873,4.9299,4.9419,5.069,5.1229,5.1229,5.1229,5.1229,5.1229,5.1229,5.1229,5.1229,0.0,0.0,2.9804,2.9804,3.0281,3.0633,3.0633,3.106,3.1411,3.1411,0.0,0.0,0.0,0.0,0.0,3.3111,3.3111,3.3111,3.3111,3.3111,3.3111,3.3111,3.3111,3.3111,3.3111,3.2516,3.2516,3.3111,3.2516,3.2516,3.3111,3.3111,3.3136,3.3162,3.3671,3.3922,3.3947,3.3922,3.4248,3.4705,3.4705,3.5031,3.5533,3.5533,3.5906,3.6405,3.6405,3.6405,3.6405,3.6405,3.6405,3.6405,3.6405,3.715,3.8062,3.8062,3.8917,4.0145,0.0,0.0,0.0,4.3021,4.329,4.329,4.329,4.329,4.329,4.329,4.329,4.329,4.329,4.329,4.3499,4.4167,4.4825,4.5514,4.6202,4.686,4.7279,4.7309,4.7309,4.7309,4.7309,4.7309,4.7309,4.7309,4.7309,4.7309,4.7309,4.7309,4.7309,4.7309,4.7309,4.7309,4.7309,4.7309,4.7309,4.7309,4.7309,4.7309,4.7309,4.7309,4.7309,4.7369,4.873,4.9299,4.9419,5.069,5.1229,5.1229,5.1229,5.1229,5.1229,5.1229,5.1229,5.1229,0.0,3.0105,3.0382,3.0382,3.0834,3.1185,3.1185,3.1286,3.1537,0.0,0.0,0.0,3.2792,3.2993,3.3111,3.3111,3.3111,3.3111,3.3111,3.3111,3.3111,3.3111,3.3111,3.3111,3.3111,3.2918,3.2918,3.3111,3.2918,3.2918,3.3111,3.3111,3.3294,3.3671,3.3822,3.4349,3.5006,3.463,3.4781,3.5282,3.5282,3.5655,3.6132,3.6132,3.6279,3.6405,3.6405,3.6405,3.6405,3.6405,3.6405,3.6405,3.6405,3.6615,3.6896,3.6896,3.8315,4.0,4.0275,0.0,0.0,0.0,0.0,0.0,4.329,4.329,4.329,4.329,4.329,4.329,4.329,4.329,4.3349,4.3529,4.4167,4.4825,4.5484,4.6172,4.677,4.7249,4.7309,4.7309,4.7309,4.7309,4.7309,0.0,4.7309,4.7309,4.7309,4.7309,4.7309,4.7309,4.7309,4.7309,4.7309,4.7309,4.7309,4.7309,4.7309,4.7309,4.7309,4.7309,4.7309,4.7369,4.873,4.9299,4.9419,5.069,5.1229,5.1229,5.1229,5.1229,5.1229,5.1229,5.1229,5.1229,3.0407,3.0708,3.0934,3.0934,3.1386,3.1738,3.1738,3.1938,3.2215,0.0,0.0,0.0,3.3043,3.3111,3.3111,3.3111,3.3111,3.3111,3.3111,3.3111,3.3111,3.3111,3.3111,3.3111,3.3111,3.2842,3.2842,3.3111,3.2842,3.2842,3.3111,3.3111,3.337,3.3897,3.4148,3.4726,3.5483,3.5454,3.5604,3.5881,3.5881,3.6081,3.6405,3.6405,3.6405,3.6405,3.6405,3.6405,3.6405,3.6405,3.6405,3.6405,3.6405,3.6405,3.6405,3.6405,3.7381,3.8514,3.9006,4.049,4.2017,4.2467,0.0,0.0,4.329,4.329,4.329,4.329,4.329,4.329,4.329,4.329,4.329,4.329,4.3618,4.4227,4.5155,4.5903,4.6561,4.7219,4.7309,4.7309,4.7309,4.7309,4.7309,4.7309,4.7309,4.7309,4.7309,4.7309,4.7309,4.7309,4.7309,4.7309,4.7309,4.7309,4.7309,4.7309,4.7309,4.7309,4.7309,4.7309,4.7309,4.7369,4.873,4.9299,4.9419,5.069,5.1229,5.1229,5.1229,5.1229,5.1229,5.1229,5.1229,5.1229,0.0,3.1436,3.1486,3.1486,3.1938,3.2315,3.2315,3.2742,3.3111,0.0,3.3111,3.3111,3.3111,3.3111,3.3111,3.3111,3.3111,3.3111,3.3111,3.3111,3.3111,3.3111,3.3111,3.3111,3.3111,3.2566,3.2566,3.3111,3.2566,3.2566,3.3111,3.3144,3.347,3.4022,3.4575,3.5082,3.5633,3.6157,3.6405,3.6405,3.6405,3.6405,3.6405,3.6405,3.6405,3.6405,3.6405,3.6405,3.6405,3.6405,3.6405,3.6405,3.6405,3.6405,3.6405,3.6405,3.6499,3.6803,3.7815,0.0,0.0,4.1337,4.2467,0.0,4.329,4.329,4.329,4.329,4.329,4.329,4.329,4.329,4.329,4.329,4.329,4.3738,4.5005,4.5783,4.6441,4.713,4.7249,4.7309,4.7309,4.7309,4.7309,4.7309,4.7309,4.7309,4.7309,4.7309,4.7309,4.7309,4.7309,4.7309,4.7309,4.7309,4.7309,4.7309,4.7309,4.7309,4.7309,4.7309,4.7309,4.7369,4.873,4.9299,4.9419,5.069,5.1229,5.1229,5.1229,5.1229,5.1229,5.1229,5.1229,5.1229,3.1361,3.1738,3.2039,3.2039,3.2516,3.2893,3.2893,3.2993,3.3111,3.3111,3.3111,3.3111,3.3111,3.3111,3.3111,3.3111,3.3111,3.3111,3.3111,3.3111,3.3111,3.3111,3.3111,3.3111,3.3111,3.2968,3.2968,3.3111,3.2968,3.2968,3.3136,3.352,3.4022,3.4575,3.5082,3.568,3.6207,3.6355,3.6405,3.6405,3.6405,3.6405,3.6405,3.6405,3.6405,3.6405,3.6405,3.6405,3.6405,3.6405,3.6405,3.6405,3.6405,3.6405,3.6405,3.6405,3.7057,3.7815,3.8017,3.964,4.1337,4.1545,4.2467,0.0,4.329,4.329,4.329,4.329,4.329,4.329,4.329,4.329,4.329,4.329,4.329,4.3559,4.4407,4.5065,4.5753,4.6441,4.698,4.7309,4.7309,4.7309,4.7309,4.7309,4.7309,4.7309,4.7309,4.7309,4.7309,4.7309,4.7309,4.7309,4.7309,4.7309,4.7309,4.7309,4.7309,4.7309,4.7309,4.7309,4.7309,4.7369,4.873,4.9299,4.9419,5.069,5.1229,5.1229,5.1229,5.1229,5.1229,5.1229,5.1229,5.1229,3.2164,3.2441,3.2641,3.2641,3.2893,3.3111,3.3111,3.3111,3.3111,3.3111,3.3111,3.3111,3.3111,3.3111,3.3111,3.3111,3.3111,3.3111,3.3111,3.3111,3.3111,3.3111,3.3111,3.3111,3.3111,3.3111,3.3111,3.3111,3.3111,3.3262,3.3495,3.3771,3.4349,3.5107,3.5382,3.5855,3.6405,3.6405,3.6405,3.6405,3.6405,3.6405,3.6405,3.6405,3.6405,3.6405,3.6405,3.6405,3.6405,3.6405,3.6405,3.6405,3.6405,3.6405,3.6405,3.6405,3.6803,3.7356,3.7926,3.9376,4.0873,4.1462,4.2467,0.0,0.0,4.329,4.329,4.329,4.329,4.329,4.329,4.329,4.329,4.329,4.329,4.3409,4.3738,4.4377,4.5185,4.616,4.6621,4.695,4.7279,4.7309,4.7309,4.7309,4.7309,4.7309,4.7309,4.7309,4.7309,4.7309,4.7309,4.7309,4.7309,4.7309,4.7309,4.7309,4.7309,4.7309,4.7309,4.7309,4.7489,4.7848,4.888,4.9464,4.9823,5.081,5.1229,5.1229,5.1229,5.1229,5.1229,5.1229,5.1229,5.1229,3.2993,3.3111,3.3111,3.3111,3.3111,3.3111,3.3111,3.3111,3.3111,3.3111,3.3111,3.3111,3.3111,3.3111,3.3111,3.3111,3.3111,3.3111,3.3111,3.3111,3.3111,3.3111,3.3111,3.3111,3.3111,3.3111,3.3111,3.3111,3.3194,3.347,3.3897,3.4123,3.47,3.5508,3.5608,3.5956,3.6405,3.6405,3.6405,3.6405,3.6405,3.6405,3.6405,3.6405,3.6405,3.6405,3.6405,3.6405,3.6405,3.6405,3.6405,3.6405,3.6405,3.6405,3.6405,3.6405,3.6405,3.6593,3.7494,3.8649,3.9842,4.1,4.2111,4.3021,0.0,0.0,0.0,4.329,0.0,0.0,0.0,0.0,0.0,0.0,0.0,0.0,0.0,4.3738,0.0,4.5741,4.613,4.6488,4.707,4.7219,4.7309,4.7309,4.7309,4.7309,4.7309,4.7309,4.7309,4.7309,4.7309,4.7309,4.7309,4.7309,4.7309,4.7309,4.7309,4.7309,4.7309,4.7309,4.7668,4.8327,4.903,4.9643,5.0255,5.0913,5.1229,5.1229,5.1229,5.1229,5.1229,5.1229,5.1229,5.1229,3.3111,3.3111,3.3111,3.3111,3.3111,3.3111,3.3111,3.3111,3.3111,3.3111,3.3111,3.3111,3.3111,3.3111,3.3111,3.3111,3.3111,3.3111,3.3111,3.3111,3.3111,3.3111,3.3111,3.3111,3.3111,3.3111,3.3111,3.3111,3.3571,3.3847,3.3922,3.4856,3.5382,3.5508,3.6056,3.6355,3.6405,3.6405,3.6405,3.6405,3.6405,3.6405,3.6405,3.6405,3.6405,3.6405,3.6405,3.6405,3.6405,3.6405,3.6405,3.6405,3.6405,3.6405,3.6405,3.6405,3.6405,3.6452,3.6546,3.7402,3.8604,3.9798,4.0958,4.207,4.3061,0.0,4.329,4.329,0.0,0.0,0.0,0.0,0.0,0.0,0.0,0.0,4.329,4.3349,4.3678,4.4466,4.5603,4.6309,4.6441,4.695,4.7309,4.7309,4.7309,4.7309,4.7309,4.7309,4.7309,4.7309,4.7309,4.7309,4.7309,4.7309,4.7309,4.7309,4.7309,4.7309,4.7309,4.7309,4.7668,4.8327,4.903,4.9643,5.0255,5.0913,5.1229,5.1229,5.1229,5.1229,5.1229,5.1229,5.1229,5.1229,3.3111,3.3111,3.3111,3.3111,3.3111,3.3111,3.3111,3.3111,3.3111,3.3111,3.3111,3.3111,3.3111,3.3111,3.3111,3.3111,3.3111,3.3111,3.3111,3.3111,3.3111,3.3111,3.3111,3.3111,3.3111,3.3111,3.3244,3.3545,3.3796,3.4223,3.4831,3.5282,3.5683,3.6031,3.6304,3.6405,3.6405,3.6405,3.6405,3.6405,3.6405,3.6405,3.6405,3.6405,3.6405,3.6405,3.6405,3.6405,3.6405,3.6405,3.6405,3.6405,3.6405,3.6405,3.6405,3.6405,3.6405,3.6546,3.7196,3.7769,3.8379,3.9579,4.0746,4.1711,4.2193,4.282,4.329,4.329,0.0,0.0,0.0,0.0,0.0,0.0,4.329,0.0,0.0,0.0,4.3529,0.0,0.0,0.0,4.6219,4.692,4.7309,4.7309,4.7309,4.7309,4.7309,4.7309,4.7309,4.7309,4.7309,4.7309,4.7309,4.7309,4.7309,4.7309,4.7309,4.7309,4.7309,4.7309,4.7878,4.891,4.9179,4.9853,5.0794,5.1063,5.1229,5.1229,5.1229,5.1229,5.1229,5.1229,5.1229,5.1229,3.3111,3.3111,3.3111,3.3111,3.3111,3.3111,3.3111,3.3111,3.3111,3.3111,3.3368,3.3556,3.3556,3.3556,3.3556,3.3556,3.3283,3.3111,3.3111,3.3111,3.3111,3.3111,3.3111,3.3111,3.3111,3.3219,3.3495,3.3897,3.4198,3.4731,3.5508,3.5658,3.5981,3.6405,3.6405,3.6405,3.6405,3.6405,3.6405,3.6405,3.6405,3.6405,3.6405,3.6405,3.6405,3.6405,3.6405,3.6405,3.6405,3.6405,3.6405,3.6405,3.6405,3.6405,3.6405,3.6405,3.6405,3.6593,3.7402,3.7632,3.7952,3.9094,4.0275,4.1211,4.1545,4.2467,4.329,4.329,4.329,0.0,0.0,0.0,0.0,0.0,0.0,4.329,0.0,4.329,0.0,0.0,0.0,0.0,0.0,4.6741,4.71,4.7309,4.7309,4.7309,4.7309,4.7309,4.7309,4.7309,4.7309,4.7309,4.7309,4.7309,4.7309,4.7309,4.7309,4.7309,4.7309,4.7309,4.8027,4.9299,4.9299,5.0002,5.1229,5.1229,5.1229,5.1229,5.1229,5.1229,5.1229,5.1229,5.1229,5.1229,3.3111,3.3111,3.3111,3.3111,3.3111,3.3111,3.3111,3.3111,3.3111,3.3111,3.3995,3.4677,3.4677,3.4677,3.4677,3.4677,3.3725,3.3111,3.3111,3.3111,3.3111,3.3111,3.3111,3.3111,3.3111,3.3596,3.3872,3.3897,3.4931,3.5458,3.5508,0.0,0.0,0.0,3.6405,3.6405,3.6405,3.6405,3.6405,3.6405,3.6405,3.6405,3.6405,3.6405,3.6405,3.6405,3.6405,3.6405,3.6405,3.6405,3.6405,3.6405,3.6405,3.6405,3.6405,3.6405,3.6405,3.6405,3.6452,3.6452,3.6709,3.7861,3.905,4.0232,4.1337,4.2467,4.329,4.329,4.329,0.0,0.0,0.0,0.0,0.0,0.0,0.0,0.0,0.0,0.0,0.0,0.0,0.0,0.0,4.6309,4.6621,4.7249,4.7309,4.7309,4.7309,4.7309,4.7309,4.7309,4.7309,4.7309,4.7309,4.7309,4.7309,4.7309,4.7309,4.7309,4.7309,4.7309,4.8027,4.9299,4.9299,5.0002,5.1229,5.1229,5.1229,5.1229,5.1229,5.1229,5.1229,5.1229,5.1229,5.1229,3.3111,3.3111,3.3111,3.3111,3.3111,3.3111,3.3111,3.3111,3.3111,3.3111,3.3428,3.3911,3.4635,3.4079,3.3911,3.4635,3.3725,3.3111,3.3111,3.3111,3.3111,3.3111,3.3111,3.3244,3.3621,3.3796,3.4248,3.4931,3.5307,3.5683,0.0,0.0,0.0,0.0,3.6405,3.6405,3.6405,3.6405,3.6405,3.6405,3.6405,3.6405,3.6405,3.6405,3.6405,3.6405,3.6405,3.6405,3.6405,3.6405,3.6405,3.6405,3.6405,3.6405,3.6405,3.6405,3.6405,3.6405,3.6405,3.6405,3.6575,3.7308,3.8103,3.8908,3.9644,4.1071,4.2152,4.2152,4.278,0.0,0.0,0.0,0.0,0.0,0.0,0.0,0.0,0.0,0.0,0.0,0.0,0.0,0.0,0.0,4.6369,4.6651,4.707,4.7309,4.7309,4.7309,4.7309,4.7309,4.7309,4.7309,4.7309,4.7309,4.7309,4.7309,4.7309,4.7309,4.7309,4.7758,4.8446,4.9329,4.9733,5.0421,5.1229,5.1229,5.1229,5.1229,5.1229,5.1229,5.1229,5.1229,5.1229,5.1229,3.3111,3.3111,3.3111,3.3111,3.3111,3.3111,3.3111,3.3428,3.3513,3.3154,3.3922,3.4659,3.4925,3.4545,3.4504,3.52,3.4272,3.3671,3.3671,3.3671,3.3671,3.3671,3.3671,3.3822,3.4198,3.4374,3.4826,3.5508,3.5683,3.6006,0.0,0.0,0.0,0.0,3.6405,3.6405,3.6405,3.6405,3.6405,3.6405,3.6405,3.6405,3.6405,3.6405,3.6405,3.6405,3.6405,3.6531,3.6707,3.6707,3.6832,3.6983,3.6983,3.6983,3.6983,3.6983,3.6983,3.6983,3.6983,3.6983,3.7036,3.7387,3.8118,3.88,3.9122,4.0769,4.2065,4.1412,4.2544,0.0,0.0,0.0,0.0,0.0,0.0,0.0,0.0,4.329,0.0,0.0,0.0,0.0,0.0,4.5454,4.6142,4.6621,4.707,4.7309,4.7309,4.7309,4.7309,4.7309,4.7309,4.7309,4.7309,4.7309,4.7309,4.7309,4.7309,4.7309,4.7339,4.7997,4.87,4.9329,4.9942,5.0554,5.1229,5.1229,5.1229,5.1229,5.1229,5.1229,5.1229,5.1229,5.1229,5.1229,3.3111,3.3111,3.3111,3.3111,3.3111,3.3111,3.3111,3.3979,3.4314,3.3351,3.5455,3.6716,3.5827,3.6092,3.6392,3.6392,3.5391,3.4771,3.468,3.468,3.468,3.468,3.468,3.468,3.4731,3.5232,3.5508,3.5533,3.6107,0.0,0.0,0.0,0.0,0.0,3.6405,3.6405,3.6405,3.6405,3.6405,3.6405,3.6405,3.6405,3.6405,3.643,3.6455,3.6455,3.6455,3.6807,3.7236,3.7236,3.7563,3.8015,3.8015,3.8015,3.8015,3.8015,3.8015,3.8015,3.8015,3.8015,3.8015,3.804,3.8871,3.9712,3.9738,4.1571,4.2719,4.0996,4.2524,0.0,0.0,0.0,0.0,0.0,0.0,0.0,0.0,0.0,4.329,0.0,4.3319,4.3828,4.5125,4.5274,4.5843,4.716,4.7279,4.7309,0.0,4.7309,4.7309,4.7309,4.7309,4.7309,4.7309,4.7309,4.7309,4.7309,4.7309,4.7309,4.7339,4.8027,4.8686,4.9359,5.0002,5.0584,5.1229,5.1229,5.1229,5.1229,5.1229,5.1229,5.1229,5.1229,5.1229,5.1229,3.3111,3.3111,3.3111,3.3111,3.3111,3.3111,3.3111,3.3655,3.4297,3.4888,3.5939,3.7148,3.8549,3.8117,3.7687,3.7645,3.6668,3.5631,3.4771,3.468,3.468,3.468,3.468,3.4881,3.5282,3.5433,3.5708,3.6157,3.6329,0.0,3.6405,0.0,0.0,0.0,0.0,3.6405,3.6405,3.6405,3.6405,3.6405,3.6405,3.6405,3.6455,3.6857,3.696,3.696,3.696,3.7337,3.7789,3.7789,3.7889,3.8015,3.8015,3.8015,3.8015,3.8015,3.8015,3.8015,3.8015,3.8015,3.8115,3.8542,3.8565,3.8583,3.9015,3.9952,4.0595,4.0134,4.1205,4.2269,4.2479,0.0,0.0,0.0,0.0,0.0,0.0,0.0,0.0,4.329,4.3738,4.4197,4.4526,4.5005,4.5663,4.6501,4.704,4.7309,4.7309,4.7309,4.7309,4.7309,4.7309,4.7309,4.7309,4.7309,4.7309,4.7309,4.7309,4.7309,4.7339,4.8506,4.9149,4.9389,5.0481,5.105,5.1229,5.1229,5.1229,5.1229,5.1229,5.1229,5.1229,5.1229,5.1229,5.1229,3.3111,3.3111,3.3144,3.3395,3.3445,3.3593,3.4127,3.508,3.5789,3.5976,3.6909,3.7644,3.79,3.7628,3.7395,3.7351,3.6802,3.6154,3.5475,3.5429,3.5429,3.5429,3.5429,3.5579,3.5906,3.5906,3.6056,3.6405,3.6405,3.6405,3.6405,0.0,0.0,0.0,0.0,3.6405,3.6405,3.6405,3.6405,3.6405,3.6405,3.6556,0.0,3.7061,3.7487,3.7914,3.7914,3.8115,3.8391,3.8391,3.8542,3.8743,3.8743,3.8743,3.8743,3.8743,3.8743,3.8743,3.8743,3.8743,3.8818,3.9145,3.8994,3.8818,3.9145,3.9921,4.0368,3.9576,4.0742,4.1755,4.1159,4.2004,0.0,0.0,0.0,0.0,0.0,0.0,0.0,0.0,4.4077,4.4556,4.5125,4.5544,4.6022,4.6711,4.71,4.7309,0.0,4.7309,4.7309,4.7309,4.7309,4.7309,4.7309,4.7309,4.7309,4.7309,4.7309,4.7459,4.7758,4.8805,4.9404,4.9733,5.078,5.1229,5.1229,5.1229,5.1229,5.1229,5.1229,5.1229,5.1229,5.1229,5.1229,5.1229,3.3294,3.3294,3.3532,3.4117,3.4312,3.4776,3.6071,3.7259,3.7712,3.693,3.8328,3.8678,3.6826,3.7206,3.7428,3.71,3.71,3.6984,3.6631,3.6556,3.6505,3.6505,3.6455,3.6405,3.6405,3.6405,3.6405,3.6405,3.6405,3.6405,3.6405,0.0,0.0,0.0,0.0,3.6405,3.6405,3.6405,3.6405,3.6405,3.648,3.6807,3.7211,3.7362,3.8015,3.8919,3.8994,3.8969,3.8969,3.8969,3.9295,3.9697,3.9697,3.9697,3.9697,3.9697,3.9697,3.9697,3.9697,3.9697,3.9697,3.9697,3.9697,3.9697,3.9697,4.0541,4.0889,3.9323,4.0657,4.1388,3.8909,0.0,0.0,0.0,0.0,0.0,0.0,0.0,0.0,0.0,0.0,0.0,4.6202,4.6279,4.6591,4.7249,4.7309,0.0,0.0,0.0,4.7309,4.7309,4.7309,4.7309,4.7309,4.7309,4.7309,4.7309,4.7309,4.7638,4.8297,4.9,4.9613,5.0226,5.0883,5.1229,5.1229,5.1229,5.1229,5.1229,5.1229,5.1229,5.1229,5.1229,5.1229,5.1229,3.4424,3.4424,3.4762,3.5844,3.6411,3.7401,3.9558,3.8513,3.7692,3.844,4.052,4.215,4.2682,4.3348,4.2926,4.0968,4.0786,3.9934,3.786,3.7287,3.7036,3.7036,3.6656,3.6405,3.6405,3.6405,3.6405,3.6405,3.6405,3.6405,3.6405,0.0,0.0,0.0,0.0,3.6405,3.6405,3.6405,3.6405,3.6455,3.6908,3.7111,3.7287,3.8216,3.8743,3.8969,3.9396,3.9546,3.9546,3.9546,3.9622,3.9697,3.9697,3.9697,3.9697,3.9697,3.9697,3.9697,3.9697,3.9697,3.9697,3.9697,3.9697,3.9697,3.9697,3.9878,3.9955,3.9623,3.988,4.0337,4.0882,4.1889,0.0,0.0,0.0,0.0,0.0,0.0,0.0,0.0,0.0,4.601,4.6249,4.6279,4.6591,4.7249,4.7309,0.0,0.0,0.0,4.7309,0.0,4.7309,4.7309,0.0,0.0,4.7309,4.7309,4.7309,4.7638,4.8297,4.9,4.9613,5.0226,5.0883,5.1229,5.1229,5.1229,5.1229,5.1229,5.1229,5.1229,5.1229,5.1229,5.1229,5.1289,3.468,3.468,3.5181,3.6656,3.7404,3.8478,4.0476,4.0684,4.0665,4.0845,4.2195,4.307,4.3027,4.3286,4.3022,4.1862,4.1131,4.0248,3.9062,3.813,3.7613,3.7613,3.7086,3.6784,3.6784,3.6556,3.6405,3.6405,3.6405,3.6405,3.6405,3.6405,0.0,3.6405,0.0,3.6405,3.6405,3.6405,3.6581,3.6857,3.7086,3.7538,3.8115,3.8718,3.9044,3.932,3.9597,3.9697,3.9697,3.9697,3.9697,3.9697,3.9697,3.9697,3.9697,3.9697,3.9697,3.9697,3.9697,3.9697,3.9697,3.9697,3.9697,3.9697,3.9697,3.9697,3.9697,3.9697,3.9697,4.0083,4.1369,4.2376,4.3241,4.3799,4.4487,4.4787,0.0,0.0,4.5424,0.0,0.0,0.0,0.0,4.683,4.695,0.0,0.0,0.0,0.0,0.0,4.7309,0.0,0.0,0.0,4.7309,0.0,4.7309,4.7309,4.7309,4.7818,4.885,4.9179,4.9823,5.0734,5.1079,5.1229,5.1229,5.1229,5.1229,5.1229,5.1229,5.1229,5.1229,5.1229,5.1439,5.1768,3.537,3.5537,3.6238,3.8104,3.8979,3.9967,4.1543,4.3113,4.3863,4.2911,4.3617,4.3805,4.2867,4.289,4.2857,4.2586,4.1393,4.0526,4.0314,3.893,3.8191,3.8191,3.7663,3.7362,3.7362,3.681,3.6581,3.6581,3.6455,3.6405,3.6405,0.0,0.0,0.0,3.6405,3.648,3.6581,3.6581,3.6908,3.7362,3.7487,3.8065,3.8894,3.9045,3.932,3.9697,3.9697,3.9697,3.9697,3.9697,3.9697,3.9697,3.9697,3.9697,3.9697,3.9697,3.9697,3.9697,3.9697,3.9697,3.9697,3.9697,3.9697,3.9697,3.9697,3.9697,3.9697,3.9697,3.9697,4.0083,4.1369,4.223,4.3006,4.4021,4.5024,4.5607,0.0,0.0,4.5933,0.0,0.0,0.0,4.7249,4.7309,4.7309,4.7309,0.0,0.0,4.7309,0.0,0.0,0.0,0.0,4.7309,4.7309,0.0,4.7309,4.7309,4.7459,4.8117,4.9299,4.9449,5.0122,5.1229,5.1229,5.1229,5.1229,5.1229,5.1229,5.1229,5.1229,5.1229,5.1229,5.1379,5.1768,5.2247,3.7612,3.828,3.94,4.171,4.2668,4.3473,4.4697,4.5543,4.5454,4.3733,4.4991,4.599,4.5905,4.644,4.63,4.5171,4.3901,4.2671,4.1531,3.9775,3.8844,3.8844,3.8241,3.7939,3.7939,3.7387,3.7111,3.7111,3.6656,3.6405,3.6405,0.0,0.0,3.6405,3.6405,3.6681,3.7111,3.7111,3.7412,3.7965,3.8492,3.8768,3.8919,3.9421,3.9647,3.9697,3.9697,3.9697,3.9697,3.9697,3.9697,3.9697,3.9697,3.9697,3.9697,3.9697,3.9697,3.9697,3.9697,3.9697,3.9697,3.9697,3.9697,3.9697,3.9697,3.9697,3.9697,3.9697,3.9697,4.0083,4.1369,4.0743,4.0818,4.3183,4.3704,0.0,0.0,0.0,4.713,4.7219,0.0,0.0,4.7309,4.7309,4.7309,4.7309,4.7309,0.0,0.0,0.0,0.0,4.7309,4.7309,4.7309,4.7309,4.7309,4.7309,4.7309,4.7908,4.8566,4.9329,4.9883,5.0495,5.1229,5.1229,5.1229,5.1229,5.1229,5.1229,5.1229,5.1229,5.1229,5.1289,5.1887,5.2157,5.2366,3.8635,3.9795,4.1249,4.2897,4.3748,4.4574,4.5734,4.6471,4.6629,4.59,4.6453,4.692,4.692,4.716,4.7062,4.6594,4.5389,4.4116,4.2834,4.1331,4.0183,3.9422,3.8818,3.8517,3.8517,3.7965,3.7688,3.7688,3.7136,3.6908,3.6883,3.6556,3.6581,3.6908,3.6908,3.7161,3.7688,3.7688,3.8015,3.8542,3.8768,3.9069,3.9396,3.9622,3.9697,3.9697,3.9697,3.9697,3.9697,3.9697,3.9697,3.9697,3.9697,3.9697,3.9697,3.9697,3.9697,3.9697,3.9697,3.9697,3.9697,3.9697,3.9697,3.9697,3.9697,3.9697,3.9697,3.9697,3.9697,3.9826,4.0364,4.0642,4.1169,4.2181,4.2978,0.0,0.0,0.0,0.0,4.6166,0.0,4.7309,4.7309,4.7309,4.7309,4.7309,4.7309,4.7309,4.7309,0.0,0.0,4.7309,0.0,4.7309,4.7309,4.7309,4.7309,4.7309,4.7967,4.8626,4.9329,4.9942,5.0554,5.1229,5.1229,5.1229,5.1229,5.1229,5.1229,5.1229,5.1229,5.1468,5.1828,5.2097,5.2725,5.3473,3.9242,4.0784,4.2429,4.36,4.4705,4.5668,4.6463,4.701,4.7309,4.7309,4.7309,4.7309,4.7309,4.7309,4.7309,4.7309,4.6166,4.5024,4.4116,4.2496,4.1219,4.0313,3.9575,3.917,3.917,3.8542,3.8266,3.8266,3.7688,3.7437,3.7412,3.7036,3.7061,3.7437,3.7437,3.7739,3.8266,3.8266,3.8592,3.917,3.917,3.9346,3.9697,3.9697,3.9697,3.9697,3.9697,3.9697,3.9697,3.9697,3.9697,3.9697,3.9697,3.9697,3.9697,3.9697,3.9697,3.9697,3.9697,3.9697,3.9697,3.9697,3.9697,3.9697,3.9697,3.9697,3.9697,3.9697,3.9697,3.9697,3.9697,4.0415,4.1169,4.1541,4.2689,0.0,0.0,4.5161,0.0,4.5958,4.6726,4.7309,4.7309,4.7309,4.7309,4.7309,4.7309,4.7309,4.7309,4.7309,4.7309,0.0,0.0,0.0,4.7309,4.7309,4.7399,4.7608,4.8267,4.8925,4.9583,5.0242,5.0734,5.1229,5.1229,5.1229,5.1229,5.1229,5.1229,5.1229,5.1439,5.1798,5.2247,5.2636,5.3384,5.4251,3.9542,4.1341,4.3054,4.4171,4.602,4.7236,4.7309,4.7309,4.7309,4.7309,4.7309,4.7309,4.7309,4.7309,4.7309,4.7309,4.6166,4.5389,4.5389,4.3026,4.1591,4.1591,4.0364,3.9697,3.9697,3.9145,3.8919,3.8919,0.0,3.799,3.799,3.799,3.799,3.799,3.799,3.8316,3.8919,3.8919,3.917,3.9697,3.9697,3.9697,3.9697,3.9697,3.9697,3.9697,3.9697,3.9697,3.9697,3.9697,3.9697,3.9697,3.9697,3.9697,3.9697,3.9697,3.9697,3.9697,3.9697,3.9697,3.9697,3.9697,3.9697,3.9697,3.9697,3.9697,3.9697,3.9697,3.9697,3.9697,3.9697,3.9697,4.0134,4.1419,4.2689,0.0,0.0,4.6462,0.0,4.7266,4.7309,4.7309,4.7309,4.7309,4.7309,4.7309,4.7309,4.7309,4.7309,4.7309,4.7309,4.7309,4.7309,0.0,4.7309,4.7309,4.7638,4.8297,4.9,4.9583,5.0196,5.0853,5.1199,5.1229,5.1229,5.1229,5.1229,5.1229,5.1229,5.1289,5.1947,5.2187,5.2366,5.3683,5.4192,5.4311,4.2821,4.4579,4.5962,4.6313,4.687,4.7309,4.7309,4.7309,4.7309,4.7309,4.7309,4.7309,4.7309,4.7309,4.7309,4.7309,4.6931,4.6344,4.5434,4.4627,4.3409,4.169,4.1219,4.0592,3.9749,3.9521,3.9421,3.9421,3.8868,3.8391,3.8015,3.8015,3.8216,3.8592,3.8592,3.8894,3.9421,3.9421,3.9521,3.9697,3.9697,3.9697,3.9697,3.9697,3.9697,3.9697,3.9697,3.9697,3.9697,3.9697,3.9697,3.9697,3.9697,3.9697,3.9697,3.9697,3.9697,3.9697,3.9697,3.9697,3.9697,3.9697,3.9697,3.9697,3.9697,3.9697,3.9697,3.9697,3.9697,3.9697,3.9697,3.9697,3.9826,4.0211,4.0642,0.0,4.1468,0.0,4.3409,4.3409,4.4163,4.507,4.5913,4.6003,4.6344,4.7222,4.7309,4.7309,4.7309,4.7309,4.7309,4.7309,4.7309,0.0,4.7309,4.7309,4.7638,4.8297,4.9,4.9853,5.0853,5.1109,5.1229,5.1229,5.1229,5.1229,5.1229,5.1229,5.1229,5.1289,5.1947,5.2486,5.2965,5.3862,5.4491,5.491,4.3204,4.4738,4.6032,4.6506,4.6975,4.7309,4.7309,4.7309,4.7309,4.7309,4.7309,4.7309,4.7309,4.7309,4.7309,4.7309,4.7309,4.6975,4.6166,4.5689,4.4674,4.3122,4.2544,4.1739,4.0465,4.0415,4.016,3.9697,3.9346,3.8994,3.8642,3.8642,3.8843,3.917,3.917,3.9371,3.9697,3.9697,3.9697,3.9697,3.9697,3.9697,3.9697,3.9697,3.9697,3.9697,3.9697,3.9697,3.9697,3.9697,3.9697,3.9697,3.9697,3.9697,3.9697,3.9697,3.9697,3.9697,3.9697,3.9697,3.9697,3.9697,3.9697,3.9697,3.9697,3.9697,3.9697,3.9697,3.9697,3.9697,3.9697,3.9697,3.9697,3.9697,4.0083,4.0415,4.0415,4.1936,4.3026,0.0,4.4163,4.5252,4.6032,4.6121,4.6432,4.7266,4.7309,4.7309,4.7309,4.7309,4.7309,4.7309,4.7309,4.7309,4.7309,4.7549,4.7997,4.87,4.9553,5.0421,5.1229,5.1229,5.1229,5.1229,5.1229,5.1229,5.1229,5.1229,5.1379,5.1648,5.2306,5.2965,5.3653,5.4341,5.485,5.5179,4.1591,4.2882,4.4116,4.5298,4.6506,4.7309,4.7309,4.7309,4.7309,4.7309,4.7309,4.7309,4.7309,4.7309,4.7309,4.7309,4.7309,4.7309,4.7309,4.6211,4.5508,4.5389,4.4256,4.2978,4.164,4.1591,4.0995,3.9697,3.9697,3.9697,3.9697,3.9697,3.9697,3.9697,3.9697,3.9697,3.9697,3.9697,3.9697,3.9697,3.9697,3.9697,3.9697,3.9697,3.9697,3.9697,3.9697,3.9697,3.9697,3.9697,3.9697,3.9697,3.9697,3.9697,3.9697,3.9697,3.9697,3.9697,3.9697,3.9697,3.9697,3.9697,3.9697,3.9697,3.9697,3.9697,3.9697,3.9697,3.9697,3.9697,3.9697,3.9697,3.9697,3.9697,4.0794,4.1541,4.1468,4.3646,4.5252,4.5161,4.6255,4.7062,4.7149,4.7149,4.7222,4.7309,4.7309,4.7309,4.7309,4.7309,4.7309,4.7309,4.7309,4.7339,4.7369,4.7967,4.8626,4.9389,5.0631,5.1229,5.1229,5.1229,5.1229,5.1229,5.1229,5.1229,5.1229,5.1259,5.1648,5.2276,5.2965,5.3653,5.4281,5.494,5.5179,5.5179,4.4256,4.5553,4.6506,4.677,4.7106,4.7309,4.7309,4.7309,4.7309,4.7309,4.7309,4.7309,4.7309,4.7309,4.7309,4.7309,4.7309,4.7309,4.7309,4.7019,4.6388,4.5434,4.5115,4.3882,4.164,4.1591,4.0995,3.9697,3.9697,3.9697,3.9697,3.9697,3.9697,3.9697,3.9697,3.9697,3.9697,3.9697,3.9697,3.9697,3.9697,3.9697,3.9697,3.9697,3.9697,3.9697,3.9697,3.9697,3.9697,3.9697,3.9697,3.9697,3.9697,3.9697,3.9697,3.9697,3.9697,3.9697,3.9697,3.9697,3.9697,3.9697,3.9697,3.9697,3.9697,3.9697,3.9697,3.9697,3.9697,3.9697,3.9697,3.9697,3.9697,3.9697,4.0794,4.1269,4.0262,4.235,4.3598,0.0,4.3646,4.4794,4.5779,4.5824,4.6255,0.0,0.0,4.7309,4.7309,4.7309,4.7309,4.7309,4.7309,4.7549,4.8057,4.8207,4.8865,5.0032,5.084,5.1229,5.1229,5.1229,5.1229,5.1229,5.1229,5.1229,5.1259,5.1768,5.2067,5.2306,5.3503,5.4072,5.4281,5.494,5.5179,5.5179,4.3409,4.421,4.507,4.6211,4.6432,4.6638,4.7222,4.7309,4.7309,4.7309,4.7309,4.7309,4.7309,4.7309,4.7309,4.7309,4.7309,4.7309,4.7309,4.7309,4.6975,4.6299,4.5734,4.4489,4.2496,4.1887,4.0995,3.9697,3.9697,3.9697,3.9697,3.9697,3.9697,3.9697,3.9697,3.9697,3.9697,3.9697,3.9697,3.9697,3.9697,3.9697,3.9697,3.9697,3.9697,3.9697,3.9697,3.9697,3.9697,3.9697,3.9697,3.9697,3.9697,3.9697,3.9697,3.9697,3.9697,3.9697,3.9697,3.9697,3.9697,3.9697,3.9697,3.9697,3.9697,3.9697,3.9697,3.9697,3.9697,3.9697,3.9697,4.016,4.0541,4.0541,4.164,4.223,4.1541,4.2641,4.3266,4.2544,4.3074,4.3787,4.4442,4.507,4.5689,4.6388,4.6975,4.7309,4.7309,4.7309,4.7309,4.7309,4.7608,4.7938,4.8297,4.8895,4.9673,5.0644,5.105,5.1229,5.1229,5.1229,5.1229,5.1229,5.1229,5.1379,5.1708,5.2067,5.2576,5.3204,5.3922,5.4401,5.47,5.5059,5.5179,5.5179,4.1419,4.1936,4.2882,4.5024,4.5553,4.6077,4.7106,4.7309,4.7309,4.7309,4.7309,4.7309,4.7309,4.7309,4.7309,4.7309,4.7309,4.7309,4.7309,4.7309,4.7309,4.7309,4.6077,4.4794,4.3551,4.2084,4.0794,3.9697,3.9697,3.9697,3.9697,3.9697,3.9697,3.9697,3.9697,3.9697,3.9697,3.9697,3.9697,3.9697,3.9697,3.9697,3.9697,3.9697,3.9697,3.9697,3.9697,3.9826,3.9981,3.9749,3.9826,3.9981,3.9981,3.9826,3.9749,3.9929,3.9826,3.9697,3.9697,3.9697,3.9697,3.9697,3.9697,3.9697,3.9697,3.9697,3.9697,3.9697,3.9697,3.9697,3.9697,4.0592,4.1369,4.1541,4.2496,4.3218,4.3218,0.0,4.3504,4.3504,4.3693,4.3882,4.4069,4.507,4.5689,4.5689,4.6682,4.7309,4.7309,4.7399,4.7459,4.7459,4.7997,4.8386,4.8566,4.9747,5.0614,5.1229,5.1229,5.1229,5.1229,5.1229,5.1229,5.1229,5.1229,5.1588,5.2217,5.2306,5.3084,5.4221,5.4311,5.47,5.5179,5.5179,5.5179,5.5179,4.1541,4.3313,4.4932,4.5343,4.6299,4.7062,4.7266,4.7309,4.7309,4.7309,4.7309,4.7309,4.7309,4.7309,4.7309,4.7309,4.7309,4.7309,4.7309,4.7309,4.7309,4.7309,4.6077,4.4794,4.3551,4.1219,3.9878,3.9697,3.9697,3.9697,3.9697,3.9697,3.9697,3.9697,3.9697,3.9697,3.9697,3.9697,3.9697,3.9697,3.9697,3.9697,3.9697,3.9697,3.9697,3.9697,3.9697,4.0415,4.1119,4.0083,4.0415,4.1319,4.1319,4.0541,3.9929,4.0969,4.0567,3.9697,3.9697,3.9697,3.9697,3.9697,3.9697,3.9697,3.9697,3.9697,3.9697,3.9697,3.9697,3.9697,3.9697,3.9826,4.0364,4.1419,4.1789,4.1887,4.1887,4.2834,4.3504,4.3504,4.4442,4.5553,4.6594,4.6887,4.7019,4.7019,4.7222,4.7309,4.7309,4.7848,4.8147,4.8147,4.8237,4.8805,4.9867,5.0644,5.1109,5.1229,5.1229,5.1229,5.1229,5.1229,5.1229,5.1229,5.1229,5.1588,5.2247,5.2785,5.3503,5.4281,5.482,5.5089,5.5179,5.5179,5.5179,5.5179,4.0592,4.1492,4.2544,4.3218,4.4396,4.5479,4.6166,4.6887,4.7309,4.7309,4.7309,4.7309,4.7309,4.7309,4.7309,4.7309,4.7309,4.7309,4.7309,4.7309,4.7309,4.7309,4.5389,4.3456,4.1518,4.0995,4.0415,3.9697,4.0415,4.0364,3.9697,3.9697,3.9697,3.9697,3.9697,3.9697,3.9697,3.9697,4.0083,4.0642,3.9981,4.0134,4.0693,4.0693,4.0313,3.98,4.0465,4.1069,4.1419,4.0134,4.0541,4.1591,4.1591,4.1219,4.0995,4.2279,4.1219,3.9697,3.9697,3.9697,3.9697,3.9697,3.9697,3.9697,3.9697,3.9697,3.9697,3.9697,3.9697,3.9697,3.9697,4.0262,4.0945,4.1518,4.2181,4.2882,4.3551,4.3551,4.374,4.4442,4.4442,4.4581,4.5207,4.5869,4.6299,4.6299,4.6931,4.7459,4.7818,4.8117,4.8596,4.9314,4.9344,4.9793,5.0704,5.1079,5.1229,5.1229,5.1229,5.1229,5.1229,5.1229,5.1229,5.1229,5.1588,5.2127,5.2785,5.3443,5.4132,5.476,5.5059,5.5179,5.5179,5.5179,5.5179,5.5179,3.9697,3.9929,4.0465,4.1419,4.2641,4.3929,4.5207,4.6211,4.6975,4.7266,4.7309,4.7309,4.7309,4.7309,4.7309,4.7309,4.7309,4.7309,4.7309,4.7309,4.7309,4.7309,4.4886,4.2593,4.0642,4.1269,4.1119,4.0134,4.1119,4.1069,4.0134,3.9826,3.9826,4.0134,4.0134,3.9981,3.9749,4.0032,4.0693,4.1518,4.0211,4.0642,4.2035,4.169,4.1169,4.0642,4.1369,4.1985,4.2279,4.0848,4.1428,4.2738,4.2922,4.278,4.278,4.4014,4.2802,4.1003,4.0874,4.0517,4.0134,4.0134,3.9929,3.9697,3.9697,3.9697,3.9697,3.9697,3.9697,3.98,4.0083,4.0945,4.1789,4.2398,4.3074,4.3929,4.5207,4.4303,4.3975,4.5252,4.4535,4.4069,4.4349,4.5252,4.5882,4.6072,4.6963,4.7818,4.8476,4.8656,4.9254,5.0375,5.0435,5.0674,5.1199,5.1229,5.1229,5.1229,5.1229,5.1229,5.1229,5.1229,5.1319,5.1468,5.1977,5.2665,5.3473,5.3982,5.461,5.5179,5.5179,5.5179,5.5179,5.5179,5.5179,5.5179,3.9697,4.0642,4.1518,4.1591,4.2641,4.3929,4.5207,4.5479,4.5958,4.7149,4.7309,4.7309,4.7309,4.7309,4.7309,4.7309,4.7309,4.7309,4.7309,4.7309,4.7309,4.7309,4.4886,4.3409,4.3218,4.2181,4.1541,4.1468,4.1541,4.1541,4.1419,4.0262,4.0313,4.1468,4.1468,4.0794,3.98,4.0995,4.1518,4.1518,4.0211,4.1169,4.3218,4.2035,4.2252,4.3074,4.1985,4.3122,4.4833,4.2995,4.3992,4.6135,4.6756,4.6163,4.5455,4.6738,4.6163,4.4952,4.4303,4.2829,4.1468,4.1468,4.0541,3.9697,3.9697,3.9697,3.9697,3.9697,3.9697,4.0083,4.1219,4.1541,4.235,4.4748,4.421,4.3929,4.5207,4.4303,4.3975,4.5252,4.5298,4.5734,4.6931,4.7106,4.7418,4.8015,4.8163,4.8506,4.9209,4.9763,5.0375,5.1109,5.1139,5.1169,5.1229,5.1229,5.1229,5.1229,5.1229,5.1229,5.1229,5.1229,5.1558,5.2127,5.2187,5.2935,5.4132,5.4192,5.461,5.5179,5.5179,5.5179,5.5179,5.5179,5.5179,5.5179,3.9697,4.0083,4.0415,4.0415,4.1468,4.2738,4.4022,4.4886,4.5869,4.7106,4.7309,4.7309,4.7309,4.7309,4.7309,4.7309,4.7309,4.7309,4.7309,4.7309,4.6975,4.6166,4.4442,4.3504,4.3504,4.3026,4.2786,4.2786,4.2786,4.2786,4.2738,4.0642,4.0364,4.1591,4.1591,4.0895,3.9826,4.1887,4.2786,4.2738,4.2279,4.3122,4.4627,4.4116,4.401,4.4152,4.4486,4.5449,4.6411,4.4934,4.5552,4.7066,4.7297,4.7071,4.7014,4.8629,4.8529,4.7911,4.801,4.6051,4.4021,4.4021,4.3652,4.3302,4.3302,4.3302,4.3302,4.3302,4.3302,4.3345,4.3411,4.3378,4.3609,4.4125,4.3834,4.3929,4.5207,4.4978,4.5161,4.6432,4.6948,4.7392,4.7864,4.8297,4.8626,4.891,4.894,4.9164,4.9823,5.0481,5.096,5.1199,5.1229,5.1229,5.1229,5.1229,5.1229,5.1229,5.1229,5.1229,5.1229,5.1648,5.1977,5.2247,5.3084,5.3743,5.4251,5.464,5.497,5.5179,5.5179,5.5179,5.5179,5.5179,5.5179,5.5179,3.9697,3.9697,3.9697,3.9697,4.0415,4.1541,4.3266,4.4256,4.5389,4.7062,4.7309,4.7309,4.7309,4.7309,4.7309,4.7309,4.7309,4.7309,4.7309,4.7309,4.6931,4.6032,4.4396,4.3882,4.4674,4.3929,4.3504,4.3504,4.3504,4.3504,4.3456,4.0895,4.0592,4.223,4.223,4.1518,4.0465,4.3026,4.4116,4.4069,4.3646,4.4602,4.6279,4.5888,4.5849,4.6064,4.6534,4.7271,4.7864,4.6744,4.7214,4.8325,4.85,4.8559,4.8864,5.0113,5.0242,4.9972,5.0375,4.8957,4.7125,4.6292,4.579,4.5496,4.5496,4.5496,4.5496,4.5496,4.5496,4.5483,4.5453,4.5416,4.5372,4.5326,4.5316,4.5642,4.6525,4.6616,4.6961,4.782,4.8327,4.8596,4.8596,4.906,4.9389,4.9553,4.9583,4.9853,5.0465,5.0913,5.1229,5.1229,5.1229,5.1229,5.1229,5.1229,5.1229,5.1229,5.1229,5.1229,5.1229,5.1887,5.2306,5.2576,5.3713,5.4341,5.4551,5.4999,5.5179,5.5179,5.5179,5.5179,5.5179,5.5179,5.5179,5.5179,3.9697,3.9697,3.9697,3.9697,3.9697,4.0541,4.3122,4.3504,4.4396,4.6975,4.7309,4.7309,4.7309,4.7309,4.7309,4.7309,4.7309,4.7309,4.7309,4.7309,4.7309,4.7309,4.4886,4.4674,4.7266,4.484,4.3504,4.3551,4.3504,4.3504,4.3456,4.0945,4.1069,4.3504,4.3504,4.2786,4.1789,4.4303,4.5389,4.5326,4.4022,4.5441,4.8178,4.6874,4.7603,4.9119,4.7882,4.8236,4.9238,4.8563,4.9175,5.0315,5.102,5.1229,5.1229,5.1229,5.1229,5.1229,5.1229,5.1229,5.059,4.8061,4.6498,4.5545,4.5545,4.5545,4.5545,4.5545,4.5545,4.5916,4.7195,4.7431,4.7835,4.9119,4.9299,4.9299,4.9299,4.9299,4.9299,4.9299,4.9299,4.9329,4.9329,4.9329,4.9553,5.0136,5.0196,5.0495,5.1169,5.1229,5.1229,5.1229,5.1229,5.1229,5.1229,5.1229,5.1229,5.1229,5.1229,5.1229,5.1259,5.1917,5.2576,5.3234,5.3922,5.4581,5.5179,5.5179,5.5179,5.5179,5.5179,5.5179,5.5179,5.5179,5.5179,5.5179,3.9697,3.9697,3.9697,3.9697,3.9697,4.0541,4.3122,4.3504,4.4396,4.6975,4.7309,4.7309,4.7309,4.7309,4.7309,4.7309,4.7309,4.7309,4.7309,4.7309,4.7309,4.7309,4.5734,4.5598,4.7266,4.5689,4.5252,4.6166,4.5252,4.5298,4.6121,4.3551,4.2786,4.3551,4.4442,4.3646,4.1838,4.5252,4.6474,4.6172,4.6628,4.7702,4.8955,4.8565,4.9072,4.9897,4.9499,4.9889,5.0614,5.0389,5.0572,5.096,5.1169,5.1229,5.1229,5.1229,5.1229,5.1229,5.1229,5.1229,5.1016,5.027,4.9775,4.9509,4.9509,4.9509,4.9509,4.9509,4.9509,4.9486,4.9373,4.933,4.9351,4.9299,4.9299,4.9299,4.9299,4.9299,4.9299,4.9299,4.9673,4.9942,4.9942,5.0361,5.072,5.0853,5.0883,5.102,5.1199,5.1229,5.1229,5.1229,5.1229,5.1229,5.1229,5.1229,5.1229,5.1229,5.1229,5.1468,5.1917,5.2606,5.3264,5.3952,5.461,5.4999,5.5179,5.5179,5.5179,5.5179,5.5179,5.5179,5.5179,5.5179,5.5179,5.5179,3.9697,3.9697,3.9697,3.9697,3.9697,4.0415,4.2447,4.317,4.421,4.6299,4.6975,4.7309,4.7309,4.7549,4.7698,4.7698,4.7938,4.8087,4.8087,4.8087,4.8087,4.8087,4.7361,4.7051,4.7266,4.6077,4.5779,4.655,4.5779,4.5779,4.6506,4.4442,4.3787,4.4303,4.5327,4.4949,4.3671,4.6764,4.7867,4.7603,4.8387,4.9075,4.9643,4.9643,5.0062,5.0584,5.0584,5.087,5.1229,5.1229,5.1229,5.1229,5.1229,5.1229,5.1229,5.1229,5.1229,5.1229,5.1229,5.1229,5.1229,5.1229,5.1229,5.1229,5.1229,5.1229,5.1229,5.1229,5.1229,5.1109,5.0644,5.0584,5.0511,5.0092,5.0032,5.0032,5.0032,5.0032,5.0032,5.0032,5.0391,5.0584,5.0584,5.0943,5.1229,5.1229,5.1229,5.1229,5.1229,5.1229,5.1229,5.1229,5.1229,5.1229,5.1229,5.1229,5.1229,5.1229,5.1498,5.1828,5.2247,5.3174,5.3803,5.4251,5.491,5.5179,5.5179,5.5179,5.5179,5.5179,5.5179,5.5179,5.5179,5.5179,5.5179,5.5179,3.9697,3.9697,3.9697,3.9697,3.9697,4.0134,4.1419,4.2593,4.3834,4.5207,4.6299,4.7092,4.7355,4.782,4.8208,4.8356,4.897,4.9299,4.9299,4.9299,4.9299,4.9299,4.9299,4.876,4.7519,4.6283,4.5685,4.5685,4.5685,4.5685,4.564,4.4537,4.4565,4.559,4.635,4.661,4.6593,4.8504,4.9329,4.9389,4.9389,4.9733,5.0285,5.0285,5.0644,5.1229,5.1229,5.1229,5.1229,5.1229,5.1229,5.1229,5.1229,5.1229,5.1229,5.1229,5.1229,5.1229,5.1229,5.1229,5.1229,5.1229,5.1229,5.1229,5.1229,5.1229,5.1229,5.1229,5.1229,5.1229,5.1229,5.1229,5.1229,5.1229,5.1229,5.1229,5.1229,5.1229,5.1229,5.1229,5.1229,5.1229,5.1229,5.1229,5.1229,5.1229,5.1229,5.1229,5.1229,5.1229,5.1229,5.1229,5.1229,5.1229,5.1229,5.1289,5.1319,5.1319,5.1917,5.2247,5.2426,5.3653,5.4251,5.4341,5.494,5.5179,5.5179,5.5179,5.5179,5.5179,5.5179,5.5179,5.5179,5.5179,5.5179,5.5179,3.9697,3.9697,3.9697,3.9697,3.9697,4.0134,4.1419,4.1838,4.2834,4.5115,4.4794,4.5287,4.7821,4.7315,4.7427,4.897,4.9239,4.9299,4.9299,4.9299,4.9299,4.9299,4.9299,4.9179,4.888,4.8075,4.7674,4.7674,4.7674,4.7674,4.7703,4.7908,4.7658,4.7026,4.8155,4.8122,4.7276,4.8711,4.9553,5.0032,5.0032,5.0421,5.0973,5.0973,5.1079,5.1229,5.1229,5.1229,5.1229,5.1229,5.1229,5.1229,5.1229,5.1229,5.1229,5.1229,5.1229,5.1229,5.1229,5.1229,5.1229,5.1229,5.1229,5.1229,5.1229,5.1229,5.1229,5.1229,5.1229,5.1229,5.1229,5.1229,5.1229,5.1229,5.1229,5.1229,5.1229,5.1229,5.1229,5.1229,5.1229,5.1229,5.1229,5.1229,5.1229,5.1229,5.1229,5.1229,5.1229,5.1229,5.1229,5.1229,5.1229,5.1229,5.1229,5.1738,5.1977,5.1977,5.2127,5.2755,5.3773,5.4072,5.4491,5.497,5.5119,5.5179,5.5179,5.5179,5.5179,5.5179,5.5179,5.5179,5.5179,5.5179,5.5179,5.5179,3.9697,3.9697,3.9697,3.9697,3.9697,3.9929,4.0592,4.1219,4.2084,4.3409,4.3752,4.4534,4.6217,4.6291,4.7081,4.9087,4.9829,5.0212,5.0212,5.0212,5.0212,5.0212,5.0212,5.0212,5.0212,4.9553,4.9075,4.879,4.879,4.879,4.8745,4.9149,4.8953,4.8328,4.928,4.9383,4.8799,4.9802,5.0391,5.0674,5.0674,5.0853,5.1229,5.1229,5.1229,5.1229,5.1229,5.1229,5.1229,5.1229,5.1229,5.1229,5.1229,5.1229,5.1229,5.1229,5.1229,5.1229,5.1229,5.1229,5.1229,5.1229,5.1229,5.1229,5.1229,5.1229,5.1229,5.1229,5.1229,5.1229,5.1229,5.1229,5.1229,5.1229,5.1229,5.1229,5.1229,5.1229,5.1229,5.1229,5.1229,5.1229,5.1229,5.1229,5.1229,5.1229,5.1229,5.1229,5.1229,5.1229,5.1229,5.1229,5.1229,5.1379,5.1678,5.2037,5.2516,5.3144,5.3144,5.3533,5.4221,5.4521,5.485,5.5179,5.5179,5.5179,5.5179,5.5179,5.5179,5.5179,5.5179,5.5179,5.5179,5.5179,5.5179,5.5239,3.9697,3.9697,3.9697,3.9697,3.9697,3.9697,3.9697,4.0592,4.1395,4.1673,4.2843,4.3884,4.4545,4.5586,4.6974,4.8709,4.9873,5.0508,5.0508,5.0508,5.0508,5.0508,5.0508,5.0603,5.087,5.0334,4.9832,4.9434,4.9434,4.9434,4.9434,4.9553,4.9629,4.9659,5.0152,5.0375,5.0405,5.0943,5.1229,5.1229,5.1229,5.1229,5.1229,5.1229,5.1229,5.1229,5.1229,5.1229,5.1229,5.1229,5.1229,5.1229,5.1229,5.1229,5.1229,5.1229,5.1229,5.1229,5.1229,5.1229,5.1229,5.1229,5.1229,5.1229,5.1229,5.1229,5.1229,5.1229,5.1229,5.1229,5.1229,5.1229,5.1229,5.1229,5.1229,5.1229,5.1229,5.1229,5.1229,5.1229,5.1229,5.1229,5.1229,5.1229,5.1229,5.1229,5.1229,5.1229,5.1229,5.1229,5.1229,5.1229,5.1319,5.1648,5.2187,5.2426,5.3114,5.4221,5.4311,5.4371,5.4401,5.494,5.5179,5.5179,5.5179,5.5179,5.5179,5.5179,5.5179,5.5179,5.5179,5.5179,5.5179,5.5179,5.5269,5.5448,3.9697,3.9697,3.9697,3.9697,3.9697,3.9697,3.9697,3.9826,4.0543,4.2075,4.1544,4.2242,4.55,4.6519,4.7063,4.735,4.7554,4.7656,4.7656,4.7656,4.7656,4.7656,4.7656,4.8239,4.9455,4.9368,4.9578,5.0076,5.0076,5.0076,5.0076,5.069,5.096,5.096,5.105,5.1079,5.1079,5.1169,5.1229,5.1229,5.1229,5.1229,5.1229,5.1229,5.1229,5.1229,5.1229,5.1229,5.1229,5.1229,5.1229,5.1229,5.1229,5.1229,5.1229,5.1229,5.1229,5.1229,5.1229,5.1229,5.1229,5.1229,5.1229,5.1229,5.1229,5.1229,5.1229,5.1229,5.1229,5.1229,5.1229,5.1229,5.1229,5.1229,5.1229,5.1229,5.1229,5.1229,5.1229,5.1229,5.1229,5.1229,5.1229,5.1229,5.1229,5.1229,5.1229,5.1229,5.1229,5.1229,5.1229,5.1229,5.1768,5.2127,5.2187,5.3354,5.4042,5.4221,5.479,5.5059,5.5059,5.5149,5.5179,5.5179,5.5179,5.5179,5.5179,5.5179,5.5179,5.5179,5.5179,5.5179,5.5179,5.5179,5.5538,5.6098,3.9697,3.9697,3.9697,3.9697,3.9697,3.9697,3.9697,3.9948,4.0433,4.1208,4.14,4.2065,4.3729,4.5102,4.5925,4.5925,4.663,4.7094,4.7094,4.7094,4.7094,4.7094,4.7094,4.7402,4.8038,4.8038,4.8148,4.8485,5.0017,5.0734,5.0734,5.1079,5.1229,5.1229,5.1229,5.1229,5.1229,5.1229,5.1229,5.1229,5.1229,5.1229,5.1229,5.1229,5.1229,5.1229,5.1229,5.1229,5.1229,5.1229,5.1229,5.1229,5.1229,5.1229,5.1229,5.1229,5.1229,5.1229,5.1229,5.1229,5.1229,5.1229,5.1229,5.1229,5.1229,5.1229,5.1229,5.1229,5.1229,5.1229,5.1229,5.1229,5.1229,5.1229,5.1229,5.1229,5.1229,5.1229,5.1229,5.1229,5.1229,5.1229,5.1229,5.1229,5.1229,5.1229,5.1229,5.1229,5.1229,5.1229,5.1379,5.1768,5.2067,5.2576,5.3324,5.3922,5.4401,5.476,5.5059,5.5179,5.5179,5.5179,5.5179,5.5179,5.5179,5.5179,5.5179,5.5179,5.5179,5.5179,5.5179,5.5179,5.5239,5.5598,5.5927,5.6286]}]]